[[{"header":{"parameterUnit":"m.s-1","parameterCategory":1,"la1":30.6,"la2":29.2853,"lo1":-89.7004,"lo2":-87.6739,"dy":0.0162,"dx":0.0183,"nx":112,"ny":82,"refTime":"2023-02-28T06:00:00:Z","depth":0,"parameterNumber":2,"parameterNumberName":"U-component_of_WINDS"},"data":[0.0,0.0,0.0,0.0,0.0,0.0,0.0,0.0,0.0,0.0,0.0,0.0,0.0,0.0,0.0,0.0,0.0,0.0,0.0,0.0,0.0,0.0,0.0,0.0,0.0,0.0,0.0,0.0,0.0,0.0,0.0,0.0,0.0,0.0,0.0,0.0,0.0,0.0,0.0,0.0,0.0,0.0,0.0,0.0,0.0,0.0,0.0,0.0,0.0,0.0,0.0,0.0,0.0,0.0,0.0,0.0,0.0,0.0,0.0,0.0,0.0,0.0,0.0,0.0,0.0,0.0,0.0,0.0,0.0,0.0,0.0,0.0,0.0,0.0,0.0,0.0,0.0,0.0,0.0,0.0,0.0,0.0,0.0,0.0,0.0,0.0,0.0,0.0,0.0,0.0,0.0,-2.6078,-2.8418,-2.9777,-2.9617,-3.0039,-2.9591,-2.7837,0.0,0.0,0.0,0.0,0.0,0.0,0.0,0.0,0.0,0.0,0.0,0.0,0.0,0.0,0.0,0.0,0.0,0.0,0.0,0.0,0.0,0.0,0.0,0.0,0.0,0.0,0.0,0.0,0.0,0.0,0.0,0.0,0.0,0.0,0.0,0.0,0.0,0.0,0.0,0.0,0.0,0.0,0.0,0.0,0.0,0.0,0.0,0.0,0.0,0.0,0.0,0.0,0.0,0.0,0.0,0.0,0.0,0.0,0.0,0.0,0.0,0.0,0.0,0.0,0.0,0.0,0.0,0.0,0.0,0.0,0.0,0.0,0.0,0.0,0.0,0.0,0.0,0.0,0.0,0.0,0.0,0.0,0.0,0.0,0.0,0.0,0.0,0.0,0.0,0.0,0.0,0.0,0.0,0.0,0.0,0.0,0.0,0.0,0.0,0.0,0.0,0.0,0.0,0.0,-2.6367,-2.852,-2.9279,-2.9635,-2.9608,-2.9527,-2.9283,-2.8809,0.0,0.0,0.0,0.0,0.0,0.0,0.0,0.0,0.0,0.0,0.0,0.0,0.0,0.0,0.0,0.0,0.0,0.0,0.0,0.0,0.0,0.0,0.0,0.0,0.0,0.0,0.0,0.0,0.0,0.0,0.0,0.0,0.0,0.0,0.0,0.0,0.0,0.0,0.0,0.0,0.0,0.0,0.0,0.0,0.0,0.0,0.0,0.0,0.0,0.0,0.0,0.0,0.0,0.0,0.0,0.0,0.0,0.0,0.0,0.0,0.0,0.0,0.0,0.0,0.0,0.0,0.0,0.0,0.0,0.0,0.0,0.0,0.0,0.0,0.0,0.0,0.0,0.0,0.0,0.0,0.0,0.0,0.0,0.0,0.0,0.0,0.0,0.0,0.0,0.0,0.0,0.0,0.0,0.0,0.0,0.0,0.0,0.0,0.0,0.0,0.0,0.0,0.0,-2.5298,-2.6657,-2.8905,-2.9314,-2.9395,-2.928,-2.9185,-2.8823,-2.8069,-2.8124,0.0,0.0,0.0,0.0,0.0,0.0,0.0,0.0,0.0,0.0,0.0,0.0,0.0,0.0,0.0,0.0,0.0,0.0,0.0,0.0,0.0,0.0,0.0,0.0,0.0,0.0,0.0,0.0,0.0,0.0,0.0,0.0,0.0,0.0,0.0,0.0,0.0,0.0,0.0,0.0,0.0,0.0,0.0,0.0,0.0,0.0,0.0,0.0,0.0,0.0,0.0,0.0,0.0,0.0,0.0,0.0,0.0,0.0,0.0,0.0,0.0,0.0,0.0,0.0,0.0,0.0,0.0,0.0,0.0,0.0,0.0,0.0,0.0,0.0,0.0,0.0,0.0,0.0,0.0,0.0,0.0,0.0,0.0,0.0,0.0,0.0,0.0,0.0,0.0,0.0,0.0,0.0,0.0,0.0,0.0,0.0,0.0,0.0,0.0,0.0,0.0,0.0,-2.5921,-2.7122,-2.8826,-2.9138,-2.9181,-2.8998,-2.9005,-2.8511,-2.7332,-2.6954,0.0,0.0,0.0,0.0,0.0,0.0,0.0,0.0,0.0,0.0,0.0,0.0,0.0,0.0,0.0,0.0,0.0,0.0,0.0,0.0,0.0,0.0,0.0,0.0,0.0,0.0,0.0,0.0,0.0,0.0,0.0,0.0,0.0,0.0,0.0,0.0,0.0,0.0,0.0,0.0,0.0,0.0,0.0,0.0,0.0,0.0,0.0,0.0,0.0,0.0,0.0,0.0,0.0,0.0,0.0,0.0,0.0,0.0,0.0,0.0,0.0,0.0,0.0,0.0,0.0,0.0,0.0,0.0,0.0,0.0,0.0,0.0,0.0,0.0,0.0,0.0,0.0,0.0,0.0,0.0,0.0,0.0,0.0,0.0,0.0,0.0,0.0,0.0,0.0,0.0,0.0,0.0,0.0,0.0,0.0,0.0,0.0,0.0,0.0,0.0,0.0,0.0,-2.7554,-2.8826,-2.8987,-2.8998,-2.9028,-2.9005,-2.9005,-2.8551,-2.7548,-2.6531,0.0,0.0,0.0,0.0,0.0,0.0,0.0,0.0,0.0,0.0,0.0,0.0,0.0,0.0,0.0,0.0,0.0,0.0,0.0,0.0,0.0,0.0,0.0,0.0,0.0,0.0,0.0,0.0,0.0,0.0,0.0,0.0,0.0,0.0,0.0,0.0,0.0,0.0,0.0,0.0,0.0,0.0,0.0,0.0,0.0,0.0,0.0,0.0,0.0,0.0,0.0,0.0,0.0,0.0,0.0,0.0,0.0,0.0,0.0,0.0,0.0,0.0,0.0,0.0,0.0,0.0,0.0,0.0,0.0,0.0,0.0,0.0,0.0,0.0,0.0,0.0,0.0,0.0,0.0,0.0,0.0,0.0,0.0,0.0,0.0,0.0,0.0,0.0,0.0,0.0,0.0,0.0,0.0,0.0,0.0,0.0,0.0,0.0,0.0,0.0,0.0,0.0,-2.7358,-2.8436,0.0,-2.9005,-2.9005,-2.9005,-2.9005,-2.8569,-2.7561,0.0,0.0,0.0,0.0,0.0,0.0,0.0,0.0,0.0,0.0,0.0,0.0,0.0,0.0,0.0,0.0,0.0,0.0,0.0,0.0,0.0,0.0,0.0,0.0,0.0,0.0,0.0,0.0,0.0,0.0,0.0,0.0,0.0,0.0,0.0,0.0,0.0,0.0,0.0,0.0,0.0,0.0,0.0,0.0,0.0,0.0,0.0,0.0,0.0,0.0,0.0,0.0,0.0,0.0,0.0,0.0,0.0,0.0,0.0,0.0,0.0,0.0,0.0,0.0,0.0,0.0,0.0,0.0,0.0,0.0,0.0,0.0,0.0,0.0,0.0,0.0,0.0,0.0,0.0,0.0,0.0,0.0,0.0,0.0,0.0,0.0,0.0,0.0,0.0,0.0,0.0,0.0,0.0,0.0,0.0,0.0,0.0,0.0,0.0,0.0,0.0,0.0,-2.6501,-2.7479,-2.8393,0.0,-2.9005,-2.9005,-2.9005,-2.9005,-2.8557,-2.7561,0.0,0.0,0.0,0.0,0.0,0.0,0.0,0.0,0.0,0.0,0.0,0.0,0.0,0.0,0.0,0.0,0.0,0.0,0.0,0.0,0.0,0.0,0.0,0.0,0.0,0.0,0.0,0.0,0.0,0.0,0.0,0.0,0.0,0.0,0.0,0.0,0.0,0.0,0.0,0.0,0.0,0.0,0.0,0.0,0.0,0.0,0.0,0.0,0.0,0.0,0.0,0.0,0.0,0.0,0.0,0.0,0.0,0.0,0.0,0.0,0.0,0.0,0.0,0.0,0.0,0.0,0.0,0.0,0.0,0.0,0.0,0.0,0.0,0.0,0.0,0.0,0.0,0.0,0.0,0.0,0.0,0.0,0.0,0.0,0.0,0.0,0.0,0.0,0.0,0.0,0.0,0.0,0.0,0.0,0.0,0.0,0.0,0.0,0.0,0.0,0.0,0.0,-2.7174,-2.8221,-2.9005,-2.9005,-2.9005,-2.9005,-2.9005,-2.9005,-2.8569,0.0,0.0,0.0,0.0,0.0,0.0,0.0,0.0,0.0,0.0,0.0,0.0,0.0,0.0,0.0,0.0,0.0,0.0,0.0,0.0,0.0,0.0,0.0,0.0,0.0,0.0,0.0,0.0,0.0,0.0,0.0,0.0,0.0,0.0,0.0,0.0,0.0,0.0,0.0,0.0,0.0,0.0,0.0,0.0,0.0,0.0,0.0,0.0,0.0,0.0,0.0,0.0,0.0,0.0,0.0,0.0,0.0,0.0,0.0,0.0,0.0,0.0,0.0,0.0,0.0,0.0,0.0,0.0,0.0,0.0,0.0,0.0,0.0,0.0,0.0,0.0,0.0,0.0,0.0,0.0,0.0,0.0,0.0,0.0,0.0,0.0,0.0,0.0,0.0,0.0,0.0,0.0,0.0,0.0,0.0,0.0,0.0,0.0,0.0,0.0,0.0,0.0,0.0,-2.6346,-2.7786,-2.8929,-2.8929,-2.8964,-2.9005,-2.9005,-2.9005,-2.8634,-2.7768,0.0,0.0,0.0,0.0,0.0,0.0,0.0,0.0,0.0,0.0,0.0,0.0,0.0,0.0,0.0,0.0,0.0,0.0,0.0,0.0,0.0,0.0,0.0,0.0,0.0,0.0,0.0,0.0,0.0,0.0,0.0,0.0,0.0,0.0,0.0,0.0,0.0,0.0,0.0,0.0,0.0,0.0,0.0,0.0,0.0,0.0,0.0,0.0,0.0,0.0,0.0,0.0,0.0,0.0,0.0,0.0,0.0,0.0,0.0,0.0,0.0,0.0,0.0,0.0,0.0,0.0,0.0,0.0,0.0,0.0,0.0,0.0,0.0,0.0,0.0,0.0,0.0,0.0,0.0,0.0,0.0,0.0,0.0,0.0,0.0,0.0,0.0,0.0,0.0,0.0,0.0,0.0,0.0,0.0,0.0,0.0,0.0,0.0,0.0,0.0,0.0,0.0,-2.6397,-2.7816,-2.8905,-2.8905,-2.8952,-2.9133,-2.9445,-2.9482,-2.942,-2.9248,0.0,0.0,0.0,0.0,0.0,0.0,0.0,0.0,0.0,0.0,0.0,0.0,0.0,0.0,0.0,0.0,0.0,0.0,0.0,0.0,0.0,0.0,0.0,0.0,0.0,0.0,0.0,0.0,0.0,0.0,0.0,0.0,0.0,0.0,0.0,0.0,0.0,0.0,0.0,0.0,0.0,0.0,0.0,0.0,0.0,0.0,0.0,0.0,0.0,0.0,0.0,0.0,0.0,0.0,0.0,0.0,0.0,0.0,0.0,0.0,0.0,0.0,0.0,0.0,0.0,0.0,0.0,0.0,0.0,0.0,0.0,0.0,0.0,0.0,0.0,0.0,0.0,0.0,0.0,0.0,0.0,0.0,0.0,0.0,0.0,0.0,0.0,0.0,0.0,0.0,0.0,0.0,0.0,0.0,0.0,0.0,0.0,0.0,0.0,0.0,0.0,0.0,-2.6853,-2.8045,-2.8893,-2.8893,-2.894,-2.9305,-3.0112,-3.0198,-3.0528,-3.1347,0.0,0.0,0.0,0.0,0.0,0.0,0.0,0.0,0.0,0.0,0.0,0.0,0.0,0.0,0.0,0.0,0.0,0.0,0.0,0.0,0.0,0.0,0.0,0.0,0.0,0.0,0.0,0.0,0.0,0.0,0.0,0.0,0.0,0.0,0.0,0.0,0.0,0.0,0.0,0.0,0.0,0.0,0.0,0.0,0.0,0.0,0.0,0.0,0.0,0.0,0.0,0.0,0.0,0.0,0.0,0.0,0.0,0.0,0.0,0.0,-2.7231,0.0,0.0,0.0,0.0,0.0,0.0,0.0,0.0,0.0,0.0,0.0,0.0,0.0,0.0,0.0,0.0,0.0,0.0,0.0,0.0,0.0,0.0,0.0,0.0,0.0,0.0,0.0,0.0,0.0,0.0,0.0,0.0,0.0,0.0,0.0,0.0,0.0,0.0,0.0,0.0,0.0,-2.6055,-2.7596,-2.8743,-2.8743,-2.8858,-2.9234,-2.9972,-3.01,-3.0454,-3.1272,-3.0776,0.0,0.0,0.0,0.0,0.0,0.0,0.0,0.0,0.0,0.0,0.0,0.0,0.0,0.0,0.0,0.0,0.0,0.0,0.0,0.0,0.0,0.0,0.0,0.0,0.0,0.0,0.0,0.0,0.0,0.0,0.0,0.0,0.0,0.0,0.0,0.0,0.0,0.0,0.0,0.0,0.0,0.0,0.0,0.0,0.0,0.0,0.0,0.0,0.0,0.0,0.0,0.0,0.0,0.0,0.0,0.0,0.0,0.0,0.0,0.0,-2.8252,0.0,0.0,0.0,0.0,0.0,0.0,0.0,0.0,0.0,0.0,0.0,0.0,0.0,0.0,0.0,0.0,0.0,0.0,0.0,0.0,0.0,0.0,0.0,0.0,0.0,0.0,0.0,0.0,0.0,0.0,0.0,0.0,0.0,0.0,0.0,0.0,0.0,0.0,0.0,0.0,-2.6801,-2.7905,-2.9003,-2.9771,-2.96,-2.9905,-3.1052,-3.1193,-3.1548,-3.2346,-3.1856,0.0,0.0,0.0,0.0,0.0,0.0,0.0,0.0,0.0,0.0,0.0,0.0,0.0,0.0,0.0,0.0,0.0,0.0,0.0,0.0,0.0,0.0,0.0,0.0,0.0,0.0,0.0,0.0,0.0,0.0,0.0,0.0,0.0,0.0,0.0,0.0,0.0,0.0,0.0,0.0,0.0,0.0,0.0,0.0,0.0,0.0,0.0,0.0,0.0,0.0,0.0,0.0,0.0,0.0,-3.0407,-3.1098,-3.0971,-3.1697,-3.2948,-3.1167,-3.0292,-3.0131,0.0,0.0,0.0,0.0,0.0,0.0,0.0,0.0,0.0,0.0,0.0,0.0,0.0,0.0,0.0,0.0,0.0,0.0,0.0,0.0,0.0,0.0,0.0,0.0,0.0,-3.1457,-3.2283,0.0,0.0,0.0,0.0,0.0,0.0,0.0,0.0,0.0,0.0,0.0,0.0,-2.8184,-2.8765,-2.9595,-3.0939,-3.055,-3.0745,-3.2151,-3.2278,-3.2637,-3.3433,-3.2873,-3.2306,0.0,0.0,0.0,0.0,0.0,0.0,0.0,0.0,0.0,0.0,0.0,0.0,0.0,0.0,0.0,0.0,0.0,0.0,0.0,0.0,0.0,0.0,0.0,0.0,0.0,0.0,0.0,0.0,0.0,0.0,0.0,0.0,-3.1912,-3.0865,0.0,0.0,0.0,0.0,0.0,0.0,0.0,0.0,0.0,0.0,0.0,0.0,0.0,0.0,-2.9934,-3.2208,-3.3056,-3.2492,-3.389,-3.4603,-3.4718,-3.4584,-3.4631,-3.4887,-3.5325,0.0,-3.2123,-3.1167,0.0,0.0,0.0,0.0,0.0,0.0,0.0,0.0,0.0,0.0,0.0,0.0,0.0,0.0,0.0,0.0,0.0,0.0,0.0,0.0,0.0,0.0,-3.263,-3.2911,-3.3128,-3.3217,0.0,-3.2105,-3.1524,-3.2238,0.0,0.0,0.0,0.0,0.0,0.0,0.0,0.0,-2.9354,-3.0161,-3.0781,-3.0994,-3.098,-3.1156,-3.1652,-3.1772,-3.2158,-3.3014,-3.2978,-3.2664,-3.2083,-3.2639,0.0,0.0,0.0,0.0,0.0,0.0,0.0,0.0,0.0,0.0,0.0,0.0,0.0,0.0,0.0,0.0,0.0,0.0,0.0,0.0,0.0,0.0,0.0,0.0,0.0,0.0,0.0,0.0,0.0,-3.2356,-3.1436,-3.0021,-3.0192,-2.9841,0.0,0.0,0.0,0.0,0.0,0.0,0.0,0.0,0.0,-2.9341,-3.0356,-3.0731,-3.0383,-3.1611,-3.2266,-3.2343,-3.3462,-3.3968,-3.3973,-3.4786,-3.5134,-3.5126,-3.4942,-3.4489,-3.3799,-3.3221,-3.2443,-3.1524,0.0,0.0,0.0,0.0,0.0,-2.9786,-3.0401,0.0,0.0,0.0,0.0,0.0,0.0,0.0,0.0,0.0,0.0,0.0,0.0,0.0,0.0,-3.2705,-3.3096,-3.3284,-3.2814,-3.2631,-3.2627,0.0,-3.1541,-3.0532,-3.0916,0.0,0.0,0.0,0.0,0.0,-3.0883,-3.0988,-3.1361,-3.2252,-3.1972,-3.1863,-3.2237,-3.2293,-3.2485,-3.2858,-3.2894,-3.2891,-3.2882,-3.3146,-3.2721,0.0,0.0,0.0,0.0,0.0,0.0,0.0,0.0,0.0,0.0,0.0,0.0,0.0,0.0,0.0,0.0,0.0,0.0,0.0,0.0,0.0,0.0,0.0,0.0,0.0,0.0,0.0,0.0,-3.1449,-3.1472,-2.9284,-3.0292,-3.0278,0.0,0.0,0.0,0.0,0.0,0.0,-2.8879,-2.9459,-2.9863,-2.9954,-3.0765,-3.1312,-3.1579,-3.2046,-3.2555,-3.3119,-3.3845,-3.4129,-3.4117,-3.525,-3.5729,-3.5628,-3.486,-3.4868,-3.5281,-3.4081,-3.3422,-3.3055,-3.1715,-3.1422,0.0,-3.1619,-3.155,-3.1655,-3.242,-3.2634,-3.2625,-3.2828,0.0,-3.2159,-3.1778,0.0,0.0,0.0,0.0,-3.1162,-3.21,0.0,-3.2375,-3.2477,-3.2958,-3.3248,-3.2632,-3.2785,-3.3084,0.0,-3.1696,-3.0736,-3.1751,0.0,0.0,0.0,0.0,-3.1618,-3.2274,-3.1924,-3.2071,-3.3266,-3.2882,-3.2621,-3.2822,-3.2844,-3.286,-3.2876,-3.286,-3.305,-3.3506,-3.3829,-3.3803,-3.3404,0.0,0.0,0.0,0.0,0.0,0.0,0.0,0.0,0.0,0.0,0.0,0.0,0.0,0.0,0.0,0.0,0.0,0.0,0.0,0.0,0.0,0.0,0.0,0.0,0.0,0.0,0.0,0.0,0.0,-2.8659,-3.1051,0.0,0.0,0.0,0.0,-3.026,-2.9517,-3.0128,-3.2595,-3.0381,-3.0192,-3.2703,-3.2962,-3.343,-3.419,-3.5795,-3.661,-3.6639,-3.7334,-3.7601,-3.7544,-3.7572,-3.7442,-3.7179,-3.7141,-3.7028,-3.6562,-3.2481,-3.1649,-3.2825,-3.1796,-3.2307,-3.3665,-3.3652,-3.3611,-3.3575,-3.3675,-3.3666,-3.3643,-3.3707,-3.3067,-3.2415,-3.3002,-3.2025,0.0,0.0,-3.1927,-3.2151,-3.3096,-3.3324,-3.3324,-3.3339,-3.3375,-3.3393,-3.3357,-3.2675,-3.2328,0.0,-3.3288,-3.3156,-3.3029,0.0,-3.2924,-3.296,-3.296,-3.3072,-3.3309,-3.3302,-3.3302,-3.3393,-3.343,-3.3306,-3.3021,-3.299,-3.3021,-3.3081,-3.3037,-3.316,-3.3591,-3.5064,-3.5081,-3.3422,-3.4829,0.0,0.0,0.0,0.0,0.0,0.0,0.0,0.0,0.0,0.0,0.0,0.0,0.0,0.0,0.0,0.0,0.0,0.0,0.0,0.0,0.0,0.0,0.0,0.0,0.0,0.0,0.0,0.0,-3.1813,-3.3982,0.0,0.0,-3.1257,-3.1767,-3.0608,-3.1786,-3.2459,-3.2237,-3.2397,-3.2397,-3.2222,-3.3459,-3.3902,-3.349,-3.4681,-3.4941,-3.4289,-3.5607,-3.5599,-3.4497,-3.5904,-3.5889,-3.4787,-3.4555,-3.4717,-3.4926,-3.223,-3.2149,-3.3584,-3.2004,-3.1745,-3.226,-3.226,-3.2234,-3.2313,-3.2839,-3.3101,-3.3302,-3.3969,-3.3795,-3.3473,-3.4229,-3.3506,-3.2711,-3.4078,-3.4078,-3.375,-3.4084,-3.457,-3.4679,-3.3647,-3.381,-3.4027,-3.352,-3.3132,-3.3008,-3.3342,-3.2903,-3.2631,-3.3087,-3.3268,-3.3345,-3.3286,-3.3331,-3.3375,-3.3452,-3.3422,-3.3393,-3.3393,-3.3466,-3.336,-3.3039,-3.3037,-3.3065,-3.3096,-3.3083,-3.325,-3.3643,-3.521,-3.578,-3.5152,-3.6643,-3.6107,0.0,0.0,0.0,0.0,0.0,0.0,0.0,0.0,0.0,0.0,0.0,0.0,0.0,0.0,0.0,0.0,0.0,0.0,0.0,0.0,0.0,0.0,0.0,0.0,0.0,0.0,-3.5828,-3.3266,-3.5695,-3.5883,-3.159,-3.275,-3.3406,-3.2486,-3.3723,-3.428,-3.3643,-3.4111,-3.4016,-3.3175,-3.46,-3.5025,-3.4293,-3.5179,-3.5219,-3.4477,-3.558,-3.5441,-3.426,-3.5407,-3.5281,-3.4111,-3.3557,-3.3617,-3.3988,-3.2502,-3.2686,-3.3722,-3.2422,-3.2238,-3.2716,-3.2791,-3.2816,-3.2964,-3.4085,-3.4346,-3.4309,-3.4865,-3.4716,-3.4328,-3.444,-3.3971,-3.3656,-3.4976,-3.4976,-3.4633,-3.4935,-3.5388,-3.5532,-3.4461,-3.4609,-3.4772,-3.3991,-3.3824,-3.3854,-3.3836,-3.311,-3.2672,-3.3207,-3.3415,-3.3433,-3.3103,-3.3313,-3.34,-3.3132,-3.3274,-3.3408,-3.3422,-3.3477,-3.3444,-3.325,-3.3027,-3.3143,-3.3716,-3.3469,-3.3695,-3.4531,-3.5243,-3.5762,-3.6039,-3.7499,-3.7341,-3.5439,0.0,0.0,0.0,0.0,0.0,0.0,0.0,0.0,0.0,0.0,0.0,0.0,0.0,0.0,0.0,0.0,0.0,0.0,0.0,0.0,0.0,0.0,0.0,-3.2454,-3.5862,-3.6978,-3.2754,-3.5981,-3.6887,-3.2623,-3.3772,-3.5127,-3.5945,-3.5182,-3.5424,-3.7157,-3.5507,-3.4923,-3.5845,-3.6579,-3.6933,-3.6826,-3.7639,-3.7924,-3.7695,-3.7731,-3.7613,-3.7344,-3.645,-3.5875,-3.553,-3.4544,-3.413,-3.4074,-3.3277,-3.3099,-3.3302,-3.2985,-3.3815,-3.5221,-3.5423,-3.5521,-3.5782,-3.7424,-3.7461,-3.6746,-3.6403,-3.5758,-3.4894,-3.3745,-3.3328,-3.3473,-3.4339,-3.4555,-3.4749,-3.5607,-3.5856,-3.5874,-3.582,-3.5838,-3.562,-3.4824,-3.4685,-3.4745,-3.4742,-3.4106,-3.3582,-3.3582,-3.3617,-3.3386,-3.2607,-3.3098,0.0,-3.2428,-3.2966,-3.3422,-3.3459,-3.3526,-3.3597,-3.3684,-3.299,-3.3254,-3.4935,-3.4252,-3.4545,-3.6229,-3.5323,-3.5169,-3.5975,-3.7308,-3.7984,-3.7898,0.0,0.0,0.0,0.0,0.0,0.0,0.0,0.0,0.0,0.0,0.0,0.0,0.0,0.0,0.0,0.0,0.0,0.0,0.0,0.0,0.0,0.0,-3.3295,-3.4664,-3.7492,-3.8532,-3.6099,-3.7958,-3.8229,-3.5147,-3.5856,-3.6343,-3.596,-3.6239,-3.6892,-3.8015,-3.7496,-3.7237,-3.7386,-3.8307,-3.8383,-3.7517,-3.8525,-3.8569,-3.7712,-3.8343,-3.7936,-3.6606,-3.6787,-3.6177,-3.4913,-3.4509,-3.4652,-3.513,-3.4316,-3.4736,-3.5635,-3.3206,-3.253,-3.2911,-3.2966,-3.3634,-3.4593,-3.5216,-3.6017,-3.6764,-3.6523,-3.588,-3.5169,-3.5173,-3.4298,-3.3722,-3.5736,-3.5955,-3.5775,-3.6609,-3.7262,-3.7389,-3.6224,-3.6391,-3.6591,-3.5788,-3.5621,-3.5636,-3.5636,-3.5498,-3.5396,-3.5396,-3.4918,-3.4485,-3.4311,0.0,0.0,-3.3344,-3.3321,-3.3205,-3.2682,-3.2693,-3.2981,-3.363,-3.3538,-3.4165,0.0,-3.572,-3.5765,-3.6142,-3.6523,-3.7061,-3.7771,-3.7885,-3.795,0.0,0.0,0.0,0.0,0.0,0.0,0.0,0.0,0.0,0.0,0.0,0.0,0.0,0.0,0.0,0.0,0.0,0.0,0.0,0.0,0.0,0.0,-3.321,-3.5015,-3.722,-3.8833,-3.9425,-3.8419,-3.9511,-3.9468,-3.7208,-3.7442,-3.7528,-3.6985,-3.7378,-3.7847,-3.8287,-3.8556,-3.849,-3.8015,-3.9211,-3.9376,-3.8306,-3.9315,-3.944,-3.8718,-3.9251,-3.8909,-3.7812,-3.7737,-3.7156,0.0,-3.5686,-3.5764,-3.6227,-3.5777,-3.6179,0.0,0.0,0.0,0.0,0.0,-3.422,-3.4967,-3.5794,-3.6388,-3.6752,-3.6496,-3.5853,-3.5118,-3.4918,-3.4147,-3.3713,-3.5525,-3.6235,-3.664,-3.7489,-3.8563,-3.9073,-3.7799,-3.7945,-3.8025,-3.6772,-3.6604,-3.6692,-3.6595,0.0,0.0,-3.7073,-3.6245,-3.5365,-3.5003,-3.5137,-3.5009,0.0,-3.4265,-3.4241,-3.3844,-3.3876,-3.4126,-3.4668,-3.4463,0.0,0.0,0.0,-3.6208,-3.6017,-3.6851,0.0,0.0,0.0,-3.8309,0.0,0.0,0.0,0.0,-3.8879,-3.8122,0.0,0.0,0.0,0.0,0.0,0.0,0.0,0.0,0.0,0.0,0.0,0.0,0.0,0.0,0.0,0.0,-3.5505,-3.7695,-3.9535,-3.9797,-3.976,-3.9672,-4.0329,-4.0184,-3.8646,-3.8484,-3.8481,-3.8516,-3.8523,-3.851,-3.8479,0.0,0.0,0.0,0.0,-3.9998,-3.9163,-3.9987,-4.0298,-4.0108,-4.0158,-4.0061,-3.973,-3.8841,-3.8388,-3.8245,-3.7331,-3.711,-3.7359,-3.7265,-3.7351,-3.738,-3.5667,-3.5423,-3.6056,-3.623,-3.6233,0.0,0.0,0.0,0.0,-3.6546,-3.5892,-3.5078,-3.4022,-3.3597,-3.3666,-3.472,-3.6045,-3.7353,-3.8307,-3.9708,-4.0658,-3.9979,-4.0,-3.9715,-3.8047,-3.7923,-3.8066,-3.7866,-3.7228,-3.7165,-3.8597,-3.7481,-3.6146,-3.5322,-3.5728,0.0,-3.4975,-3.5411,-3.5812,-3.5781,0.0,0.0,-3.6095,-3.5526,-3.5848,-3.7529,-3.6945,-3.645,-3.6231,-3.6862,-3.6855,-3.6021,-3.7493,-3.9028,-4.051,-4.1415,-4.2212,-4.281,-3.966,-3.8844,0.0,0.0,0.0,0.0,0.0,0.0,0.0,0.0,0.0,0.0,0.0,0.0,0.0,0.0,0.0,-3.3947,-3.5365,-3.7008,-3.946,-3.9792,-3.9538,-3.8837,-3.8854,-3.8782,-3.8447,-3.832,-3.8549,-3.9233,-3.924,-3.9502,-4.0185,-4.0219,0.0,-3.9939,-4.0241,-4.03,-4.013,-4.0356,-4.0375,-4.0177,0.0,0.0,-3.8936,-3.8734,-3.8269,-3.7577,-3.7394,-3.7726,-3.8363,-3.7652,-3.7787,-3.8348,-3.7284,-3.6877,-3.6866,-3.6911,-3.7117,-3.7397,-3.7713,-3.8164,-3.8396,-3.7374,-3.6697,-3.621,-3.5742,-3.4751,0.0,-3.6364,-3.7184,-3.7747,-3.9229,-4.0329,-4.1054,-4.1132,-4.1163,-4.11,-4.0759,-4.0729,-4.0689,-4.0444,-3.9738,-3.9294,-3.9606,-3.8242,-3.7076,-3.7008,-3.6979,-3.6684,-3.5926,-3.5903,-3.5742,-3.5155,-3.5111,-3.5414,-3.6201,-3.6138,-3.6743,-3.8377,-3.8224,-3.8101,-3.8151,-3.8093,-3.8045,-3.7974,-3.931,-4.0238,-4.067,-4.1995,-4.2737,-4.2864,-4.2192,-4.2009,0.0,0.0,0.0,0.0,0.0,0.0,0.0,0.0,0.0,0.0,0.0,-3.2837,0.0,0.0,-3.337,-3.5549,-3.6626,-3.7954,-4.0136,-4.0386,-4.0193,-3.9746,-3.9677,-3.9643,-3.9602,-3.9543,-3.968,-4.008,-4.0063,-4.021,-4.0586,-4.0508,-4.0411,-4.0288,-4.0307,-4.028,-4.0253,-4.0314,-4.0306,-4.0205,-4.0205,-3.9919,-3.9407,-3.9326,-3.9058,-3.866,-3.866,-3.8906,-3.9267,-3.8831,-3.8906,-3.9267,-3.8831,-3.8277,-3.7788,-3.8214,-3.8072,-3.7757,-3.8197,-3.8584,-3.8674,-3.7689,-3.7278,-3.7084,-3.6519,-3.5841,-3.5507,-3.6708,-3.8144,-3.9496,-4.0286,-4.1699,-4.2834,-4.2572,-4.2304,-4.1954,-4.1431,-4.1412,-4.1412,-4.1142,-4.0781,-4.0506,-4.0506,-3.9747,-3.8891,-3.8114,-3.7909,-3.7716,-3.7296,-3.721,-3.7064,-3.6675,-3.6683,-3.6878,-3.7363,-3.7448,-3.7845,-3.8652,-3.8643,-3.8609,-3.8609,-3.8465,-3.8401,-3.8401,-3.9435,-4.0201,-4.0599,-4.1742,-4.2502,-4.2901,-4.2901,-4.2901,0.0,0.0,0.0,0.0,0.0,0.0,0.0,0.0,-3.3026,-3.3333,-3.4339,-3.4836,-3.3826,-3.4857,-3.6473,-3.8394,-3.9132,-3.9983,-4.1374,-4.1175,-4.0896,-4.0869,-4.0864,-4.084,-4.079,-4.0767,-4.0725,-4.0673,-4.0666,-4.0612,-4.0504,-4.0619,-4.0556,-4.0243,-4.0349,-4.033,-4.0157,-4.0215,-4.0233,-4.0233,-4.0215,-4.0148,-4.0106,-3.9954,-3.99,-3.99,-3.99,-3.99,-3.99,-3.99,-3.99,-3.99,-3.99,-3.9373,-3.8722,-3.9325,-3.8881,-3.8049,-3.8724,-3.8837,-3.8579,-3.7768,-3.7663,-3.7742,-3.7087,-3.6758,-3.6703,-3.7031,-3.9029,-4.1132,-4.1279,-4.313,-4.48,-4.419,-4.3597,-4.2946,-4.2067,-4.1949,-4.1897,-4.162,-4.1425,-4.1334,-4.1334,-4.1156,-4.0573,-3.9202,-3.8857,-3.875,-3.8702,-3.8684,-3.8684,-3.8684,-3.8878,-3.9001,-3.9001,-3.9101,-3.9111,-3.8946,-3.8927,-3.8805,-3.851,-3.8494,-3.8506,-3.8543,-3.9291,-4.0037,-4.0727,-4.1542,-4.2266,-4.2901,-4.2901,-4.2901,-2.981,-3.0056,-3.1247,-3.2359,-3.3276,-3.5084,0.0,0.0,-3.7719,-3.9207,-3.8595,-3.819,-3.9544,-4.0119,-4.1181,-4.3631,-4.3465,-4.3091,-4.3218,-4.1883,-4.0859,-4.0739,-4.0713,-4.0726,-4.072,-4.0593,-4.0527,-4.0519,-4.0512,-4.0531,-4.0496,-4.106,-4.1073,-4.0407,-4.0893,-4.0921,-4.037,-4.036,-4.0388,-4.0388,-4.0252,-4.0148,-4.0106,-3.9954,-3.99,-3.99,-3.99,-3.99,-3.99,-3.99,-3.99,-3.99,-3.99,-3.9713,-3.9462,-3.9364,-3.9136,-3.8845,-3.8773,-3.8723,-3.8579,-3.7768,-3.7762,-3.8046,-3.7965,-3.7387,-3.7094,-3.8581,-3.9997,-4.126,-4.1992,-4.3956,-4.5827,-4.603,-4.5479,-4.4899,-4.4774,-4.4196,-4.3616,-4.329,-4.2653,-4.2176,-4.2176,-4.1572,-4.1024,-4.0857,-4.015,-3.966,-3.9722,-3.9738,-3.9738,-3.9738,-4.038,-4.0804,-4.0804,-4.082,-4.0543,-3.9808,-3.9772,-3.9392,-3.8528,-3.8446,-3.8696,-3.9344,-4.0055,-4.0782,-4.156,-4.2375,-4.281,-4.2901,-4.2901,-4.2901,-3.409,-3.3178,-3.3006,0.0,-3.6507,-3.8169,-3.9335,-3.9161,-3.8815,-3.9008,-4.0217,-4.1295,-4.1514,-4.2921,-4.4412,0.0,-4.5348,-4.4741,-4.3642,-4.2834,-4.1936,-4.0836,-4.0626,-4.0583,-4.0583,-4.0527,-4.0496,-4.0496,-4.0969,-4.1258,-4.1258,-4.1939,-4.2144,-4.1752,-4.1959,-4.1947,-4.1685,-4.1724,-4.178,-4.1843,-4.1798,-4.1475,-4.0911,-4.0781,-4.0431,-3.99,-3.99,-3.99,-3.99,-3.99,-3.99,-3.99,-3.99,-3.9856,-3.9735,-3.9414,-3.9245,-3.9137,-3.8931,-3.895,-3.899,-3.867,-3.8742,-3.8958,-3.897,-3.8652,-3.8402,-3.9093,-4.0841,-4.2561,-4.291,-4.48,-4.6636,-4.6781,-4.619,-4.5599,-4.5599,-4.5341,-4.5049,-4.4928,-4.4617,-4.4397,-4.4397,-4.4121,-4.3736,-4.326,-4.1702,-4.0567,-4.0581,-4.0598,-4.0598,-4.0598,-4.0893,-4.1095,-4.1095,-4.1095,-4.0948,-4.0616,-4.0598,-4.0384,-3.9955,-3.9939,-4.0019,-4.0246,-4.0994,-4.1523,-4.1814,-4.2613,-4.2975,-4.2919,-4.3371,-4.3588,-3.5465,0.0,0.0,-3.745,-3.9662,-4.1016,-4.0277,-4.0392,-4.0566,-4.0181,-4.2195,-4.3998,-4.384,-4.5488,-4.7011,-4.7504,-4.7203,-4.6446,-4.5071,-4.4424,-4.3416,-4.1581,-4.1274,-4.1035,-4.0554,-4.0496,-4.0593,-4.0835,-4.145,-4.1904,-4.2162,-4.283,-4.3073,-4.2757,-4.2864,-4.284,-4.2666,-4.2727,-4.2814,-4.2953,-4.2926,-4.2402,-4.1495,-4.1089,-4.0536,-3.99,-3.99,-3.99,-3.99,-3.99,-3.99,-3.99,-3.99,-3.99,-3.9886,-3.9777,-3.9595,-3.935,-3.9151,-3.9178,-3.9298,-3.9298,-3.9439,-3.9599,-3.9599,-3.9464,-3.9298,-3.9298,-4.1322,-4.3515,-4.3515,-4.5461,-4.7424,-4.7424,-4.6838,-4.6232,-4.6232,-4.6067,-4.5902,-4.5902,-4.5902,-4.5902,-4.5902,-4.5902,-4.57,-4.5131,-4.3552,-4.2178,-4.1517,-4.1625,-4.1847,-4.2067,-4.2288,-4.2324,-4.2104,-4.2086,-4.1902,-4.1462,-4.1425,-4.1301,-4.1014,-4.1014,-4.1037,-4.1135,-4.1919,-4.2304,-4.2232,-4.305,-4.3248,-4.2919,-4.3734,-4.4222,0.0,0.0,-3.5398,-4.0412,-4.2335,-4.3431,-4.5017,-4.4748,-4.4374,-4.521,-4.5514,-4.6136,-4.7819,-4.8347,-4.9079,-5.077,-4.975,-4.8632,-4.8375,-4.6899,-4.5118,-4.3242,-4.3008,-4.2354,0.0,-4.0496,-4.0854,-4.17,-4.1788,-4.2181,-4.3028,-4.3647,-4.3646,-4.2927,-4.345,-4.3477,-4.2908,-4.2889,-4.2953,-4.3096,-4.2961,-4.2402,-4.1457,-4.0416,-3.9919,-3.99,-3.99,-3.99,-3.99,-3.99,-3.99,-3.99,-3.99,-3.99,-3.9973,-4.0632,-4.0333,-3.9563,-3.9363,-3.9298,-3.9298,-3.9298,-3.9439,-3.9599,-3.9599,-3.9464,-3.9298,-3.9298,-4.1322,-4.3515,-4.3515,-4.5865,-4.8269,-4.8269,-4.7645,-4.7058,-4.7058,-4.6452,-4.5902,-4.5902,-4.5902,-4.5902,-4.5902,-4.5902,-4.5883,-4.5865,-4.5792,-4.4911,-4.2561,-4.2928,-4.3718,-4.4507,-4.5296,-4.5443,-4.4672,-4.4581,-4.392,-4.2359,-4.2268,-4.1886,-4.1051,-4.1014,-4.1293,-4.1956,-4.274,-4.3124,-4.3086,-4.3868,-4.3794,-4.2919,-4.3734,-4.4512,0.0,0.0,-4.0642,-4.2893,-4.4547,-4.5624,-4.5594,-4.5364,-4.5248,-4.5537,-4.4801,-4.4298,-4.4879,-4.5629,-4.6524,-4.7697,-4.8886,-4.9418,-4.874,-4.8054,-4.695,-4.5107,-4.4804,0.0,0.0,0.0,0.0,-4.1731,-4.2335,-4.3028,-4.3855,-4.4537,-4.4815,-4.4557,-4.4716,-4.4725,-4.4557,-4.4566,-4.4631,-4.4739,-4.4075,-4.3561,-4.3119,-4.2136,-4.1638,-4.1548,-4.1548,-4.1548,-4.1548,-4.1548,-4.1245,-4.0753,-4.0753,-4.0753,-4.0734,-4.0363,-4.0416,-4.062,-4.0421,-4.0076,-3.9701,-3.9701,-3.9647,-3.9599,-3.9599,-3.9363,-3.9096,-3.9096,-4.1219,-4.3515,-4.3515,-4.5883,-4.8306,-4.8306,-4.8255,-4.8233,-4.8233,-4.803,-4.7826,-4.7826,-4.7647,-4.7498,-4.7498,-4.7498,-4.7315,-4.6764,-4.625,-4.5608,-4.4782,-4.4911,-4.5204,-4.5461,-4.5736,-4.5792,-4.5516,-4.5498,-4.5039,-4.3975,-4.4397,-4.4085,-4.2711,-4.3683,-4.4105,-4.3813,-4.4583,-4.4657,-4.3962,-4.4235,-4.4141,-4.3715,-4.4512,-4.5327,0.0,-3.9642,-4.2374,-4.5009,-4.5984,-4.6292,-4.634,-4.6282,-4.6069,-4.5554,-4.4662,-4.3825,-4.332,-4.3571,-4.3954,-4.4238,-4.6222,-4.7858,-4.8167,-4.8126,-4.7953,-4.7661,-4.7272,0.0,0.0,0.0,0.0,-4.2316,-4.3032,-4.3976,-4.509,-4.5285,-4.5514,-4.5841,-4.5514,-4.537,-4.5476,-4.5476,-4.5513,-4.5594,-4.466,-4.4154,-4.4048,-4.3097,-4.2601,-4.2481,-4.2481,-4.2428,-4.2401,-4.2401,-4.2109,-4.1586,-4.1302,-4.1389,-4.1529,-4.0677,-4.0715,-4.1177,-4.1043,-4.053,-3.9946,-4.0174,-4.0146,-4.0026,-3.9934,-3.9879,-3.9804,-3.9507,-4.1599,-4.3864,-4.357,-4.5973,-4.8458,-4.8344,-4.8658,-4.8917,-4.8658,-4.873,-4.8764,-4.8641,-4.8458,-4.8306,-4.8306,-4.8306,-4.8122,-4.7608,-4.7095,-4.6544,-4.5975,-4.6159,-4.6342,-4.6342,-4.6599,-4.6636,-4.6361,-4.6342,-4.5993,-4.5186,-4.5608,-4.5443,-4.4397,-4.5351,-4.5663,-4.5149,-4.592,-4.5828,-4.4838,-4.5111,-4.5016,-4.4548,-4.5345,-4.6015,-3.8104,-3.965,-4.12,-4.6663,-4.6703,-4.5799,-4.7349,-4.7438,-4.6809,-4.5478,-4.4998,-4.4401,0.0,0.0,-4.1581,-4.0915,-4.2464,-4.4666,-4.7201,-4.7562,-4.8437,0.0,0.0,0.0,0.0,0.0,0.0,-4.3731,0.0,-4.5065,-4.6617,-4.5856,-4.5799,-4.6732,-4.5928,-4.5534,-4.5671,-4.5614,-4.5594,-4.5594,-4.4698,-4.4268,-4.4221,-4.334,-4.2849,-4.2745,-4.2745,-4.265,-4.2545,-4.2545,-4.2507,-4.2382,-4.1624,-4.1795,-4.2363,-4.1548,-4.1264,-4.1264,-4.1291,-4.0685,-3.9989,-4.0664,-4.0798,-4.0697,-4.0582,-4.0913,-4.1163,-4.0459,-4.2415,-4.4599,-4.3844,-4.6259,-4.8842,-4.853,-4.8945,-4.9225,-4.8532,-4.8642,-4.8749,-4.8401,-4.8306,-4.8306,-4.8306,-4.8306,-4.8306,-4.8306,-4.8306,-4.7755,-4.6214,-4.6691,-4.7168,-4.7168,-4.7828,-4.7975,-4.7223,-4.7168,-4.6819,-4.6012,-4.5993,-4.5993,-4.5902,-4.5975,-4.5993,-4.5957,-4.6746,-4.667,-4.5658,-4.6442,-4.6288,-4.5381,-4.6142,-4.6522,-4.0623,-4.4412,-4.7702,-4.7298,-4.7623,-4.7968,-4.775,-4.6671,-4.5616,-4.5262,-4.2345,-3.9341,0.0,0.0,0.0,-4.056,-4.4471,0.0,-5.0825,-5.1176,0.0,-5.277,0.0,-5.2511,-5.0269,-5.1164,0.0,0.0,-4.7606,-4.6836,-4.6562,-4.6423,-4.6731,-4.7576,-4.6887,-4.654,-4.6567,-4.5913,-4.5594,-4.5594,-4.5357,-4.5196,-4.5084,-4.4844,-4.4699,-4.4616,-4.4616,-4.4541,-4.441,-4.441,-4.3992,-4.336,-4.3152,-4.3189,-4.3265,-4.2401,-4.2079,-4.2162,-4.2605,-4.1424,-3.9786,-4.0401,-4.0093,-3.9677,-4.0818,-4.075,-4.0362,-4.0751,-4.3163,-4.5606,-4.5712,-4.7996,-5.0319,-5.0491,-5.0673,-5.0577,-4.9731,-4.9619,-4.9505,-4.8805,-4.8458,-4.8306,-4.8306,-4.8306,-4.8306,-4.8306,-4.8306,-4.8159,-4.7737,-4.7884,-4.7975,-4.7975,-4.8196,-4.8233,-4.8012,-4.7975,-4.7645,-4.6837,-4.737,-4.715,-4.5957,-4.7058,-4.7425,-4.6801,-4.7571,-4.7494,-4.6497,-4.6696,-4.6597,-4.6196,-4.6413,-4.683,-4.3036,-4.5928,-4.841,-4.8076,-4.8496,-4.8579,-4.6975,-4.602,-4.4817,-4.2359,-3.9374,0.0,0.0,0.0,0.0,0.0,0.0,0.0,-5.0232,-5.0704,-5.1808,0.0,-5.5218,0.0,-5.3579,-5.4664,-5.4536,0.0,-4.9835,-4.8335,-4.8215,-4.7559,-4.739,-4.7872,-4.7578,-4.725,-4.6904,-4.6028,-4.5594,-4.5594,-4.5594,-4.5568,-4.5495,-4.5495,-4.5438,-4.533,0.0,-4.5213,-4.5103,-4.5045,-4.4702,-4.4194,-4.3834,-4.3929,-4.408,-4.2837,-4.2562,-4.2787,-4.2677,-4.1649,-4.0456,-4.078,-4.0517,-4.0215,-4.1018,-4.0875,-4.0777,-4.2479,-4.4504,-4.6385,-4.7309,-4.9392,-5.1213,-5.1101,-5.1268,-5.1282,-5.0509,-5.0157,-4.9711,-4.8771,-4.8439,-4.8306,-4.8306,-4.8306,-4.8306,-4.8306,-4.8306,-4.8306,-4.8306,-4.8306,-4.8306,-4.8306,-4.8306,-4.8306,-4.8306,-4.8306,-4.8122,-4.7663,-4.8048,-4.7902,-4.6985,-4.7829,-4.8104,-4.7626,-4.8086,-4.797,-4.7335,-4.7335,-4.7215,-4.7029,-4.7029,-4.7283,-4.5342,-4.6309,-4.718,-4.9095,-4.9454,-4.8598,-4.5838,-4.534,-4.3938,-3.8527,0.0,-3.5278,-3.3101,-3.4154,-3.5501,-3.6081,0.0,-4.3837,-4.8431,-4.9168,-5.124,-5.6573,-5.6729,-5.6618,-5.7121,-5.7953,-5.7486,-5.5148,-5.1909,-5.0195,-5.0543,-4.9143,-4.8247,-4.8103,-4.8087,-4.7759,-4.7058,-4.6086,-4.5594,-4.5594,-4.5594,-4.5594,-4.5594,-4.5594,-4.555,-4.5419,0.0,0.0,-4.5114,-4.4979,-4.4926,-4.4838,-4.4137,-4.4289,-4.4724,-4.3249,-4.295,-4.3186,-4.2366,-4.1857,-4.1548,-4.1533,-4.1462,-4.1363,-4.1415,-4.1366,-4.1869,-4.4594,-4.6062,-4.7157,-4.8793,-5.0603,-5.1852,-5.1316,-5.1547,-5.1725,-5.1109,-5.0433,-4.9658,-4.8657,-4.8379,-4.8306,-4.8306,-4.8306,-4.8306,-4.8306,-4.8306,-4.8306,-4.8306,-4.8306,-4.8306,-4.8306,-4.8306,-4.8306,-4.8306,-4.8306,-4.8306,-4.8306,-4.8306,-4.8306,-4.8306,-4.8306,-4.8306,-4.8306,-4.8306,-4.8209,-4.7992,-4.7992,-4.7909,-4.7717,-4.7717,-4.7717,-4.7566,-4.9787,-5.1741,-5.0721,-5.0768,-5.0034,-4.6105,-4.4151,0.0,0.0,0.0,-3.3971,-3.2089,-3.3217,-3.5571,-3.9068,0.0,0.0,0.0,0.0,-5.4638,0.0,0.0,0.0,0.0,0.0,0.0,0.0,0.0,0.0,-5.1534,-5.1162,-5.0425,-4.9173,-4.8462,-4.8029,-4.7894,-4.6374,-4.5594,-4.5594,-4.5594,-4.5594,-4.5594,-4.5594,-4.5586,-4.5559,0.0,0.0,-4.5246,-4.5125,-4.4991,-4.4895,-4.4743,-4.4781,-4.4833,-4.4391,-4.3823,-4.3329,-4.3483,-4.3024,-4.2371,-4.2198,-4.1691,-4.1399,-4.2688,-4.2765,-4.2892,-4.5161,-4.7017,-4.8711,-5.0432,-5.1915,-5.2996,-5.3157,-5.3077,-5.2729,-5.1963,-5.066,-4.9615,-4.9408,-4.8783,-4.8306,-4.8306,-4.8306,-4.8306,-4.8306,-4.8306,-4.8306,-4.8306,-4.8306,-4.8306,-4.8306,-4.8306,-4.8306,-4.8306,-4.8306,-4.8306,-4.8306,-4.8306,-4.8306,-4.8306,-4.8306,-4.8306,-4.8306,-4.8306,-4.8209,-4.7992,-4.7992,-4.7909,-4.7717,-4.7717,-4.7717,-5.0,-5.1674,-5.3137,-5.2232,-5.1851,-5.0251,-4.4691,0.0,0.0,0.0,-3.3892,-3.3161,-3.2337,0.0,0.0,0.0,0.0,0.0,0.0,0.0,0.0,0.0,0.0,0.0,0.0,0.0,0.0,0.0,0.0,0.0,-5.3257,-5.1436,-5.0364,-5.0087,-4.9221,-4.8567,-4.8105,-4.7298,-4.6682,-4.6278,-4.6701,-4.6682,-4.6278,-4.6278,-4.6028,-4.5586,0.0,0.0,-4.5286,-4.5091,-4.4955,-4.4883,-4.477,-4.4732,-4.4725,-4.4472,-4.4055,-4.3629,-4.3828,-4.3541,-4.3043,-4.2961,-4.2378,-4.1882,-4.2635,-4.2404,-4.2648,-4.6406,-4.7805,-4.8838,-5.1788,-5.301,-5.3462,-5.3442,-5.3316,-5.2986,-5.216,-5.1391,-5.073,-5.0306,-4.9884,-4.9462,-4.904,-4.8967,-4.882,-4.8379,-4.8306,-4.8306,-4.8306,-4.8306,-4.8306,-4.8306,-4.8306,-4.8306,-4.8306,-4.8306,-4.8306,-4.8306,-4.8306,-4.8306,-4.8306,-4.8306,-4.8306,-4.8306,-4.8306,-4.8209,-4.7992,-4.7992,-4.7909,-4.7717,-4.7717,-4.7717,-5.1944,-5.3022,-5.3802,-5.3329,-5.2433,-4.9904,-4.3288,-4.1532,0.0,0.0,-3.3056,-3.3034,-3.3058,0.0,-3.4821,0.0,0.0,0.0,0.0,0.0,0.0,0.0,0.0,0.0,0.0,0.0,0.0,0.0,0.0,0.0,0.0,-5.1509,-4.999,-5.0673,-4.9856,-4.9067,-4.8394,-4.8202,-4.7778,-4.7154,-4.7798,-4.7778,-4.7154,-4.6981,-4.6528,-4.5865,0.0,0.0,0.0,-4.5003,-4.4895,-4.487,-4.4685,-4.4592,-4.4565,-4.4258,-4.4051,-4.3881,-4.3832,-4.3684,-4.3515,-4.3515,-4.3057,-4.2561,-4.2561,-4.2154,-4.2677,-4.7453,-4.8354,-4.878,-5.2603,-5.3714,-5.3783,-5.3508,-5.3335,-5.3041,-5.238,-5.2105,-5.1811,-5.1187,-5.093,-5.06,-4.9978,-4.9867,-4.9574,-4.871,-4.8581,-4.8508,-4.8324,-4.8306,-4.8306,-4.8306,-4.8306,-4.8306,-4.8306,-4.8306,-4.8306,-4.8306,-4.8306,-4.8306,-4.8306,-4.8306,-4.8306,-4.8306,-4.8306,-4.8209,-4.8032,-4.8012,-4.7909,-4.7738,-4.7699,-4.7717,-5.2646,-5.4312,-5.5189,-5.3598,-5.1991,-4.9221,-4.3181,0.0,0.0,-3.4897,-3.403,-3.405,-3.3988,-3.3441,-3.4103,0.0,0.0,0.0,0.0,0.0,0.0,0.0,0.0,0.0,0.0,0.0,0.0,0.0,0.0,0.0,0.0,-5.2395,-5.0616,-5.0712,-4.9856,-4.9356,-4.9279,-4.8509,-4.8067,-4.799,-4.8067,-4.8067,-4.7971,-4.7231,-4.6846,-4.6722,0.0,0.0,0.0,-4.5003,-4.4895,-4.487,-4.4685,-4.4592,-4.4551,-4.4082,-4.3913,-4.3883,-4.3634,-4.3513,-4.3515,-4.3515,-4.346,-4.3404,-4.3404,-4.3502,-4.4297,-4.7463,-4.8477,-4.9325,-5.2449,-5.3802,-5.4332,-5.4289,-5.3739,-5.3167,-5.3115,-5.2509,-5.1977,-5.1885,-5.1298,-5.0784,-5.071,-5.0692,-5.0398,-4.961,-4.9482,-4.9187,-4.8398,-4.8306,-4.8306,-4.8306,-4.8306,-4.8306,-4.8306,-4.8306,-4.8306,-4.8306,-4.8306,-4.8306,-4.8306,-4.8306,-4.8306,-4.8306,-4.8306,-4.8267,-4.8187,-4.807,-4.7949,-4.7881,-4.7759,-4.7717,-5.2597,-5.4475,-5.5372,-5.3636,-5.1144,-4.7971,-4.3585,0.0,0.0,-3.5157,-3.3856,-3.344,-3.4511,-3.3661,-3.3599,0.0,0.0,0.0,0.0,0.0,0.0,0.0,0.0,0.0,0.0,0.0,0.0,0.0,0.0,0.0,0.0,-5.252,-5.0462,-4.9933,-5.0087,-4.9683,-4.8625,-4.9317,-4.9394,-4.8894,-4.9413,-4.9394,-4.8875,-4.8548,-4.7799,-4.6753,0.0,0.0,0.0,-4.4986,-4.4821,-4.4712,-4.4458,-4.4292,-4.4202,-4.4319,-4.4074,-4.3706,-4.4083,-4.3901,-4.3515,-4.3515,-4.3515,-4.3515,-4.3515,-4.3565,-4.4407,-4.8014,-4.9118,-5.0078,-5.3708,-5.4528,-5.4399,-5.4399,-5.3794,-5.3335,-5.383,-5.3665,-5.3445,-5.3445,-5.3188,-5.2656,-5.1683,-5.1518,-5.1077,-4.9794,-4.961,-4.9298,-4.8416,-4.8306,-4.8306,-4.8306,-4.8306,-4.8306,-4.8306,-4.8306,-4.8306,-4.8306,-4.8306,-4.8383,-4.8586,-4.8604,-4.8604,-4.8604,-4.8604,-4.8476,-4.8187,-4.807,-4.7968,-4.7899,-4.7759,-4.7717,-5.1077,-5.3329,-5.4678,-5.3194,-5.026,-4.6932,0.0,0.0,0.0,-3.5395,-3.4103,-3.3576,-3.4903,-3.4232,-3.3906,0.0,0.0,0.0,0.0,0.0,0.0,0.0,0.0,0.0,0.0,0.0,0.0,0.0,0.0,0.0,0.0,-5.2219,-5.0086,-4.9779,-5.0125,-4.9856,-4.8875,-5.0087,-5.0385,-4.9779,-5.0423,-5.0385,-4.9779,-4.951,-4.8683,0.0,0.0,0.0,0.0,-4.5021,-4.477,-4.468,-4.4312,-4.4224,-4.4353,-4.4662,-4.4394,-4.3975,-4.4782,-4.4525,-4.3883,-4.4121,-4.4048,-4.3901,-4.414,-4.4195,-4.4947,-4.8489,-5.0418,-5.2089,-5.5152,-5.5354,-5.4803,-5.506,-5.4509,-5.4014,-5.4326,-5.4583,-5.4675,-5.4454,-5.4399,-5.4032,-5.2913,-5.2509,-5.1885,-5.0528,-5.0308,-4.9922,-4.882,-4.8893,-4.8857,-4.8361,-4.8746,-4.8838,-4.8343,-4.8306,-4.8306,-4.8306,-4.8306,-4.8512,-4.9029,-4.8788,-4.8769,-4.9029,-4.8788,-4.8514,-4.8246,-4.811,-4.8138,-4.8288,-4.791,-4.7759,-4.7702,-5.0644,-5.3029,-5.2135,-4.9385,-4.624,0.0,0.0,0.0,-3.5637,-3.513,-3.5032,-3.5261,-3.5285,-3.5331,-3.5479,0.0,0.0,0.0,0.0,0.0,0.0,0.0,0.0,0.0,0.0,0.0,0.0,0.0,0.0,0.0,0.0,-4.9599,-5.0644,-4.9856,-4.9817,-5.0654,-5.0693,-5.0712,-5.0693,-5.0712,-5.0712,-5.0654,-4.9779,0.0,0.0,0.0,0.0,0.0,-4.5123,-4.4764,-4.4943,-4.4341,-4.4594,-4.527,-4.5068,-4.4866,-4.48,-4.5608,-4.5369,-4.4837,-4.5626,-4.5351,-4.4837,-4.5626,-4.5883,-4.6379,-4.882,-5.2417,-5.5721,-5.6565,-5.6198,-5.5776,-5.6602,-5.6161,-5.5354,-5.4564,-5.5023,-5.5335,-5.4546,-5.4399,-5.4399,-5.4381,-5.372,-5.2913,-5.2087,-5.1977,-5.141,-4.9794,-5.027,-5.0141,-4.8489,-4.9793,-5.0105,-4.8453,-4.8306,-4.8306,-4.8306,-4.8306,-4.8691,-4.9555,-4.8746,-4.871,-4.9574,-4.8728,-4.8306,-4.8306,-4.8228,-4.853,-4.9177,-4.8307,-4.7881,-4.4374,-4.5874,-4.6913,-4.6086,-4.3778,-4.1489,-4.0681,0.0,0.0,-3.5293,-3.4699,-3.4401,-3.5154,-3.5312,-3.535,-3.5479,-3.55,0.0,0.0,0.0,0.0,0.0,0.0,0.0,0.0,0.0,0.0,0.0,0.0,0.0,0.0,0.0,-4.8279,-4.976,-4.9529,-4.9529,-4.9798,-5.0404,-5.0712,-5.0712,-5.0712,-5.0712,-5.0683,-5.0325,0.0,0.0,0.0,0.0,0.0,-4.5652,-4.5583,-4.5447,-4.5701,-4.5776,-4.5766,-4.6249,-4.6048,-4.5645,-4.6452,-4.5828,-4.4837,-4.5645,-4.5369,-4.4856,-4.5663,-4.6287,-4.7571,-5.1683,-5.4968,-5.7299,-5.7556,-5.7024,-5.6492,-5.6748,-5.618,-5.5519,-5.5262,-5.5849,-5.618,-5.5372,-5.5207,-5.5042,-5.4491,-5.3739,-5.2931,-5.2105,-5.1995,-5.161,-5.0563,-5.0637,-5.06,-5.0068,-5.049,-5.0123,-4.8453,-4.8838,-4.893,-4.8343,-4.8306,-4.853,-4.9029,-4.8789,-4.877,-4.9066,-4.877,-4.8809,-4.9206,-4.9089,-4.9352,-4.9997,-4.974,-4.9318,0.0,-4.272,-4.372,-4.3239,-4.1181,0.0,0.0,0.0,0.0,0.0,0.0,-3.4478,-3.5173,-3.5312,-3.535,-3.5479,-3.55,0.0,0.0,0.0,0.0,0.0,0.0,0.0,0.0,0.0,0.0,0.0,0.0,0.0,0.0,0.0,-4.8385,-4.9837,-4.924,-4.9221,-4.9875,-5.0442,-5.0712,-5.0712,-5.0712,-5.0539,-5.0202,0.0,0.0,0.0,0.0,0.0,0.0,-4.6429,-4.6428,-4.6262,-4.6492,-4.6527,-4.6544,-4.7022,-4.6856,-4.6471,-4.7259,-4.6691,-4.5737,-4.6544,-4.6471,-4.6342,-4.7774,-4.8545,-4.9848,-5.4124,-5.6602,-5.7997,-5.7997,-5.7629,-5.7262,-5.7262,-5.6859,-5.6418,-5.6106,-5.6675,-5.7005,-5.6198,-5.6051,-5.5886,-5.539,-5.4399,-5.3592,-5.339,-5.2839,-5.227,-5.1775,-5.172,-5.1481,-5.0857,-5.1353,-5.1041,-4.9389,-4.9444,-4.9224,-4.8361,-4.8306,-4.8696,-4.9529,-4.9233,-4.9362,-4.9991,-4.9714,-4.9731,-5.005,-5.0204,-5.036,-5.0483,-5.079,-5.0498,0.0,0.0,0.0,0.0,0.0,0.0,0.0,0.0,0.0,0.0,0.0,0.0,0.0,-3.53,-3.5358,-3.5486,-3.5558,0.0,0.0,0.0,0.0,0.0,0.0,0.0,0.0,0.0,0.0,0.0,0.0,0.0,0.0,0.0,0.0,-5.0567,-4.8913,-4.8875,-5.0673,-5.0712,-5.0712,-5.0712,-5.0635,-5.0183,-4.9394,0.0,0.0,0.0,0.0,0.0,0.0,-4.7422,-4.7286,-4.7331,-4.6859,-4.7007,-4.7444,-4.7444,-4.7335,-4.7278,-4.8049,-4.7755,-4.7223,-4.7957,-4.8251,-4.8783,-5.1316,-5.2087,-5.2747,-5.5978,-5.7428,-5.7997,-5.7997,-5.7997,-5.7997,-5.7997,-5.7997,-5.7776,-5.6969,-5.7428,-5.7758,-5.6969,-5.6804,-5.6804,-5.6804,-5.5519,-5.4711,-5.5409,-5.4234,-5.3259,-5.3203,-5.3185,-5.2616,-5.1132,-5.2325,-5.2582,-5.1022,-5.0216,-4.939,-4.8453,-4.8453,-4.915,-5.0655,-4.9994,-5.0306,-5.1867,-5.1242,-5.0894,-5.0894,-5.158,-5.1517,-5.0806,-5.1535,-5.1462,0.0,0.0,0.0,0.0,0.0,0.0,0.0,0.0,0.0,0.0,0.0,0.0,0.0,0.0,-3.5453,0.0,0.0,0.0,0.0,0.0,0.0,0.0,0.0,0.0,0.0,0.0,0.0,0.0,0.0,0.0,0.0,0.0,0.0,-4.9663,-4.8067,-4.8317,-5.0673,-5.0712,-5.0712,-5.0693,-5.001,-4.9606,-4.9375,0.0,0.0,0.0,0.0,0.0,-4.8006,-4.8338,-4.8269,-4.8018,-4.8298,-4.8269,-4.8088,-4.8088,-4.8069,-4.8048,-4.8233,-4.7755,-4.7131,-4.7314,-4.7791,-4.8893,-5.1995,-5.2931,-5.3592,-5.6804,-5.785,-5.7997,-5.7997,-5.7997,-5.7997,-5.7997,-5.7997,-5.7776,-5.6969,-5.7428,-5.7758,-5.6969,-5.6804,-5.6804,-5.6804,-5.5978,-5.517,-5.4748,-5.4363,-5.3904,-5.3277,-5.3185,-5.3057,-5.2692,-5.2965,-5.2803,-5.1793,-5.1536,-5.0822,-4.939,-4.9866,-5.0105,-4.9904,-5.027,-5.0674,-5.1077,-5.1499,-5.172,-5.172,-5.2485,-5.2779,-5.2595,-5.2779,-5.2449,0.0,0.0,0.0,0.0,0.0,0.0,0.0,0.0,0.0,0.0,0.0,0.0,0.0,0.0,0.0,0.0,0.0,0.0,0.0,0.0,0.0,0.0,0.0,0.0,0.0,0.0,0.0,0.0,0.0,0.0,0.0,0.0,0.0,0.0,-4.8125,-4.8509,-5.0673,-4.9913,-4.9702,-5.0087,-4.9221,-4.8606,-4.8259,0.0,0.0,0.0,0.0,0.0,-4.8682,-4.912,-4.9115,-4.8767,-4.8408,-4.8291,-4.8269,-4.7902,-4.7994,-4.8306,-4.8306,-4.8012,-4.7645,-4.7645,-4.7957,-4.8912,-5.2215,-5.3185,-5.3885,-5.7097,-5.7997,-5.7997,-5.7997,-5.7997,-5.7997,-5.7997,-5.7997,-5.7886,-5.7446,-5.7685,-5.7868,-5.7446,-5.7354,-5.7354,-5.7354,-5.6675,-5.5996,-5.5574,-5.4876,-5.4234,-5.3812,-5.3424,-5.3185,-5.3185,-5.3185,-5.3023,-5.2582,-5.2546,-5.1867,-5.0251,-5.0563,-5.0765,-5.0712,-5.1114,-5.1518,-5.1903,-5.2692,-5.3096,-5.3096,-5.3537,-5.3757,-5.3739,-5.3369,-5.2968,0.0,0.0,0.0,0.0,0.0,0.0,0.0,0.0,0.0,0.0,0.0,0.0,0.0,0.0,0.0,0.0,0.0,0.0,0.0,0.0,0.0,0.0,0.0,0.0,0.0,0.0,0.0,0.0,0.0,0.0,0.0,0.0,0.0,0.0,-4.8375,-4.8682,-5.0289,-4.8836,-4.8471,-4.9183,-4.8336,-4.7625,-4.7096,-4.7528,0.0,0.0,0.0,0.0,-4.9577,-4.9752,-4.9669,-4.9344,-4.809,-4.7887,-4.8233,-4.7516,-4.77,-4.8306,-4.8306,-4.8306,-4.8306,-4.8306,-4.8471,-4.926,-5.2289,-5.3369,-5.4197,-5.7152,-5.7997,-5.7997,-5.7997,-5.7997,-5.7997,-5.7997,-5.7997,-5.7997,-5.7997,-5.7997,-5.7997,-5.7997,-5.7997,-5.7997,-5.7997,-5.7428,-5.695,-5.6822,-5.5647,-5.473,-5.4601,-5.3995,-5.3573,-5.3573,-5.3463,-5.339,-5.339,-5.328,-5.2637,-5.1261,-5.1169,-5.1481,-5.2142,-5.2289,-5.2692,-5.3369,-5.4179,-5.4528,-5.4399,-5.4399,-5.4344,-5.4197,-5.3537,-5.328,-3.7747,-3.8526,-3.885,0.0,0.0,0.0,0.0,0.0,0.0,0.0,0.0,0.0,0.0,0.0,0.0,0.0,0.0,0.0,0.0,0.0,0.0,0.0,0.0,0.0,0.0,0.0,0.0,0.0,0.0,0.0,0.0,0.0,0.0,0.0,0.0,-4.7548,-4.849,-4.824,-4.8163,-4.8298,-4.7471,-4.7375,-4.7875,-4.6567,-4.7086,0.0,0.0,-4.9077,-5.0308,-5.0012,-4.9655,-4.9283,-4.872,-4.8421,-4.8306,-4.8159,-4.8196,-4.8306,-4.8306,-4.8306,-4.8306,-4.8306,-4.926,-5.0765,-5.2616,-5.4161,-5.5611,-5.7483,-5.7997,-5.7997,-5.7997,-5.7997,-5.7997,-5.7997,-5.7997,-5.7997,-5.7997,-5.7997,-5.7997,-5.7997,-5.7997,-5.7997,-5.7997,-5.7905,-5.7574,-5.6914,-5.6602,-5.6198,-5.55,-5.5299,-5.5225,-5.5225,-5.462,-5.4216,-5.4216,-5.3592,-5.3075,-5.2837,-5.2839,-5.2894,-5.3023,-5.3665,-5.4087,-5.4216,-5.5005,-5.5078,-5.4399,-5.4399,-5.4051,-5.339,-5.3259,-5.3573,-3.7841,-3.794,-3.8016,-3.7007,0.0,0.0,0.0,0.0,0.0,0.0,0.0,0.0,0.0,0.0,0.0,0.0,0.0,0.0,0.0,0.0,0.0,0.0,0.0,0.0,0.0,0.0,0.0,0.0,0.0,0.0,0.0,0.0,0.0,0.0,0.0,0.0,-4.7451,-4.6971,-4.699,-4.7451,-4.6605,-4.6644,-4.7451,-4.7105,-4.7855,0.0,0.0,-4.9874,-5.0459,-4.9904,-4.9522,-4.9199,-4.823,-4.8034,-4.8306,-4.8306,-4.8306,-4.8306,-4.8306,-4.8306,-4.8306,-4.8306,-4.9444,-5.1096,-5.2708,-5.4326,-5.5923,-5.7538,-5.7997,-5.7997,-5.7997,-5.7997,-5.7997,-5.7997,-5.7997,-5.7997,-5.7997,-5.7997,-5.7997,-5.7997,-5.7997,-5.7997,-5.7997,-5.7997,-5.7721,-5.6932,-5.6804,-5.651,-5.5684,-5.5614,-5.5614,-5.5614,-5.5262,-5.5042,-5.5042,-5.4711,-5.4124,-5.324,-5.3185,-5.339,-5.383,-5.4197,-5.4399,-5.4399,-5.5611,-5.5849,-5.5042,-5.5042,-5.5078,-5.5133,-5.4252,-5.4289,-3.795,-3.7614,-3.7432,-3.7428,0.0,0.0,0.0,0.0,0.0,0.0,0.0,0.0,0.0,0.0,0.0,0.0,0.0,0.0,0.0,0.0,0.0,0.0,0.0,0.0,0.0,0.0,0.0,0.0,0.0,0.0,0.0,0.0,0.0,0.0,0.0,0.0,-4.6586,-4.5932,-4.5932,-4.6586,-4.5913,-4.6067,-4.6904,-4.7336,-4.8086,-4.9125,-4.9567,-4.9921,-5.0098,-4.9435,-4.9205,-4.9137,-4.7885,-4.7755,-4.8306,-4.8306,-4.8306,-4.8306,-4.8306,-4.8306,-4.8361,-4.8765,-5.0013,-5.1665,-5.328,-5.4895,-5.6418,-5.7648,-5.7997,-5.7997,-5.7997,-5.7997,-5.7997,-5.7997,-5.7997,-5.7997,-5.7997,-5.7997,-5.7997,-5.7997,-5.7997,-5.7997,-5.7997,-5.7997,-5.7795,-5.7171,-5.7079,-5.6859,-5.6235,-5.6143,-5.6143,-5.6143,-5.5978,-5.5794,-5.5611,-5.5614,-5.506,-5.3849,-5.3592,-5.3775,-5.4363,-5.4766,-5.4968,-5.4968,-5.6363,-5.6693,-5.5868,-5.5868,-5.6106,-5.6492,-5.5262,-5.5115,-3.8002,-3.8991,-3.9481,-3.6442,-3.5862,0.0,-4.1009,-4.0707,0.0,-4.2634,0.0,0.0,0.0,0.0,0.0,0.0,0.0,0.0,0.0,0.0,0.0,0.0,0.0,0.0,0.0,0.0,0.0,0.0,0.0,0.0,0.0,0.0,0.0,0.0,0.0,0.0,-4.571,-4.5633,-4.5633,-4.5691,-4.5633,-4.6067,-4.6865,-4.6124,-4.6663,-4.8154,-4.7328,-4.7792,-4.9064,-4.8438,-4.8568,-4.9052,-4.8458,-4.8251,-4.8306,-4.8306,-4.8306,-4.8306,-4.8306,-4.8306,-4.8563,-5.0105,-5.172,-5.3335,-5.4932,-5.6547,-5.785,-5.796,-5.7997,-5.7997,-5.7997,-5.7997,-5.7997,-5.7997,-5.7997,-5.7997,-5.7997,-5.7997,-5.7997,-5.7997,-5.7997,-5.7997,-5.7997,-5.7997,-5.7978,-5.7923,-5.7905,-5.7886,-5.7831,-5.7831,-5.7831,-5.7831,-5.7171,-5.6418,-5.5647,-5.5614,-5.5559,-5.5449,-5.473,-5.4344,-5.4399,-5.5831,-5.6638,-5.6638,-5.7464,-5.7519,-5.6712,-5.6712,-5.6363,-5.5688,-5.5578,-5.5941,-3.7314,-3.842,-3.9323,-3.7507,-3.7067,0.0,0.0,-4.2839,-4.3485,-4.3494,-4.5043,0.0,0.0,0.0,0.0,0.0,0.0,0.0,0.0,0.0,0.0,0.0,0.0,0.0,0.0,0.0,0.0,0.0,0.0,0.0,0.0,0.0,0.0,0.0,0.0,0.0,0.0,-4.5054,-4.5054,-4.5594,-4.5594,-4.6067,-4.6885,-4.6567,-4.7028,-4.8077,-4.7713,-4.7825,-4.8251,-4.8199,-4.8236,-4.8348,-4.8311,-4.8306,-4.8306,-4.8306,-4.8306,-4.8306,-4.8306,-4.8306,-4.8581,-5.027,-5.1903,-5.35,-5.5097,-5.6712,-5.7997,-5.7997,-5.7997,-5.7997,-5.7997,-5.7997,-5.7997,-5.7997,-5.7997,-5.7997,-5.7997,-5.7997,-5.7997,-5.7997,-5.7997,-5.7997,-5.7997,-5.7997,-5.7997,-5.7997,-5.7997,-5.7997,-5.7997,-5.7997,-5.7997,-5.7997,-5.7721,-5.7428,-5.7116,-5.6638,-5.6345,-5.6345,-5.5592,-5.5372,-5.5868,-5.6492,-5.6804,-5.6804,-5.7593,-5.7593,-5.6804,-5.6804,-5.6895,-5.7079,-5.6583,-5.6785,-3.7255,-3.7584,-3.8027,0.0,0.0,0.0,-4.1828,-4.4072,-4.5691,-4.6236,-4.7222,0.0,0.0,0.0,0.0,0.0,0.0,0.0,0.0,0.0,0.0,0.0,0.0,0.0,0.0,0.0,0.0,0.0,0.0,0.0,0.0,0.0,0.0,0.0,0.0,0.0,0.0,-4.4895,-4.5013,-4.5594,-4.5559,-4.5867,-4.649,-4.649,-4.6797,-4.7317,-4.7233,-4.7268,-4.7392,-4.7346,-4.7292,-4.735,-4.8126,-4.8217,-4.7957,-4.8214,-4.8306,-4.8306,-4.8306,-4.8306,-4.8673,-5.0857,-5.2307,-5.361,-5.5721,-5.7116,-5.7997,-5.7997,-5.7997,-5.7997,-5.7997,-5.7997,-5.7997,-5.7997,-5.7997,-5.7997,-5.7997,-5.7997,-5.7997,-5.7997,-5.7997,-5.7997,-5.7997,-5.7997,-5.7997,-5.7997,-5.7997,-5.7997,-5.7997,-5.7997,-5.7997,-5.7997,-5.7997,-5.7997,-5.7997,-5.7501,-5.7189,-5.7189,-5.6657,-5.6492,-5.6804,-5.7042,-5.7189,-5.7189,-5.7721,-5.7721,-5.7189,-5.7189,-5.7464,-5.7997,-5.7446,-5.7464,-3.7988,-3.6796,0.0,0.0,0.0,0.0,-4.2467,-4.4003,-4.6191,-5.1429,0.0,0.0,0.0,0.0,0.0,0.0,0.0,0.0,0.0,0.0,0.0,0.0,0.0,0.0,0.0,0.0,0.0,0.0,0.0,0.0,0.0,0.0,0.0,0.0,0.0,0.0,0.0,-4.5213,-4.558,-4.5614,-4.5457,-4.5476,-4.5594,-4.5594,-4.5594,-4.5586,-4.5399,-4.5755,-4.6426,-4.5698,-4.5595,-4.6103,-4.7977,-4.8052,-4.7204,-4.8012,-4.8306,-4.8306,-4.8306,-4.8306,-4.8857,-5.2121,-5.3185,-5.3812,-5.7024,-5.7997,-5.7997,-5.7997,-5.7997,-5.7997,-5.7997,-5.7997,-5.7997,-5.7997,-5.7997,-5.7997,-5.7997,-5.7997,-5.7997,-5.7997,-5.7997,-5.7997,-5.7997,-5.7997,-5.7997,-5.7997,-5.7997,-5.7997,-5.7997,-5.7997,-5.7997,-5.7997,-5.7997,-5.7997,-5.7997,-5.7997,-5.7997,-5.7997,-5.7997,-5.7648,-5.684,-5.7574,-5.7997,-5.7997,-5.7997,-5.7997,-5.7997,-5.7997,-5.7997,-5.7997,-5.7997,-5.7997,-3.6404,0.0,0.0,0.0,0.0,0.0,0.0,-4.615,0.0,0.0,0.0,0.0,0.0,0.0,0.0,0.0,0.0,0.0,0.0,0.0,0.0,0.0,0.0,0.0,0.0,0.0,0.0,0.0,0.0,0.0,0.0,0.0,0.0,0.0,0.0,0.0,0.0,0.0,-4.4344,-4.5467,-4.5419,-4.5476,-4.5594,-4.5594,-4.5594,-4.5586,-4.5438,-4.5484,-4.5693,-4.6092,-4.6564,-4.711,-4.8053,-4.8217,-4.7957,-4.8214,-4.8306,-4.8306,-4.8306,-4.8306,-4.8857,-5.2121,-5.3185,-5.3812,-5.7024,-5.7997,-5.7997,-5.7997,-5.7997,-5.7997,-5.7997,-5.7997,-5.7997,-5.7997,-5.7997,-5.7997,-5.7997,-5.7997,-5.7997,-5.7997,-5.7997,-5.7997,-5.7997,-5.7997,-5.7997,-5.7997,-5.8492,-5.8859,-5.8859,-5.8345,-5.8217,-5.8786,-5.8345,-5.8235,-5.8804,-5.8327,-5.7997,-5.7997,-5.7997,-5.7886,-5.7648,-5.7868,-5.7997,-5.7997,-5.7997,-5.7997,-5.7997,-5.7997,-5.7997,-5.7997,-5.7997,-5.7997,-3.7334,0.0,0.0,0.0,0.0,0.0,0.0,0.0,0.0,0.0,0.0,0.0,0.0,0.0,0.0,0.0,0.0,0.0,0.0,0.0,0.0,0.0,0.0,0.0,0.0,0.0,0.0,0.0,0.0,0.0,0.0,0.0,0.0,0.0,0.0,0.0,0.0,0.0,0.0,-4.493,-4.5208,-4.5438,-4.5594,-4.5594,-4.5594,-4.5586,-4.5467,-4.5262,-4.5137,-4.6078,-4.6326,-4.6197,-4.7588,-4.7831,-4.7425,-4.8067,-4.8306,-4.8306,-4.8306,-4.8746,-4.9719,-5.2341,-5.3628,-5.4638,-5.7226,-5.7997,-5.7997,-5.7997,-5.7997,-5.7997,-5.7997,-5.7997,-5.7997,-5.7997,-5.7997,-5.7997,-5.7997,-5.7997,-5.7997,-5.7997,-5.7997,-5.7997,-5.7997,-5.7997,-5.8107,-5.8437,-5.8896,-5.9313,-5.9625,-5.8988,-5.8786,-5.9588,-5.8969,-5.8676,-5.9148,-5.8767,-5.8492,-5.8492,-5.8786,-5.8781,-5.8422,-5.8139,-5.7973,-5.7927,-5.7973,-5.7997,-5.7997,-5.7997,-5.7997,-5.7997,-5.7997,-5.7997,0.0,0.0,0.0,0.0,0.0,0.0,0.0,0.0,0.0,0.0,0.0,0.0,0.0,0.0,0.0,0.0,0.0,0.0,0.0,0.0,0.0,0.0,0.0,0.0,0.0,0.0,0.0,0.0,0.0,0.0,0.0,0.0,0.0,0.0,0.0,0.0,0.0,0.0,0.0,0.0,-4.4852,-4.5294,-4.5479,-4.5556,-4.5586,-4.5577,-4.5448,-4.514,-4.4827,-4.5858,-4.5402,-4.4342,-4.6864,-4.7132,-4.6232,-4.7737,-4.8306,-4.8324,-4.8398,-4.9426,-5.0986,-5.2747,-5.4308,-5.5794,-5.7483,-5.7997,-5.7997,-5.7997,-5.7997,-5.7997,-5.7997,-5.7997,-5.7997,-5.7997,-5.7997,-5.7997,-5.7997,-5.7997,-5.7997,-5.7997,-5.8052,-5.8088,-5.8015,-5.8125,-5.8492,-5.9318,-5.9349,-5.9588,-6.0419,-5.9813,-5.9606,-6.0419,-5.9771,-5.9294,-5.9294,-5.9294,-5.9276,-5.9184,-5.996,-5.998,-5.9054,-5.844,-5.8024,-5.7792,-5.7927,-5.7997,-5.7997,-5.7997,-5.7997,-5.7997,-5.807,-5.8107,0.0,0.0,0.0,0.0,0.0,0.0,0.0,0.0,0.0,0.0,0.0,0.0,0.0,0.0,0.0,0.0,0.0,0.0,0.0,0.0,0.0,0.0,0.0,0.0,0.0,0.0,0.0,0.0,0.0,0.0,0.0,0.0,0.0,0.0,0.0,0.0,-4.157,-4.195,-4.244,0.0,-4.3992,-4.4479,-4.4605,-4.5287,-4.5531,-4.5438,-4.541,-4.5311,-4.5208,-4.5766,-4.5783,-4.5599,-4.7036,-4.7399,-4.7257,-4.8015,-4.8306,-4.8398,-4.9077,-4.9574,-5.0325,-5.3206,-5.4381,-5.5078,-5.7317,-5.7997,-5.7997,-5.7997,-5.7997,-5.7997,-5.7997,-5.7997,-5.7997,-5.7997,-5.7997,-5.7997,-5.7997,-5.7997,-5.7997,-5.7997,-5.851,-5.8749,-5.8107,-5.9043,-6.0162,-6.097,-6.0548,-6.0438,-6.1245,-6.0639,-6.0456,-6.1263,-6.0621,-6.0144,-6.0144,-6.0144,-5.9887,-5.9239,-5.996,-5.998,-5.9054,-5.8972,-5.8569,-5.781,-5.7927,-5.7997,-5.7997,-5.7997,-5.7997,-5.8015,-5.8657,-5.8927,0.0,0.0,0.0,0.0,0.0,0.0,0.0,0.0,0.0,0.0,0.0,0.0,0.0,0.0,0.0,0.0,0.0,0.0,0.0,0.0,0.0,0.0,0.0,0.0,0.0,0.0,0.0,0.0,0.0,0.0,0.0,0.0,0.0,0.0,0.0,0.0,-4.0977,-4.1396,-4.1798,-4.2192,-4.356,-4.4228,-4.4335,-4.521,-4.5337,-4.4899,-4.5303,-4.5227,-4.4833,-4.541,-4.553,-4.5449,-4.6681,-4.7068,-4.7032,-4.796,-4.8306,-4.8416,-4.9317,-5.0106,-5.1153,-5.3592,-5.4932,-5.5868,-5.7501,-5.7997,-5.7997,-5.7997,-5.7997,-5.7997,-5.7997,-5.7997,-5.7997,-5.7997,-5.7997,-5.7997,-5.7997,-5.7997,-5.7997,-5.7997,-5.8657,-5.9056,-5.8657,-5.9905,-6.1117,-6.1539,-6.1245,-6.1135,-6.1539,-6.1227,-6.1135,-6.1557,-6.1208,-6.097,-6.097,-6.097,-6.0805,-6.0382,-6.1098,-6.1117,-6.0188,-6.0274,-5.954,-5.7828,-5.7927,-5.7997,-5.7997,-5.84,-5.8584,-5.8602,-5.941,-5.9777,0.0,0.0,0.0,0.0,0.0,0.0,0.0,0.0,0.0,0.0,0.0,0.0,0.0,0.0,0.0,0.0,0.0,0.0,0.0,0.0,0.0,0.0,0.0,0.0,0.0,0.0,0.0,0.0,0.0,0.0,0.0,0.0,0.0,0.0,0.0,-4.0576,-4.0405,-4.1058,-4.1384,-4.1412,-4.3022,-4.3892,-4.4124,-4.4844,-4.4759,-4.4143,-4.4998,-4.4926,-4.4278,-4.5065,-4.5169,-4.4921,-4.6107,-4.6492,-4.649,-4.7666,-4.8196,-4.8453,-4.9463,-5.0694,-5.2089,-5.3897,-5.5481,-5.6842,-5.7633,-5.7964,-5.8092,-5.802,-5.7997,-5.7997,-5.7997,-5.7997,-5.7997,-5.7997,-5.7997,-5.7997,-5.7997,-5.8217,-5.8364,-5.8235,-5.8877,-5.9496,-5.9771,-6.0805,-6.1594,-6.1594,-6.1722,-6.1759,-6.1612,-6.1722,-6.1814,-6.1814,-6.1814,-6.1741,-6.1594,-6.1722,-6.1741,-6.1594,-6.2365,-6.2388,-6.1464,-6.1545,-6.0536,-5.8297,-5.8372,-5.8345,-5.8217,-5.9024,-5.9404,-5.9423,-6.0236,-6.0621,0.0,0.0,0.0,0.0,0.0,0.0,0.0,0.0,0.0,0.0,0.0,0.0,0.0,0.0,0.0,0.0,0.0,0.0,0.0,0.0,0.0,0.0,0.0,0.0,0.0,0.0,0.0,0.0,0.0,0.0,0.0,0.0,-4.0726,-4.07,-4.0591,0.0,-4.0405,-4.052,-4.0558,-4.0577,-4.1624,-4.2511,-4.3258,-4.3374,-4.3374,-4.3316,-4.4124,-4.4404,-4.4329,-4.5093,-4.5321,-4.5257,-4.5615,-4.6079,-4.6627,-4.7076,-4.77,-4.8526,-5.0105,-5.0784,-5.1395,-5.3987,-5.5498,-5.6425,-5.7163,-5.7925,-5.8437,-5.8092,-5.7997,-5.7997,-5.7997,-5.7997,-5.7997,-5.7997,-5.7997,-5.7997,-5.7997,-5.9098,-5.9869,-5.9166,-5.9703,-6.0694,-6.2065,-6.1924,-6.1594,-6.1594,-6.2199,-6.2401,-6.1686,-6.2218,-6.2658,-6.2658,-6.2658,-6.2365,-6.1649,-6.2236,-6.2346,-6.163,-6.2365,-6.2413,-6.1606,-6.1594,-6.1117,-6.0065,-6.0089,-5.974,-5.9038,-5.985,-6.0254,-6.0272,-6.1062,-6.1429,0.0,0.0,0.0,0.0,0.0,0.0,0.0,0.0,0.0,0.0,0.0,0.0,0.0,0.0,0.0,0.0,0.0,0.0,0.0,0.0,0.0,0.0,0.0,0.0,0.0,0.0,0.0,0.0,0.0,0.0,0.0,-4.0726,-4.0673,-4.0591,-4.0519,0.0,-4.046,-4.046,-4.071,-4.1182,-4.1107,-4.1527,-4.2354,-4.1873,-4.2181,-4.3143,-4.3951,-4.4297,-4.4355,-4.5176,-4.5438,-4.5352,-4.5716,-4.5904,-4.6001,-4.6477,-4.7059,-4.7865,-4.9554,-5.0538,-5.1582,-5.4627,-5.6012,-5.6668,-5.7719,-5.8308,-5.8521,-5.8097,-5.7997,-5.7997,-5.7997,-5.7997,-5.7997,-5.7997,-5.8345,-5.8676,-5.8676,-5.9245,-5.9905,-6.0438,-6.0823,-6.1447,-6.2603,-6.2511,-6.2273,-6.2273,-6.2585,-6.2511,-6.1686,-6.231,-6.264,-6.2181,-6.2548,-6.2677,-6.231,-6.2603,-6.2658,-6.2291,-6.2603,-6.2658,-6.2291,-6.2273,-6.1887,-6.108,-6.0639,-6.0236,-5.9887,-6.0676,-6.1062,-6.108,-6.1906,-6.2273,0.0,0.0,0.0,0.0,0.0,0.0,0.0,0.0,0.0,0.0,0.0,0.0,0.0,0.0,0.0,0.0,0.0,0.0,0.0,0.0,0.0,0.0,0.0,0.0,0.0,0.0,0.0,0.0,0.0,0.0,-4.066,-4.066,-4.0605,-4.0496,-4.0496,-4.0496,-4.0496,-4.0496,-4.0843,-4.147,-4.0804,-4.0835,-4.145,-4.0804,-4.1343,-4.2797,-4.3393,-4.3797,-4.4066,-4.4921,-4.5285,-4.5324,-4.5677,-4.5642,-4.5457,-4.5853,-4.6577,-4.7608,-4.9077,-5.047,-5.2085,-5.5043,-5.6332,-5.6909,-5.8085,-5.8522,-5.8521,-5.8097,-5.7997,-5.7997,-5.7997,-5.7997,-5.8052,-5.8253,-5.8767,-5.9294,-5.9722,-5.9813,-6.0236,-6.163,-6.1906,-6.2108,-6.2688,-6.278,-6.275,-6.2548,-6.2652,-6.2511,-6.1686,-6.231,-6.2585,-6.1961,-6.2456,-6.278,-6.278,-6.278,-6.278,-6.278,-6.278,-6.278,-6.278,-6.278,-6.253,-6.1924,-6.1318,-6.0915,-6.0713,-6.1502,-6.1906,-6.1924,-6.253,-6.278,0.0,0.0,0.0,0.0,0.0,0.0,0.0,0.0,0.0,0.0,0.0,0.0,0.0,0.0,0.0,0.0,0.0,0.0,0.0,0.0,0.0,0.0,0.0,0.0,0.0,0.0,0.0,0.0,0.0,0.0,-4.0504,-4.0504,-4.0504,-4.0496,-4.0496,-4.0496,-4.0496,-4.0496,-4.0516,-4.0573,-4.0516,-4.0516,-4.0573,-4.0516,-4.0989,-4.1865,-4.1904,-4.2412,-4.3239,-4.4028,-4.4747,-4.5286,-4.5042,-4.5146,-4.5382,-4.522,-4.6466,-4.8379,-4.928,-5.0839,-5.2791,-5.4868,-5.6061,-5.685,-5.7696,-5.8256,-5.8521,-5.8097,-5.7997,-5.7997,-5.7997,-5.7997,-5.8198,-5.8946,-5.9166,-5.9606,-6.1153,-6.1465,-6.1722,-6.2585,-6.275,-6.2743,-6.278,-6.278,-6.2548,-6.1777,-6.231,-6.2511,-6.1686,-6.231,-6.2762,-6.2725,-6.2762,-6.278,-6.278,-6.278,-6.278,-6.278,-6.278,-6.278,-6.278,-6.278,-6.2762,-6.275,-6.2688,-6.231,-6.1539,-6.2346,-6.275,-6.275,-6.2762,-6.278,0.0,0.0,0.0,0.0,0.0,0.0,0.0,0.0,0.0,0.0,0.0,0.0,0.0,0.0,0.0,0.0,0.0,0.0,0.0,0.0,0.0,0.0,0.0,0.0,0.0,0.0,0.0,0.0,0.0,0.0,-4.0439,-4.0015,-3.9977,-4.0477,-4.0496,-4.0496,-4.0496,-4.0496,-4.0496,-4.0496,-4.0496,-4.0496,-4.0496,-4.0496,-4.0669,-4.0969,-4.0969,-4.2066,-4.3932,-4.4778,-4.5226,-4.5341,-4.5262,-4.5086,-4.4979,-4.5859,-4.6849,-4.7997,-5.001,-5.1991,-5.3987,-5.6012,-5.7189,-5.797,-5.8574,-5.8668,-5.8521,-5.8097,-5.7997,-5.7997,-5.7997,-5.7997,-5.8198,-5.9001,-5.9588,-6.0272,-6.1355,-6.1594,-6.1832,-6.2658,-6.278,-6.278,-6.278,-6.278,-6.2688,-6.242,-6.2622,-6.2688,-6.242,-6.264,-6.278,-6.278,-6.278,-6.278,-6.278,-6.278,-6.278,-6.278,-6.278,-6.278,-6.278,-6.278,-6.3062,-6.3613,-6.3099,-6.2677,-6.2383,-6.2677,-6.278,-6.278,-6.278,-6.278,-3.8796,0.0,0.0,0.0,0.0,0.0,0.0,0.0,0.0,0.0,0.0,0.0,0.0,0.0,0.0,0.0,0.0,0.0,0.0,0.0,0.0,0.0,0.0,0.0,0.0,0.0,0.0,0.0,0.0,0.0,-3.9611,-3.9438,-3.9669,-4.0477,-4.0496,-4.0496,-4.0496,-4.0496,-4.0496,-4.0496,-4.0496,-4.0496,-4.0496,-4.0496,-4.0496,-4.0516,-4.0804,-4.1893,-4.3528,-4.4393,-4.4841,-4.5017,-4.5285,-4.5074,-4.4761,-4.5937,-4.6994,-4.8106,-5.0174,-5.2471,-5.4793,-5.6524,-5.754,-5.8214,-5.8821,-5.873,-5.8348,-5.807,-5.7997,-5.7997,-5.7997,-5.8198,-5.8621,-5.9428,-6.0236,-6.1025,-6.1832,-6.1998,-6.2163,-6.2688,-6.278,-6.278,-6.278,-6.278,-6.278,-6.278,-6.278,-6.278,-6.278,-6.278,-6.278,-6.278,-6.278,-6.278,-6.278,-6.278,-6.278,-6.278,-6.2567,-6.253,-6.278,-6.278,-6.308,-6.3649,-6.3392,-6.3099,-6.278,-6.278,-6.278,-6.278,-6.278,-6.278,0.0,0.0,0.0,0.0,0.0,0.0,0.0,0.0,0.0,0.0,0.0,0.0,0.0,0.0,0.0,0.0,0.0,0.0,0.0,0.0,0.0,0.0,0.0,0.0,0.0,0.0,0.0,0.0,0.0,-3.8065,-3.8104,-3.8892,-3.9688,-4.0439,-4.0496,-4.0496,-4.0496,-4.0496,-4.0496,-4.0496,-4.0496,-4.0496,-4.0496,-4.0496,-4.0496,-4.0554,-4.1393,-4.175,-4.1827,-4.2739,-4.3534,-4.4269,-4.5065,-4.5066,-4.4699,-4.5439,-4.6954,-4.8789,-4.9838,-5.2289,-5.5153,-5.633,-5.6986,-5.7505,-5.8345,-5.8304,-5.7997,-5.7997,-5.7997,-5.7997,-5.7997,-5.8584,-5.9368,-6.0181,-6.097,-6.1777,-6.2603,-6.2762,-6.278,-6.278,-6.278,-6.278,-6.278,-6.278,-6.278,-6.278,-6.278,-6.278,-6.278,-6.278,-6.278,-6.278,-6.278,-6.278,-6.278,-6.278,-6.278,-6.278,-6.2071,-6.1998,-6.278,-6.286,-6.2853,-6.289,-6.3723,-6.3723,-6.289,-6.286,-6.278,-6.278,-6.278,-6.278,-3.9015,0.0,0.0,0.0,0.0,0.0,0.0,0.0,0.0,0.0,0.0,0.0,0.0,0.0,0.0,0.0,0.0,0.0,0.0,0.0,0.0,0.0,0.0,0.0,0.0,0.0,0.0,0.0,0.0,-3.9469,-4.0681,-4.0373,-3.9996,-3.965,-4.0208,-4.0496,-4.0496,-4.0496,-4.0496,-4.0496,-4.0496,-4.0496,-4.0496,-4.0496,-4.0496,-4.0516,-4.0746,-4.0854,-4.0969,-4.247,-4.3549,-4.4301,-4.4512,-4.4815,-4.5376,-4.7555,-4.8799,-4.9718,-5.1933,-5.4242,-5.6274,-5.659,-5.7397,-5.8289,-5.8531,-5.8304,-5.7997,-5.7997,-5.7997,-5.7997,-5.7997,-5.8162,-5.8529,-5.9331,-6.0162,-6.0951,-6.1759,-6.2401,-6.278,-6.278,-6.278,-6.278,-6.278,-6.278,-6.278,-6.278,-6.278,-6.278,-6.278,-6.278,-6.278,-6.278,-6.278,-6.278,-6.278,-6.278,-6.278,-6.278,-6.2603,-6.286,-6.3704,-6.3741,-6.4292,-6.5448,-6.5136,-6.5136,-6.5466,-6.3686,-6.278,-6.278,-6.278,-6.278,-3.9804,-3.9438,0.0,0.0,0.0,0.0,0.0,-4.2393,0.0,0.0,0.0,0.0,0.0,0.0,0.0,0.0,0.0,0.0,0.0,0.0,0.0,0.0,0.0,0.0,0.0,0.0,0.0,0.0,-4.0354,-4.0392,-4.1731,-4.0662,-4.0112,-4.0335,-4.0131,-4.0169,-4.0496,-4.0496,-4.0496,-4.0496,-4.0496,-4.0496,-4.0496,-4.0496,-4.0708,-4.1027,-4.0669,-4.0708,-4.1123,-4.2143,-4.3047,-4.3835,-4.4162,-4.4919,-4.6113,-4.8307,-4.958,-5.0595,-5.3092,-5.5062,-5.6538,-5.6856,-5.7588,-5.8348,-5.8348,-5.8186,-5.7997,-5.7997,-5.7997,-5.7997,-5.7997,-5.7997,-5.829,-5.9446,-6.007,-6.0713,-6.1851,-6.2475,-6.278,-6.278,-6.278,-6.278,-6.278,-6.278,-6.278,-6.278,-6.278,-6.278,-6.278,-6.278,-6.278,-6.278,-6.278,-6.278,-6.278,-6.278,-6.297,-6.3319,-6.3007,-6.3356,-6.4549,-6.4604,-6.5044,-6.598,-6.587,-6.587,-6.5999,-6.4218,-6.3172,-6.278,-6.278,-6.278,-4.0554,-4.0496,-4.0496,0.0,0.0,0.0,-4.2354,-4.2816,-4.3355,0.0,0.0,0.0,0.0,0.0,0.0,0.0,0.0,0.0,0.0,0.0,0.0,0.0,0.0,0.0,0.0,0.0,0.0,-4.1189,-4.0977,-4.1181,-4.1769,-4.0469,-4.0354,-4.175,-4.045,-4.0015,-4.065,-4.065,-4.0593,-4.0496,-4.0496,-4.0496,-4.0496,-4.0496,-4.0912,-4.1604,-4.0843,-4.0931,-4.1662,-4.1662,-4.2239,-4.3181,-4.3989,-4.5322,-4.692,-4.8274,-4.9846,-5.1594,-5.3616,-5.5212,-5.6437,-5.7037,-5.7592,-5.7997,-5.7997,-5.7997,-5.7997,-5.7997,-5.8042,-5.8047,-5.802,-5.8024,-5.8433,-5.9905,-6.0346,-6.0823,-6.2346,-6.275,-6.278,-6.278,-6.278,-6.278,-6.278,-6.278,-6.278,-6.278,-6.278,-6.278,-6.278,-6.278,-6.278,-6.278,-6.278,-6.286,-6.2952,-6.2952,-6.3282,-6.4035,-6.3466,-6.3759,-6.5246,-6.5393,-6.5485,-6.5576,-6.6274,-6.6237,-6.543,-6.4622,-6.3833,-6.3074,-6.3074,-6.3074,0.0,0.0,0.0,0.0,0.0,0.0,-4.0112,-4.1085,-4.195,0.0,0.0,0.0,0.0,0.0,0.0,0.0,0.0,0.0,0.0,0.0,0.0,0.0,0.0,0.0,0.0,0.0,-4.4979,-4.4633,-4.3959,-4.3047,-4.1865,-4.2162,-4.2181,-4.1808,-4.2162,-4.2104,-4.1546,-4.1546,-4.1181,-4.0496,-4.0496,-4.0496,-4.0496,-4.0496,-4.0593,-4.0746,-4.0573,-4.0593,-4.0746,-4.0746,-4.1681,-4.3181,-4.3989,-4.5741,-4.7923,-4.8888,-5.0969,-5.3357,-5.4111,-5.5658,-5.7215,-5.6959,-5.7404,-5.7997,-5.7997,-5.7997,-5.7997,-5.7997,-5.8235,-5.8412,-5.8092,-5.8235,-5.8653,-5.9283,-5.9942,-6.0658,-6.163,-6.2346,-6.278,-6.278,-6.278,-6.278,-6.278,-6.278,-6.278,-6.278,-6.278,-6.278,-6.278,-6.278,-6.278,-6.278,-6.278,-6.3099,-6.3778,-6.3851,-6.3906,-6.409,-6.4549,-6.4971,-6.5301,-6.5925,-6.6568,-6.721,-6.7375,-6.7063,-6.6256,-6.5466,-6.4989,-6.4824,-6.4824,-6.4824,0.0,0.0,0.0,-4.0496,0.0,0.0,0.0,-4.12,-4.1797,0.0,0.0,0.0,0.0,0.0,0.0,0.0,0.0,0.0,0.0,0.0,0.0,0.0,0.0,0.0,0.0,0.0,-4.5594,-4.5594,-4.521,-4.4586,-4.3739,-4.3316,-4.3085,-4.3047,-4.2662,-4.2643,-4.3047,-4.222,-4.1797,-4.1777,-4.092,-4.0496,-4.0496,-4.0496,-4.0746,-4.1123,-4.0689,-4.0746,-4.1181,-4.1623,-4.2316,-4.3143,-4.3547,-4.5778,-4.8817,-4.9423,-5.18,-5.4739,-5.5119,-5.6359,-5.7714,-5.7475,-5.7666,-5.7997,-5.7997,-5.829,-5.8649,-5.8884,-5.9066,-5.9199,-5.9239,-5.922,-5.9359,-5.9952,-6.0549,-6.1227,-6.2016,-6.253,-6.278,-6.278,-6.278,-6.278,-6.278,-6.278,-6.278,-6.278,-6.278,-6.278,-6.278,-6.278,-6.2989,-6.3411,-6.3447,-6.3796,-6.4622,-6.4695,-6.4861,-6.5264,-6.5687,-6.609,-6.6476,-6.688,-6.7283,-6.7687,-6.7687,-6.7485,-6.71,-6.6678,-6.609,-6.5319,-6.5319,-6.5319,0.0,0.0,0.0,0.0,0.0,-4.0737,0.0,0.0,0.0,0.0,0.0,0.0,0.0,0.0,0.0,0.0,0.0,0.0,0.0,0.0,0.0,0.0,0.0,0.0,0.0,0.0,-4.5248,-4.5575,-4.5306,-4.5267,-4.5575,-4.4316,-4.3874,-4.4528,-4.3239,-4.3181,-4.4528,-4.322,-4.272,-4.3085,-4.1662,-4.0823,-4.0496,-4.0496,-4.0873,-4.1527,-4.0969,-4.1143,-4.1865,-4.2739,-4.3181,-4.3355,-4.3528,-4.6067,-4.9663,-4.9837,-5.25,-5.6002,-5.6086,-5.7023,-5.8128,-5.8035,-5.7997,-5.7997,-5.7997,-5.8525,-5.9218,-5.9748,-5.9959,-6.0141,-6.0604,-6.0447,-6.0343,-6.1076,-6.1417,-6.1814,-6.264,-6.278,-6.278,-6.278,-6.278,-6.278,-6.278,-6.278,-6.278,-6.278,-6.278,-6.278,-6.278,-6.278,-6.3135,-6.3998,-6.409,-6.4494,-6.5448,-6.554,-6.5815,-6.6457,-6.6641,-6.6953,-6.7448,-6.7614,-6.7687,-6.7687,-6.7687,-6.7687,-6.7687,-6.7687,-6.7026,-6.576,-6.576,-6.576,0.0,0.0,0.0,0.0,-4.0713,0.0,0.0,0.0,0.0,0.0,0.0,0.0,0.0,0.0,0.0,0.0,0.0,0.0,0.0,0.0,0.0,0.0,0.0,0.0,0.0,0.0,0.0,-4.5498,-4.422,-4.4028,-4.5518,-4.5421,-4.5364,-4.546,-4.5267,-4.5267,-4.546,-4.5267,-4.447,-4.3104,-4.2893,-4.1989,-4.0496,-4.0496,-4.0554,-4.0689,-4.1354,-4.1712,-4.1865,-4.2739,-4.3528,-4.4239,-4.5017,-4.7461,-5.0519,-5.0137,-5.3117,-5.7258,-5.6462,-5.7297,-5.8637,-5.8168,-5.7997,-5.7997,-5.7997,-5.8312,-5.8839,-5.9666,-6.0378,-6.0968,-6.1432,-6.1505,-6.1592,-6.2057,-6.1865,-6.1814,-6.264,-6.278,-6.278,-6.278,-6.278,-6.278,-6.278,-6.278,-6.278,-6.278,-6.278,-6.278,-6.278,-6.278,-6.3135,-6.3998,-6.409,-6.4695,-6.6237,-6.6366,-6.6402,-6.6494,-6.7155,-6.7265,-6.6659,-6.7302,-6.7687,-6.7687,-6.7687,-6.7687,-6.7687,-6.7687,-6.7595,-6.7412,-6.7412,-6.7412,0.0,0.0,0.0,0.0,0.0,0.0,-4.1014,0.0,-4.0796,0.0,0.0,0.0,0.0,0.0,0.0,0.0,0.0,0.0,0.0,0.0,0.0,0.0,0.0,0.0,0.0,0.0,0.0,0.0,0.0,-4.4863,-4.5556,-4.5594,-4.5594,-4.5594,-4.6086,-4.6586,-4.7048,-4.6586,-4.624,-4.599,-4.4028,-4.272,-4.197,-4.0958,-4.0785,-4.1277,-4.1643,-4.2085,-4.2624,-4.3451,-4.3989,-4.4393,-4.5267,-4.7691,-5.0634,-5.0176,-5.3041,-5.7082,-5.6666,-5.7469,-5.8631,-5.8683,-5.8708,-5.8708,-5.8708,-5.9128,-5.9868,-6.098,-6.1518,-6.1968,-6.2924,-6.2783,-6.2442,-6.2597,-6.2456,-6.2401,-6.275,-6.278,-6.278,-6.278,-6.278,-6.278,-6.278,-6.278,-6.278,-6.278,-6.278,-6.278,-6.278,-6.3246,-6.387,-6.4714,-6.5209,-6.5962,-6.71,-6.7192,-6.7192,-6.7192,-6.7504,-6.754,-6.721,-6.7504,-6.7687,-6.7687,-6.7687,-6.7687,-6.7687,-6.7687,-6.7687,-6.7687,-6.7687,-6.7687,-4.2083,0.0,0.0,0.0,0.0,0.0,0.0,0.0,0.0,0.0,0.0,0.0,0.0,0.0,0.0,0.0,0.0,0.0,0.0,0.0,0.0,0.0,0.0,0.0,0.0,0.0,0.0,0.0,-4.4921,0.0,-4.5575,-4.5594,-4.5594,-4.5594,-4.6451,-4.7298,-4.8086,-4.7759,-4.7759,-4.8067,-4.5624,-4.3989,-4.3066,-4.2008,-4.1643,-4.1827,-4.2297,-4.2835,-4.3489,-4.4316,-4.4662,-4.472,-4.5344,-4.7826,-5.099,-5.0642,-5.3348,-5.7162,-5.727,-5.7909,-5.874,-5.91,-5.9215,-5.9215,-5.9215,-5.9665,-6.0525,-6.1919,-6.2205,-6.2433,-6.3825,-6.3543,-6.2894,-6.2894,-6.2851,-6.278,-6.278,-6.278,-6.278,-6.278,-6.278,-6.278,-6.278,-6.278,-6.278,-6.278,-6.3007,-6.308,-6.2817,-6.3759,-6.4567,-6.4934,-6.5888,-6.6733,-6.7302,-6.7559,-6.7687,-6.7687,-6.7687,-6.7687,-6.7687,-6.7687,-6.7687,-6.7687,-6.7687,-6.7687,-6.7687,-6.7687,-6.7687,-6.7687,-6.7687,-6.7687,0.0,0.0,0.0,-4.1319,0.0,0.0,0.0,0.0,-4.1052,0.0,0.0,0.0,0.0,0.0,-4.0389,-3.9492,0.0,0.0,0.0,0.0,0.0,0.0,0.0,0.0,0.0,0.0,0.0,0.0,-4.3181,0.0,-4.5518,-4.5594,-4.5594,-4.5594,-4.6451,-4.7298,-4.8086,-4.8913,-4.8913,-4.8105,-4.799,-4.624,-4.3124,-4.3855,-4.3316,-4.1885,-4.3528,-4.4239,-4.4335,-4.521,-4.5556,-4.5556,-4.5594,-4.8163,-5.1865,-5.1836,-5.4471,-5.8112,-5.8511,-5.8878,-5.9196,-5.9196,-5.9215,-5.9215,-5.9215,-5.9486,-6.0153,-6.1816,-6.1983,-6.2018,-6.3751,-6.3543,-6.2894,-6.2894,-6.2851,-6.278,-6.278,-6.278,-6.278,-6.278,-6.278,-6.278,-6.278,-6.278,-6.278,-6.278,-6.3521,-6.3741,-6.2915,-6.4255,-6.4971,-6.4218,-6.5558,-6.6512,-6.6531,-6.7247,-6.7687,-6.7687,-6.7687,-6.7687,-6.7687,-6.7687,-6.7687,-6.7687,-6.7687,-6.7687,-6.7687,-6.7687,-6.7687,-6.7687,-6.7687,-6.7687,0.0,0.0,-4.6104,-4.3311,0.0,0.0,0.0,0.0,0.0,0.0,0.0,0.0,0.0,0.0,-4.0654,-4.03,-4.0453,0.0,0.0,0.0,0.0,0.0,0.0,0.0,0.0,0.0,0.0,-4.3066,-4.4662,-4.5855,0.0,-4.6471,-4.6471,-4.6471,-4.7259,-4.7817,-4.8105,-4.9529,-5.0106,-4.9798,-4.8644,-4.6932,-4.4729,-4.3893,-4.3201,-4.2701,-4.3258,-4.4143,-4.519,-4.5479,-4.5594,-4.5594,-4.5594,-4.8182,-5.1904,-5.1904,-5.4521,-5.8182,-5.8751,-5.942,-6.0003,-6.0003,-6.0003,-6.0003,-6.0064,-6.0555,-6.1234,-6.1768,-6.2624,-6.3441,-6.3679,-6.3726,-6.3622,-6.335,-6.303,-6.278,-6.278,-6.278,-6.278,-6.278,-6.278,-6.278,-6.278,-6.278,-6.278,-6.278,-6.3062,-6.3135,-6.286,-6.3796,-6.4402,-6.4127,-6.554,-6.6494,-6.6494,-6.7228,-6.7687,-6.7687,-6.7687,-6.7687,-6.7687,-6.7687,-6.7687,-6.7687,-6.7687,-6.7687,-6.7687,-6.7155,-6.6898,-6.688,-6.6366,-6.6678,-4.7086,-4.7699,0.0,0.0,-4.5191,0.0,-4.2568,0.0,0.0,0.0,0.0,0.0,0.0,0.0,-4.0973,-4.1525,-4.1093,-4.0436,0.0,0.0,0.0,0.0,0.0,0.0,0.0,0.0,-4.1797,-4.3008,-4.4893,-4.6259,0.0,0.0,-4.7336,-4.7336,-4.8125,-4.8567,-4.8567,-4.9971,-5.0712,-5.0693,-4.9548,-4.7817,-4.5575,-4.5105,-4.4239,-4.3124,-4.372,-4.4605,-4.5594,-4.5594,-4.5594,-4.5633,-4.5932,-4.8644,-5.2365,-5.2365,-5.5174,-5.9045,-5.9431,-5.9931,-6.0403,-6.0403,-6.0417,-6.0502,-6.0849,-6.1368,-6.1879,-6.2087,-6.2968,-6.3723,-6.3209,-6.337,-6.3563,-6.3155,-6.2912,-6.278,-6.278,-6.278,-6.278,-6.278,-6.278,-6.278,-6.278,-6.278,-6.278,-6.278,-6.3062,-6.3154,-6.286,-6.3815,-6.4292,-6.3704,-6.5356,-6.6623,-6.6898,-6.7393,-6.7687,-6.7687,-6.7687,-6.7559,-6.7283,-6.754,-6.7687,-6.7687,-6.7687,-6.7834,-6.8109,-6.7026,-6.6494,-6.6494,-6.598,-6.6274]},{"header":{"parameterUnit":"m.s-1","parameterCategory":1,"la1":30.6,"la2":29.2853,"lo1":-89.7004,"lo2":-87.6739,"dy":0.0162,"dx":0.0183,"nx":112,"ny":82,"refTime":"2023-02-28T06:00:00:Z","depth":0,"parameterNumber":3,"parameterNumberName":"V-component_of_WINDS"},"data":[0.0,0.0,0.0,0.0,0.0,0.0,0.0,0.0,0.0,0.0,0.0,0.0,0.0,0.0,0.0,0.0,0.0,0.0,0.0,0.0,0.0,0.0,0.0,0.0,0.0,0.0,0.0,0.0,0.0,0.0,0.0,0.0,0.0,0.0,0.0,0.0,0.0,0.0,0.0,0.0,0.0,0.0,0.0,0.0,0.0,0.0,0.0,0.0,0.0,0.0,0.0,0.0,0.0,0.0,0.0,0.0,0.0,0.0,0.0,0.0,0.0,0.0,0.0,0.0,0.0,0.0,0.0,0.0,0.0,0.0,0.0,0.0,0.0,0.0,0.0,0.0,0.0,0.0,0.0,0.0,0.0,0.0,0.0,0.0,0.0,0.0,0.0,0.0,0.0,0.0,0.0,-0.8222,-0.7814,-0.7874,-0.8458,-0.9363,-1.0045,-1.0373,0.0,0.0,0.0,0.0,0.0,0.0,0.0,0.0,0.0,0.0,0.0,0.0,0.0,0.0,0.0,0.0,0.0,0.0,0.0,0.0,0.0,0.0,0.0,0.0,0.0,0.0,0.0,0.0,0.0,0.0,0.0,0.0,0.0,0.0,0.0,0.0,0.0,0.0,0.0,0.0,0.0,0.0,0.0,0.0,0.0,0.0,0.0,0.0,0.0,0.0,0.0,0.0,0.0,0.0,0.0,0.0,0.0,0.0,0.0,0.0,0.0,0.0,0.0,0.0,0.0,0.0,0.0,0.0,0.0,0.0,0.0,0.0,0.0,0.0,0.0,0.0,0.0,0.0,0.0,0.0,0.0,0.0,0.0,0.0,0.0,0.0,0.0,0.0,0.0,0.0,0.0,0.0,0.0,0.0,0.0,0.0,0.0,0.0,0.0,0.0,0.0,0.0,0.0,0.0,-1.0653,-0.937,-0.8708,-0.8393,-0.849,-0.9168,-0.9798,-1.0273,0.0,0.0,0.0,0.0,0.0,0.0,0.0,0.0,0.0,0.0,0.0,0.0,0.0,0.0,0.0,0.0,0.0,0.0,0.0,0.0,0.0,0.0,0.0,0.0,0.0,0.0,0.0,0.0,0.0,0.0,0.0,0.0,0.0,0.0,0.0,0.0,0.0,0.0,0.0,0.0,0.0,0.0,0.0,0.0,0.0,0.0,0.0,0.0,0.0,0.0,0.0,0.0,0.0,0.0,0.0,0.0,0.0,0.0,0.0,0.0,0.0,0.0,0.0,0.0,0.0,0.0,0.0,0.0,0.0,0.0,0.0,0.0,0.0,0.0,0.0,0.0,0.0,0.0,0.0,0.0,0.0,0.0,0.0,0.0,0.0,0.0,0.0,0.0,0.0,0.0,0.0,0.0,0.0,0.0,0.0,0.0,0.0,0.0,0.0,0.0,0.0,0.0,0.0,-1.0221,-0.9735,-1.0059,-0.9454,-0.9198,-0.962,-0.9907,-1.0349,-1.0916,-1.1721,0.0,0.0,0.0,0.0,0.0,0.0,0.0,0.0,0.0,0.0,0.0,0.0,0.0,0.0,0.0,0.0,0.0,0.0,0.0,0.0,0.0,0.0,0.0,0.0,0.0,0.0,0.0,0.0,0.0,0.0,0.0,0.0,0.0,0.0,0.0,0.0,0.0,0.0,0.0,0.0,0.0,0.0,0.0,0.0,0.0,0.0,0.0,0.0,0.0,0.0,0.0,0.0,0.0,0.0,0.0,0.0,0.0,0.0,0.0,0.0,0.0,0.0,0.0,0.0,0.0,0.0,0.0,0.0,0.0,0.0,0.0,0.0,0.0,0.0,0.0,0.0,0.0,0.0,0.0,0.0,0.0,0.0,0.0,0.0,0.0,0.0,0.0,0.0,0.0,0.0,0.0,0.0,0.0,0.0,0.0,0.0,0.0,0.0,0.0,0.0,0.0,0.0,-0.953,-0.924,-1.0456,-1.0104,-0.9977,-1.0555,-1.0593,-1.0802,-1.1286,-1.158,0.0,0.0,0.0,0.0,0.0,0.0,0.0,0.0,0.0,0.0,0.0,0.0,0.0,0.0,0.0,0.0,0.0,0.0,0.0,0.0,0.0,0.0,0.0,0.0,0.0,0.0,0.0,0.0,0.0,0.0,0.0,0.0,0.0,0.0,0.0,0.0,0.0,0.0,0.0,0.0,0.0,0.0,0.0,0.0,0.0,0.0,0.0,0.0,0.0,0.0,0.0,0.0,0.0,0.0,0.0,0.0,0.0,0.0,0.0,0.0,0.0,0.0,0.0,0.0,0.0,0.0,0.0,0.0,0.0,0.0,0.0,0.0,0.0,0.0,0.0,0.0,0.0,0.0,0.0,0.0,0.0,0.0,0.0,0.0,0.0,0.0,0.0,0.0,0.0,0.0,0.0,0.0,0.0,0.0,0.0,0.0,0.0,0.0,0.0,0.0,0.0,0.0,-1.0785,-1.0456,-1.0586,-1.0555,-1.053,-1.0593,-1.0593,-1.0639,-1.0747,-1.1125,0.0,0.0,0.0,0.0,0.0,0.0,0.0,0.0,0.0,0.0,0.0,0.0,0.0,0.0,0.0,0.0,0.0,0.0,0.0,0.0,0.0,0.0,0.0,0.0,0.0,0.0,0.0,0.0,0.0,0.0,0.0,0.0,0.0,0.0,0.0,0.0,0.0,0.0,0.0,0.0,0.0,0.0,0.0,0.0,0.0,0.0,0.0,0.0,0.0,0.0,0.0,0.0,0.0,0.0,0.0,0.0,0.0,0.0,0.0,0.0,0.0,0.0,0.0,0.0,0.0,0.0,0.0,0.0,0.0,0.0,0.0,0.0,0.0,0.0,0.0,0.0,0.0,0.0,0.0,0.0,0.0,0.0,0.0,0.0,0.0,0.0,0.0,0.0,0.0,0.0,0.0,0.0,0.0,0.0,0.0,0.0,0.0,0.0,0.0,0.0,0.0,0.0,-1.0536,-1.0385,0.0,-1.0593,-1.0593,-1.0593,-1.0593,-1.0646,-1.0822,0.0,0.0,0.0,0.0,0.0,0.0,0.0,0.0,0.0,0.0,0.0,0.0,0.0,0.0,0.0,0.0,0.0,0.0,0.0,0.0,0.0,0.0,0.0,0.0,0.0,0.0,0.0,0.0,0.0,0.0,0.0,0.0,0.0,0.0,0.0,0.0,0.0,0.0,0.0,0.0,0.0,0.0,0.0,0.0,0.0,0.0,0.0,0.0,0.0,0.0,0.0,0.0,0.0,0.0,0.0,0.0,0.0,0.0,0.0,0.0,0.0,0.0,0.0,0.0,0.0,0.0,0.0,0.0,0.0,0.0,0.0,0.0,0.0,0.0,0.0,0.0,0.0,0.0,0.0,0.0,0.0,0.0,0.0,0.0,0.0,0.0,0.0,0.0,0.0,0.0,0.0,0.0,0.0,0.0,0.0,0.0,0.0,0.0,0.0,0.0,0.0,0.0,-1.1045,-1.0548,-1.0334,0.0,-1.0593,-1.0593,-1.0593,-1.0593,-1.0677,-1.0822,0.0,0.0,0.0,0.0,0.0,0.0,0.0,0.0,0.0,0.0,0.0,0.0,0.0,0.0,0.0,0.0,0.0,0.0,0.0,0.0,0.0,0.0,0.0,0.0,0.0,0.0,0.0,0.0,0.0,0.0,0.0,0.0,0.0,0.0,0.0,0.0,0.0,0.0,0.0,0.0,0.0,0.0,0.0,0.0,0.0,0.0,0.0,0.0,0.0,0.0,0.0,0.0,0.0,0.0,0.0,0.0,0.0,0.0,0.0,0.0,0.0,0.0,0.0,0.0,0.0,0.0,0.0,0.0,0.0,0.0,0.0,0.0,0.0,0.0,0.0,0.0,0.0,0.0,0.0,0.0,0.0,0.0,0.0,0.0,0.0,0.0,0.0,0.0,0.0,0.0,0.0,0.0,0.0,0.0,0.0,0.0,0.0,0.0,0.0,0.0,0.0,0.0,-1.171,-1.101,-1.0593,-1.0593,-1.0593,-1.0593,-1.0593,-1.0593,-1.0646,0.0,0.0,0.0,0.0,0.0,0.0,0.0,0.0,0.0,0.0,0.0,0.0,0.0,0.0,0.0,0.0,0.0,0.0,0.0,0.0,0.0,0.0,0.0,0.0,0.0,0.0,0.0,0.0,0.0,0.0,0.0,0.0,0.0,0.0,0.0,0.0,0.0,0.0,0.0,0.0,0.0,0.0,0.0,0.0,0.0,0.0,0.0,0.0,0.0,0.0,0.0,0.0,0.0,0.0,0.0,0.0,0.0,0.0,0.0,0.0,0.0,0.0,0.0,0.0,0.0,0.0,0.0,0.0,0.0,0.0,0.0,0.0,0.0,0.0,0.0,0.0,0.0,0.0,0.0,0.0,0.0,0.0,0.0,0.0,0.0,0.0,0.0,0.0,0.0,0.0,0.0,0.0,0.0,0.0,0.0,0.0,0.0,0.0,0.0,0.0,0.0,0.0,0.0,-1.1558,-1.105,-1.0744,-1.0744,-1.0649,-1.0593,-1.0593,-1.0593,-1.0528,-1.0279,0.0,0.0,0.0,0.0,0.0,0.0,0.0,0.0,0.0,0.0,0.0,0.0,0.0,0.0,0.0,0.0,0.0,0.0,0.0,0.0,0.0,0.0,0.0,0.0,0.0,0.0,0.0,0.0,0.0,0.0,0.0,0.0,0.0,0.0,0.0,0.0,0.0,0.0,0.0,0.0,0.0,0.0,0.0,0.0,0.0,0.0,0.0,0.0,0.0,0.0,0.0,0.0,0.0,0.0,0.0,0.0,0.0,0.0,0.0,0.0,0.0,0.0,0.0,0.0,0.0,0.0,0.0,0.0,0.0,0.0,0.0,0.0,0.0,0.0,0.0,0.0,0.0,0.0,0.0,0.0,0.0,0.0,0.0,0.0,0.0,0.0,0.0,0.0,0.0,0.0,0.0,0.0,0.0,0.0,0.0,0.0,0.0,0.0,0.0,0.0,0.0,0.0,-1.1684,-1.1133,-1.0807,-1.0807,-1.0681,-1.064,-1.0754,-1.0767,-1.0708,-1.0609,0.0,0.0,0.0,0.0,0.0,0.0,0.0,0.0,0.0,0.0,0.0,0.0,0.0,0.0,0.0,0.0,0.0,0.0,0.0,0.0,0.0,0.0,0.0,0.0,0.0,0.0,0.0,0.0,0.0,0.0,0.0,0.0,0.0,0.0,0.0,0.0,0.0,0.0,0.0,0.0,0.0,0.0,0.0,0.0,0.0,0.0,0.0,0.0,0.0,0.0,0.0,0.0,0.0,0.0,0.0,0.0,0.0,0.0,0.0,0.0,0.0,0.0,0.0,0.0,0.0,0.0,0.0,0.0,0.0,0.0,0.0,0.0,0.0,0.0,0.0,0.0,0.0,0.0,0.0,0.0,0.0,0.0,0.0,0.0,0.0,0.0,0.0,0.0,0.0,0.0,0.0,0.0,0.0,0.0,0.0,0.0,0.0,0.0,0.0,0.0,0.0,0.0,-1.1956,-1.1295,-1.0839,-1.0839,-1.0713,-1.0739,-1.1034,-1.1028,-1.1149,-1.141,0.0,0.0,0.0,0.0,0.0,0.0,0.0,0.0,0.0,0.0,0.0,0.0,0.0,0.0,0.0,0.0,0.0,0.0,0.0,0.0,0.0,0.0,0.0,0.0,0.0,0.0,0.0,0.0,0.0,0.0,0.0,0.0,0.0,0.0,0.0,0.0,0.0,0.0,0.0,0.0,0.0,0.0,0.0,0.0,0.0,0.0,0.0,0.0,0.0,0.0,0.0,0.0,0.0,0.0,0.0,0.0,0.0,0.0,0.0,0.0,-0.9343,0.0,0.0,0.0,0.0,0.0,0.0,0.0,0.0,0.0,0.0,0.0,0.0,0.0,0.0,0.0,0.0,0.0,0.0,0.0,0.0,0.0,0.0,0.0,0.0,0.0,0.0,0.0,0.0,0.0,0.0,0.0,0.0,0.0,0.0,0.0,0.0,0.0,0.0,0.0,0.0,0.0,-1.1874,-1.1466,-1.1178,-1.1178,-1.0933,-1.093,-1.1355,-1.1291,-1.1349,-1.1614,-1.2356,0.0,0.0,0.0,0.0,0.0,0.0,0.0,0.0,0.0,0.0,0.0,0.0,0.0,0.0,0.0,0.0,0.0,0.0,0.0,0.0,0.0,0.0,0.0,0.0,0.0,0.0,0.0,0.0,0.0,0.0,0.0,0.0,0.0,0.0,0.0,0.0,0.0,0.0,0.0,0.0,0.0,0.0,0.0,0.0,0.0,0.0,0.0,0.0,0.0,0.0,0.0,0.0,0.0,0.0,0.0,0.0,0.0,0.0,0.0,0.0,-0.9556,0.0,0.0,0.0,0.0,0.0,0.0,0.0,0.0,0.0,0.0,0.0,0.0,0.0,0.0,0.0,0.0,0.0,0.0,0.0,0.0,0.0,0.0,0.0,0.0,0.0,0.0,0.0,0.0,0.0,0.0,0.0,0.0,0.0,0.0,0.0,0.0,0.0,0.0,0.0,0.0,-1.2355,-1.1737,-1.1425,-1.1765,-1.1399,-1.1367,-1.192,-1.1935,-1.1992,-1.2255,-1.2548,0.0,0.0,0.0,0.0,0.0,0.0,0.0,0.0,0.0,0.0,0.0,0.0,0.0,0.0,0.0,0.0,0.0,0.0,0.0,0.0,0.0,0.0,0.0,0.0,0.0,0.0,0.0,0.0,0.0,0.0,0.0,0.0,0.0,0.0,0.0,0.0,0.0,0.0,0.0,0.0,0.0,0.0,0.0,0.0,0.0,0.0,0.0,0.0,0.0,0.0,0.0,0.0,0.0,0.0,-0.6014,-0.6045,-0.6937,-0.7354,-0.7493,-0.879,-0.8865,-0.8215,0.0,0.0,0.0,0.0,0.0,0.0,0.0,0.0,0.0,0.0,0.0,0.0,0.0,0.0,0.0,0.0,0.0,0.0,0.0,0.0,0.0,0.0,0.0,0.0,0.0,-1.4005,-1.4925,0.0,0.0,0.0,0.0,0.0,0.0,0.0,0.0,0.0,0.0,0.0,0.0,-1.2807,-1.2062,-1.1732,-1.2265,-1.1919,-1.1956,-1.2705,-1.2755,-1.2856,-1.3127,-1.2949,-1.3053,0.0,0.0,0.0,0.0,0.0,0.0,0.0,0.0,0.0,0.0,0.0,0.0,0.0,0.0,0.0,0.0,0.0,0.0,0.0,0.0,0.0,0.0,0.0,0.0,0.0,0.0,0.0,0.0,0.0,0.0,0.0,0.0,-0.3178,-0.3244,0.0,0.0,0.0,0.0,0.0,0.0,0.0,0.0,0.0,0.0,0.0,0.0,0.0,0.0,-0.609,-0.539,-0.4903,-0.4711,-0.5633,-0.6101,-0.6122,-0.7036,-0.748,-0.7495,-0.7872,0.0,-0.7675,-0.8717,0.0,0.0,0.0,0.0,0.0,0.0,0.0,0.0,0.0,0.0,0.0,0.0,0.0,0.0,0.0,0.0,0.0,0.0,0.0,0.0,0.0,0.0,-1.4443,-1.3381,-1.3469,-1.3716,0.0,-1.4085,-1.4658,-1.5161,0.0,0.0,0.0,0.0,0.0,0.0,0.0,0.0,-1.2574,-1.2416,-1.2397,-1.2444,-1.2321,-1.2667,-1.3804,-1.3774,-1.3816,-1.4099,-1.4083,-1.3823,-1.3289,-1.3478,0.0,0.0,0.0,0.0,0.0,0.0,0.0,0.0,0.0,0.0,0.0,0.0,0.0,0.0,0.0,0.0,0.0,0.0,0.0,0.0,0.0,0.0,0.0,0.0,0.0,0.0,0.0,0.0,0.0,-0.3258,-0.3235,-0.3586,-0.4243,-0.486,0.0,0.0,0.0,0.0,0.0,0.0,0.0,0.0,0.0,-0.6706,-0.5763,-0.5108,-0.4812,-0.4092,-0.389,-0.4222,-0.5225,-0.5875,-0.6182,-0.7315,-0.7829,-0.7868,-0.8147,-0.828,-0.8388,-0.9057,-0.9303,-0.945,0.0,0.0,0.0,0.0,0.0,-1.2605,-1.2399,0.0,0.0,0.0,0.0,0.0,0.0,0.0,0.0,0.0,0.0,0.0,0.0,0.0,0.0,-1.3214,-1.3288,-1.3448,-1.3258,-1.36,-1.406,0.0,-1.396,-1.3634,-1.4252,0.0,0.0,0.0,0.0,0.0,-1.307,-1.2717,-1.2631,-1.3031,-1.2837,-1.3157,-1.4269,-1.4336,-1.4336,-1.4458,-1.4474,-1.4089,-1.3244,-1.3476,-1.3637,0.0,0.0,0.0,0.0,0.0,0.0,0.0,0.0,0.0,0.0,0.0,0.0,0.0,0.0,0.0,0.0,0.0,0.0,0.0,0.0,0.0,0.0,0.0,0.0,0.0,0.0,0.0,0.0,-0.3097,-0.3065,-0.3498,-0.3786,-0.4188,0.0,0.0,0.0,0.0,0.0,0.0,-0.6171,-0.6262,-0.6144,-0.5788,-0.477,-0.4122,-0.3877,-0.3404,-0.3422,-0.3993,-0.5172,-0.5979,-0.6477,-0.7573,-0.8208,-0.8471,-0.8732,-0.9018,-0.9371,-0.9612,-0.9781,-0.9988,-1.1426,-1.2101,0.0,-1.2615,-1.2787,-1.2789,-1.2607,-1.265,-1.2728,-1.2192,0.0,-1.279,-1.2638,0.0,0.0,0.0,0.0,-1.3509,-1.3502,0.0,-1.3452,-1.3204,-1.3316,-1.3433,-1.3184,-1.3329,-1.3577,0.0,-1.3454,-1.3364,-1.4303,0.0,0.0,0.0,0.0,-1.334,-1.3492,-1.306,-1.2958,-1.344,-1.3244,-1.347,-1.4442,-1.4537,-1.4502,-1.4466,-1.4502,-1.4114,-1.3156,-1.3454,-1.3572,-1.3411,0.0,0.0,0.0,0.0,0.0,0.0,0.0,0.0,0.0,0.0,0.0,0.0,0.0,0.0,0.0,0.0,0.0,0.0,0.0,0.0,0.0,0.0,0.0,0.0,0.0,0.0,0.0,0.0,0.0,-0.1721,-0.2512,0.0,0.0,0.0,0.0,-0.432,-0.4906,-0.5042,-0.4545,-0.5186,-0.5358,-0.4888,-0.4303,-0.4031,-0.4085,-0.4316,-0.4414,-0.4499,-0.5871,-0.6757,-0.717,-0.773,-0.8515,-0.9442,-0.9433,-0.9792,-1.0312,-0.993,-1.0169,-1.0784,-1.1259,-1.1799,-1.2295,-1.2331,-1.2441,-1.2595,-1.2382,-1.2462,-1.2579,-1.2352,-1.2446,-1.2728,-1.3417,-1.3429,0.0,0.0,-1.3511,-1.3482,-1.3498,-1.3506,-1.3506,-1.347,-1.3484,-1.3492,-1.3477,-1.3493,-1.3515,0.0,-1.3491,-1.3607,-1.4063,0.0,-1.406,-1.4076,-1.4076,-1.3911,-1.3542,-1.3455,-1.3455,-1.3492,-1.3295,-1.3499,-1.423,-1.4302,-1.423,-1.4042,-1.4194,-1.3905,-1.2936,-1.346,-1.3686,-1.3419,-1.416,0.0,0.0,0.0,0.0,0.0,0.0,0.0,0.0,0.0,0.0,0.0,0.0,0.0,0.0,0.0,0.0,0.0,0.0,0.0,0.0,0.0,0.0,0.0,0.0,0.0,0.0,0.0,0.0,-0.1981,-0.2339,0.0,0.0,-0.3251,-0.3619,-0.3928,-0.4114,-0.4237,-0.428,-0.4409,-0.4409,-0.4242,-0.3775,-0.3863,-0.4483,-0.4412,-0.4833,-0.5738,-0.6479,-0.7041,-0.7451,-0.8661,-0.9282,-0.9402,-1.0154,-1.0697,-1.1012,-1.0901,-1.0835,-1.0912,-1.1255,-1.1515,-1.1702,-1.1702,-1.1772,-1.1841,-1.1993,-1.1844,-1.1507,-1.1242,-1.1636,-1.2307,-1.2798,-1.3156,-1.3508,-1.3985,-1.3985,-1.3807,-1.3814,-1.3967,-1.4011,-1.3594,-1.366,-1.3748,-1.3543,-1.3512,-1.3504,-1.3513,-1.3503,-1.36,-1.3875,-1.3695,-1.3557,-1.3702,-1.3593,-1.3484,-1.3346,-1.3419,-1.3492,-1.3492,-1.3309,-1.3521,-1.4238,-1.4194,-1.4078,-1.4006,-1.4086,-1.3688,-1.2746,-1.3296,-1.3556,-1.3449,-1.425,-1.4542,0.0,0.0,0.0,0.0,0.0,0.0,0.0,0.0,0.0,0.0,0.0,0.0,0.0,0.0,0.0,0.0,0.0,0.0,0.0,0.0,0.0,0.0,0.0,0.0,0.0,0.0,-0.1917,-0.2217,-0.2183,-0.2313,-0.2625,-0.2577,-0.2702,-0.3128,-0.3321,-0.3452,-0.3536,-0.3924,-0.4064,-0.3853,-0.3942,-0.4339,-0.5087,-0.5101,-0.5736,-0.6975,-0.7239,-0.7614,-0.8146,-0.9198,-0.9743,-0.9862,-1.0742,-1.1248,-1.1372,-1.1311,-1.1016,-1.0673,-1.1124,-1.1416,-1.1585,-1.1371,-1.1299,-1.135,-1.1695,-1.1534,-1.1148,-1.1202,-1.1658,-1.2241,-1.2791,-1.3253,-1.3726,-1.4265,-1.4265,-1.4125,-1.4159,-1.4342,-1.4401,-1.3923,-1.4027,-1.4093,-1.3733,-1.3623,-1.3549,-1.3542,-1.3461,-1.345,-1.3585,-1.3331,-1.3127,-1.3165,-1.3165,-1.3157,-1.3093,-1.3317,-1.3455,-1.3419,-1.3229,-1.3258,-1.3688,-1.3512,-1.3433,-1.3579,-1.3565,-1.3315,-1.2825,-1.3264,-1.3549,-1.3699,-1.4582,-1.5087,-1.5134,0.0,0.0,0.0,0.0,0.0,0.0,0.0,0.0,0.0,0.0,0.0,0.0,0.0,0.0,0.0,0.0,0.0,0.0,0.0,0.0,0.0,0.0,0.0,-0.2056,-0.1997,-0.1978,-0.2255,-0.1964,-0.1852,-0.2174,-0.1955,-0.1841,-0.1923,-0.2537,-0.271,-0.2273,-0.3732,-0.4365,-0.3886,-0.4816,-0.552,-0.5956,-0.6425,-0.7157,-0.8098,-0.802,-0.8468,-0.9268,-0.9299,-0.9865,-1.0778,-1.1182,-1.1378,-1.136,-1.1094,-1.0635,-1.0182,-1.0797,-1.1396,-1.187,-1.1254,-1.1072,-1.1154,-1.1531,-1.1542,-1.1542,-1.2401,-1.2531,-1.2571,-1.3506,-1.3805,-1.3865,-1.4224,-1.4313,-1.4305,-1.4477,-1.4487,-1.4494,-1.4472,-1.4479,-1.4392,-1.407,-1.3838,-1.3686,-1.3641,-1.3392,-1.3228,-1.3228,-1.3031,-1.2816,-1.2557,-1.2913,0.0,-1.2855,-1.3194,-1.3419,-1.3222,-1.2996,-1.2813,-1.2636,-1.2375,-1.2392,-1.2802,-1.2679,-1.2787,-1.3186,-1.3383,-1.3676,-1.408,-1.5168,-1.5782,-1.5989,0.0,0.0,0.0,0.0,0.0,0.0,0.0,0.0,0.0,0.0,0.0,0.0,0.0,0.0,0.0,0.0,0.0,0.0,0.0,0.0,0.0,0.0,-0.2073,-0.2082,-0.1883,-0.1809,-0.1971,-0.1948,-0.2003,-0.2188,-0.2115,-0.2143,-0.2318,-0.3051,-0.343,-0.3368,-0.4231,-0.4902,-0.5254,-0.5299,-0.5865,-0.6996,-0.6576,-0.6888,-0.8016,-0.815,-0.8367,-0.8662,-0.9557,-0.9948,-0.997,-1.0509,-1.0843,-1.095,-1.0738,-1.0703,-1.0767,-1.0231,-1.0101,-1.0258,-1.0079,-1.0564,-1.1282,-1.0935,-1.1055,-1.1416,-1.2043,-1.218,-1.2324,-1.3502,-1.3857,-1.3925,-1.4574,-1.4345,-1.4002,-1.4283,-1.449,-1.454,-1.4087,-1.4197,-1.4275,-1.3917,-1.3807,-1.3769,-1.3769,-1.3582,-1.341,-1.341,-1.3186,-1.2893,-1.2743,0.0,0.0,-1.2925,-1.3252,-1.3331,-1.2956,-1.2714,-1.2619,-1.2615,-1.2414,-1.252,0.0,-1.3045,-1.315,-1.3423,-1.3519,-1.3811,-1.431,-1.5355,-1.5865,0.0,0.0,0.0,0.0,0.0,0.0,0.0,0.0,0.0,0.0,0.0,0.0,0.0,0.0,0.0,0.0,0.0,0.0,0.0,0.0,0.0,0.0,-0.2177,-0.2103,-0.2195,-0.2035,-0.1937,-0.2098,-0.2157,-0.2241,-0.2398,-0.2413,-0.2583,-0.3033,-0.3476,-0.3894,-0.4193,-0.4905,-0.5538,-0.6064,-0.6254,-0.681,-0.775,-0.7154,-0.7443,-0.8539,-0.8477,-0.867,-0.9078,-0.9935,-1.0217,0.0,-1.0528,-1.0679,-1.0559,-1.0428,-1.0374,0.0,0.0,0.0,0.0,0.0,-0.9974,-1.0816,-1.0645,-1.0908,-1.1456,-1.2123,-1.2258,-1.235,-1.3404,-1.371,-1.3793,-1.4263,-1.4273,-1.4203,-1.4391,-1.4755,-1.495,-1.451,-1.4234,-1.4075,-1.4024,-1.364,-1.34,-1.3773,0.0,0.0,-1.3723,-1.3371,-1.3047,-1.2957,-1.3268,-1.3439,0.0,-1.3627,-1.3791,-1.3417,-1.3174,-1.3014,-1.2962,-1.2671,0.0,0.0,0.0,-1.3358,-1.3646,-1.387,0.0,0.0,0.0,-1.5917,0.0,0.0,0.0,0.0,-1.731,-1.7373,0.0,0.0,0.0,0.0,0.0,0.0,0.0,0.0,0.0,0.0,0.0,0.0,0.0,0.0,0.0,0.0,-0.2094,-0.2099,-0.2418,-0.2303,-0.2258,-0.2426,-0.2555,-0.2678,-0.283,-0.2902,-0.3197,-0.3878,-0.4006,-0.4303,-0.4895,0.0,0.0,0.0,0.0,-0.7956,-0.8235,-0.7909,-0.8245,-0.9213,-0.8811,-0.9065,-0.9952,-1.0271,-1.0376,-1.0382,-1.0749,-1.0597,-1.0141,-1.0116,-0.979,-0.9363,-0.9515,-0.9741,-0.9872,-0.937,-0.9666,0.0,0.0,0.0,0.0,-1.2584,-1.2622,-1.2465,-1.323,-1.3404,-1.3389,-1.3589,-1.4063,-1.4526,-1.4657,-1.5094,-1.5455,-1.5097,-1.4361,-1.382,-1.413,-1.3383,-1.2968,-1.3829,-1.3642,-1.3527,-1.4048,-1.3688,-1.3245,-1.3163,-1.3581,0.0,-1.3689,-1.4127,-1.4333,-1.4095,0.0,0.0,-1.3495,-1.3062,-1.3092,-1.3613,-1.3447,-1.3492,-1.3908,-1.4335,-1.4564,-1.4599,-1.5386,-1.5967,-1.6367,-1.6733,-1.7055,-1.7296,-1.6886,-1.7244,0.0,0.0,0.0,0.0,0.0,0.0,0.0,0.0,0.0,0.0,0.0,0.0,0.0,0.0,0.0,-0.256,-0.2434,-0.2466,-0.2673,-0.2695,-0.2678,-0.2631,-0.3186,-0.3564,-0.3575,-0.407,-0.4477,-0.4687,-0.5253,-0.564,-0.5827,-0.6866,0.0,-0.7538,-0.7731,-0.7834,-0.7891,-0.7434,-0.7757,-0.8723,0.0,0.0,-0.9663,-0.9747,-0.9675,-0.9543,-0.9627,-0.9669,-0.9698,-0.9562,-0.9509,-0.9517,-0.9426,-0.9752,-1.0311,-1.015,-1.0994,-1.2196,-1.2299,-1.2492,-1.2847,-1.3696,-1.304,-1.2116,-1.3097,-1.2906,0.0,-1.3101,-1.3534,-1.3926,-1.4424,-1.4828,-1.4892,-1.3962,-1.3623,-1.3503,-1.3539,-1.3381,-1.3565,-1.4571,-1.4512,-1.4302,-1.4416,-1.4108,-1.377,-1.3561,-1.3918,-1.4036,-1.3611,-1.3782,-1.3765,-1.3275,-1.3171,-1.3197,-1.3265,-1.3153,-1.3373,-1.3968,-1.4102,-1.4151,-1.4074,-1.467,-1.4795,-1.4434,-1.5633,-1.6206,-1.6072,-1.6861,-1.7267,-1.7318,-1.7208,-1.7294,0.0,0.0,0.0,0.0,0.0,0.0,0.0,0.0,0.0,0.0,0.0,-0.4505,0.0,0.0,-0.2663,-0.2603,-0.2601,-0.2654,-0.2807,-0.3134,-0.334,-0.3303,-0.3646,-0.3992,-0.4381,-0.4724,-0.5048,-0.5455,-0.5853,-0.6189,-0.6564,-0.7143,-0.7672,-0.8197,-0.8201,-0.8332,-0.8556,-0.8065,-0.8109,-0.8592,-0.8592,-0.8896,-0.9461,-0.9714,-0.9738,-0.9639,-0.9639,-0.97,-0.979,-0.9682,-0.97,-0.979,-0.9682,-1.0033,-1.0568,-1.0642,-1.1549,-1.2725,-1.2827,-1.3144,-1.36,-1.3858,-1.3155,-1.2273,-1.2664,-1.2472,-1.2183,-1.2595,-1.3461,-1.4376,-1.4663,-1.5177,-1.5485,-1.4763,-1.4155,-1.3784,-1.4114,-1.3806,-1.3806,-1.4822,-1.4843,-1.4743,-1.4743,-1.4713,-1.4493,-1.4061,-1.4221,-1.4289,-1.413,-1.4191,-1.4135,-1.3895,-1.3761,-1.3742,-1.3784,-1.3722,-1.3774,-1.4068,-1.4208,-1.4243,-1.4243,-1.4573,-1.4741,-1.4741,-1.5584,-1.6089,-1.6197,-1.6812,-1.7172,-1.7279,-1.7279,-1.7279,0.0,0.0,0.0,0.0,0.0,0.0,0.0,0.0,-0.5823,-0.5878,-0.517,-0.4432,-0.4004,-0.3165,-0.255,-0.2516,-0.2608,-0.2752,-0.3029,-0.3557,-0.4028,-0.4295,-0.434,-0.4563,-0.5144,-0.5322,-0.5633,-0.626,-0.6305,-0.6523,-0.7051,-0.7299,-0.7746,-0.8416,-0.8668,-0.8849,-0.8995,-0.864,-0.846,-0.846,-0.8548,-0.8855,-0.9305,-0.9777,-0.9994,-0.9994,-0.9994,-0.9994,-0.9994,-0.9994,-0.9994,-0.9994,-0.9994,-1.032,-1.0784,-1.1091,-1.1841,-1.2777,-1.3098,-1.361,-1.4041,-1.37,-1.306,-1.24,-1.214,-1.2077,-1.2058,-1.2122,-1.3534,-1.5022,-1.5075,-1.5698,-1.6251,-1.5811,-1.4905,-1.4266,-1.4845,-1.4291,-1.4018,-1.4994,-1.5129,-1.5095,-1.5095,-1.5183,-1.5069,-1.4608,-1.4528,-1.4536,-1.4663,-1.4656,-1.4656,-1.4656,-1.4584,-1.4533,-1.4533,-1.4377,-1.4235,-1.4175,-1.4168,-1.422,-1.4398,-1.444,-1.4685,-1.5183,-1.5576,-1.6024,-1.6507,-1.6837,-1.7077,-1.7279,-1.7279,-1.7279,-0.3858,-0.4626,-0.5334,-0.5669,-0.5867,-0.6186,0.0,0.0,-0.6651,-0.6869,-0.5768,-0.4689,-0.4374,-0.329,-0.2383,-0.2287,-0.2468,-0.2824,-0.3496,-0.3756,-0.4385,-0.568,-0.5858,-0.5905,-0.5949,-0.652,-0.6918,-0.6962,-0.7007,-0.701,-0.7095,-0.8121,-0.845,-0.79,-0.8925,-0.8978,-0.7984,-0.7937,-0.7896,-0.7896,-0.8372,-0.8855,-0.9305,-0.9777,-0.9994,-0.9994,-0.9994,-0.9994,-0.9994,-0.9994,-0.9994,-0.9994,-0.9994,-1.0409,-1.1037,-1.166,-1.2339,-1.3044,-1.373,-1.4046,-1.4041,-1.37,-1.2772,-1.1768,-1.1698,-1.1519,-1.1474,-1.1888,-1.348,-1.5068,-1.5284,-1.5999,-1.6397,-1.5513,-1.4942,-1.4643,-1.471,-1.4467,-1.4541,-1.5543,-1.5524,-1.5351,-1.5351,-1.5182,-1.5033,-1.4921,-1.4862,-1.4779,-1.4556,-1.4512,-1.4512,-1.4512,-1.4747,-1.4952,-1.4952,-1.4908,-1.4756,-1.4489,-1.4476,-1.4435,-1.4405,-1.4566,-1.4951,-1.5548,-1.6031,-1.6477,-1.6844,-1.7121,-1.7296,-1.7279,-1.7279,-1.7279,-0.4261,-0.5144,-0.582,0.0,-0.6437,-0.6687,-0.6936,-0.6905,-0.6844,-0.6878,-0.5742,-0.4705,-0.4501,-0.3284,-0.2328,0.0,-0.2377,-0.2736,-0.3578,-0.4077,-0.4778,-0.5966,-0.6435,-0.67,-0.67,-0.6918,-0.7095,-0.7095,-0.7224,-0.7275,-0.7275,-0.8105,-0.8574,-0.8542,-0.935,-0.9492,-0.8956,-0.8679,-0.8405,-0.8086,-0.8314,-0.8627,-0.9023,-0.9509,-0.98,-0.9994,-0.9994,-0.9994,-0.9994,-0.9994,-0.9994,-0.9994,-0.9994,-1.0168,-1.0554,-1.1628,-1.2186,-1.2528,-1.3215,-1.3222,-1.2857,-1.2705,-1.203,-1.1309,-1.1267,-1.1449,-1.1741,-1.1952,-1.3665,-1.5491,-1.5618,-1.6306,-1.6859,-1.6451,-1.613,-1.5868,-1.5868,-1.5778,-1.5842,-1.6241,-1.6239,-1.6159,-1.6159,-1.6059,-1.5919,-1.5799,-1.5281,-1.4916,-1.4821,-1.4776,-1.4776,-1.4776,-1.4934,-1.5008,-1.5008,-1.5008,-1.4955,-1.4783,-1.4776,-1.4848,-1.4939,-1.4982,-1.5212,-1.56,-1.5993,-1.6357,-1.6682,-1.7001,-1.72,-1.7286,-1.7523,-1.7611,-0.4748,0.0,0.0,-0.6603,-0.6993,-0.7186,-0.7102,-0.7122,-0.7153,-0.7085,-0.6118,-0.5305,-0.514,-0.378,-0.2721,-0.2646,-0.2422,-0.2688,-0.3844,-0.4473,-0.5235,-0.64,-0.6953,-0.7189,-0.7105,-0.7095,-0.7112,-0.72,-0.7309,-0.7436,-0.7434,-0.8228,-0.8714,-0.8893,-0.9601,-0.9792,-0.941,-0.9033,-0.8613,-0.8106,-0.8247,-0.8482,-0.882,-0.9392,-0.9779,-0.9994,-0.9994,-0.9994,-0.9994,-0.9994,-0.9994,-0.9994,-0.9994,-0.9994,-1.013,-1.1359,-1.1775,-1.1843,-1.2485,-1.24,-1.2015,-1.2015,-1.1542,-1.0982,-1.0982,-1.1456,-1.2015,-1.2015,-1.3826,-1.5784,-1.5784,-1.6547,-1.732,-1.732,-1.7048,-1.6827,-1.6827,-1.6767,-1.6707,-1.6707,-1.6707,-1.6707,-1.6707,-1.6707,-1.6633,-1.6426,-1.5852,-1.5403,-1.5162,-1.515,-1.5283,-1.5363,-1.5444,-1.5457,-1.5377,-1.537,-1.5303,-1.5142,-1.5129,-1.5185,-1.5284,-1.5284,-1.5445,-1.5739,-1.6039,-1.6345,-1.6636,-1.6958,-1.72,-1.7286,-1.7614,-1.7867,0.0,0.0,-0.6202,-0.7126,-0.7465,-0.7658,-0.7887,-0.784,-0.7824,-0.7921,-0.7412,-0.6844,-0.6667,-0.5081,-0.3701,-0.3606,-0.2716,-0.2762,-0.4605,-0.5033,-0.579,-0.7382,-0.7584,-0.7468,0.0,-0.7095,-0.7204,-0.7353,-0.7415,-0.7438,-0.7587,-0.8731,-0.9029,-0.8344,-0.9483,-0.9539,-0.834,-0.8337,-0.8106,-0.7647,-0.8059,-0.8482,-0.8812,-0.961,-0.9999,-0.9994,-0.9994,-0.9994,-0.9994,-0.9994,-0.9994,-0.9994,-0.9994,-0.9994,-1.0105,-1.0982,-1.1185,-1.1111,-1.18,-1.2015,-1.2015,-1.2015,-1.1542,-1.0982,-1.0982,-1.1456,-1.2015,-1.2015,-1.3826,-1.5784,-1.5784,-1.6693,-1.7569,-1.7569,-1.74,-1.7186,-1.7186,-1.6907,-1.6707,-1.6707,-1.6707,-1.6707,-1.6707,-1.6707,-1.67,-1.6693,-1.6667,-1.6346,-1.5491,-1.5625,-1.5912,-1.6254,-1.6486,-1.654,-1.6259,-1.6281,-1.5985,-1.5418,-1.5384,-1.5349,-1.5297,-1.5284,-1.5542,-1.6053,-1.6353,-1.6662,-1.6972,-1.728,-1.7361,-1.7286,-1.7614,-1.7984,0.0,0.0,-0.7166,-0.7563,-0.7855,-0.8045,-0.7988,-0.7948,-0.7928,-0.7978,-0.7046,-0.6176,-0.6108,-0.4394,-0.2998,-0.3022,-0.2402,-0.232,-0.3515,-0.4468,-0.5453,-0.659,-0.7397,0.0,0.0,0.0,0.0,-0.7405,-0.7465,-0.7587,-0.7733,-0.8556,-0.8864,-0.8661,-0.9352,-0.9405,-0.8661,-0.8612,-0.8373,-0.7889,-0.8268,-0.8665,-0.9165,-0.9631,-1.0044,-1.0407,-1.0407,-1.0407,-1.0407,-1.0407,-1.0331,-1.0208,-1.0208,-1.0208,-1.0203,-1.0392,-1.0499,-1.0647,-1.1305,-1.1161,-1.0684,-1.0684,-1.0809,-1.0982,-1.0982,-1.18,-1.2656,-1.2656,-1.4193,-1.5784,-1.5784,-1.67,-1.7582,-1.7582,-1.697,-1.6314,-1.6314,-1.6246,-1.6177,-1.6177,-1.6756,-1.7288,-1.7288,-1.7288,-1.7221,-1.7079,-1.6834,-1.66,-1.6299,-1.6346,-1.6453,-1.6547,-1.6647,-1.6667,-1.6567,-1.656,-1.6393,-1.6005,-1.6159,-1.6046,-1.5651,-1.6007,-1.6217,-1.6218,-1.6503,-1.6752,-1.6985,-1.7091,-1.7332,-1.7662,-1.7984,-1.8313,0.0,-0.699,-0.7472,-0.7936,-0.8471,-0.8841,-0.8798,-0.9101,-0.9268,-0.8752,-0.7875,-0.7088,-0.6523,-0.4916,-0.3604,-0.3482,-0.2827,-0.2613,-0.3315,-0.4105,-0.5093,-0.638,-0.717,0.0,0.0,0.0,0.0,-0.7461,-0.7782,-0.8051,-0.8255,-0.8803,-0.9053,-0.8911,-0.9157,-0.9076,-0.8531,-0.8531,-0.8333,-0.7988,-0.8328,-0.8683,-0.9012,-0.9357,-0.9786,-1.0297,-1.0297,-1.0431,-1.0621,-1.0621,-1.0499,-1.0417,-1.0346,-1.0319,-1.0403,-1.0189,-1.0198,-1.0362,-1.0806,-1.0529,-1.0052,-1.0343,-1.0757,-1.1194,-1.1451,-1.2383,-1.3318,-1.3219,-1.4527,-1.5965,-1.5804,-1.6393,-1.71,-1.7477,-1.6399,-1.5482,-1.634,-1.6187,-1.6021,-1.6452,-1.71,-1.7582,-1.7582,-1.7582,-1.7515,-1.7387,-1.7141,-1.6941,-1.6734,-1.68,-1.6867,-1.6867,-1.6961,-1.6974,-1.6874,-1.6867,-1.674,-1.6446,-1.66,-1.654,-1.6159,-1.6506,-1.662,-1.6433,-1.6714,-1.6964,-1.7156,-1.7316,-1.7562,-1.7999,-1.8321,-1.8591,-0.6719,-0.6947,-0.7265,-0.8228,-0.9184,-0.9892,-1.0118,-1.1061,-1.1508,-1.0082,-0.9719,-0.9235,0.0,0.0,-0.5428,-0.4933,-0.4042,-0.3515,-0.3922,-0.4057,-0.4771,0.0,0.0,0.0,0.0,0.0,0.0,-0.776,0.0,-0.8811,-0.9114,-0.9434,-0.9422,-0.9137,-0.8875,-0.8542,-0.8002,-0.7992,-0.7988,-0.7988,-0.8335,-0.8505,-0.8546,-0.8867,-0.9303,-0.977,-0.977,-1.0092,-1.0608,-1.0608,-1.0598,-1.0616,-1.0426,-1.0469,-1.0611,-1.0407,-1.0336,-1.0336,-1.0391,-1.0238,-1.0202,-1.1086,-1.141,-1.1622,-1.2359,-1.3195,-1.3873,-1.3636,-1.4916,-1.6233,-1.585,-1.5872,-1.6283,-1.7305,-1.5844,-1.4815,-1.7067,-1.669,-1.6252,-1.7318,-1.7582,-1.7582,-1.7582,-1.7582,-1.7582,-1.7582,-1.7582,-1.7382,-1.682,-1.6994,-1.7226,-1.7226,-1.7467,-1.7521,-1.7246,-1.7226,-1.7099,-1.6747,-1.674,-1.674,-1.6707,-1.6734,-1.674,-1.6727,-1.7072,-1.7333,-1.7526,-1.7827,-1.8117,-1.8335,-1.8642,-1.8796,-0.7163,-0.7831,-0.8411,-0.834,-0.9365,-1.0305,-1.0204,-1.0293,-1.027,-0.9879,-0.8567,-0.7336,0.0,0.0,0.0,-0.525,-0.4184,0.0,-0.3665,-0.3691,0.0,-0.5779,0.0,-0.7789,-0.8694,-0.9022,0.0,0.0,-0.9146,-0.9316,-0.9685,-0.9392,-0.9242,-0.9302,-0.8743,-0.8363,-0.8211,-0.8096,-0.7988,-0.7988,-0.81,-0.8326,-0.8712,-0.8818,-0.9145,-0.9636,-0.9636,-0.9976,-1.0457,-1.0457,-1.0612,-1.0811,-1.0759,-1.0768,-1.0787,-1.0621,-1.054,-1.061,-1.1316,-1.1196,-1.0893,-1.1872,-1.2353,-1.2701,-1.3361,-1.3932,-1.4392,-1.4581,-1.555,-1.6374,-1.5295,-1.6468,-1.7695,-1.7017,-1.6465,-1.619,-1.6579,-1.6422,-1.6205,-1.633,-1.7041,-1.7582,-1.7582,-1.7582,-1.7582,-1.7582,-1.7582,-1.7528,-1.7375,-1.7428,-1.7521,-1.7521,-1.7542,-1.7555,-1.7475,-1.7521,-1.74,-1.7105,-1.7241,-1.7161,-1.6727,-1.7128,-1.7261,-1.7092,-1.7373,-1.7639,-1.7848,-1.7983,-1.8238,-1.8664,-1.8752,-1.8921,-0.754,-0.7892,-0.821,-0.8423,-0.9482,-1.0437,-1.0092,-1.0519,-1.0605,-0.9439,-0.8369,0.0,0.0,0.0,0.0,0.0,0.0,0.0,-0.4671,-0.4659,-0.5217,0.0,-0.7331,0.0,-0.9267,-0.9639,-0.98,0.0,-0.9856,-0.9889,-1.0084,-0.9784,-0.9534,-0.9414,-0.8764,-0.8385,-0.8323,-0.8116,-0.7988,-0.7988,-0.7988,-0.8137,-0.8432,-0.8432,-0.873,-0.9274,0.0,-0.992,-1.0413,-1.0659,-1.0835,-1.1019,-1.0929,-1.0953,-1.099,-1.073,-1.0859,-1.1315,-1.2086,-1.2337,-1.2369,-1.2907,-1.3214,-1.3505,-1.4174,-1.4525,-1.4741,-1.4731,-1.527,-1.5745,-1.5315,-1.6048,-1.7012,-1.7346,-1.672,-1.6231,-1.7084,-1.6782,-1.6392,-1.6615,-1.7153,-1.7582,-1.7582,-1.7582,-1.7582,-1.7582,-1.7582,-1.7582,-1.7582,-1.7582,-1.7582,-1.7582,-1.7582,-1.7582,-1.7582,-1.7582,-1.7515,-1.7407,-1.7548,-1.7435,-1.7101,-1.7408,-1.7508,-1.7393,-1.7502,-1.7816,-1.817,-1.817,-1.848,-1.9001,-1.9001,-1.9103,-0.7842,-0.7749,-0.7631,-0.8491,-0.9669,-1.0441,-0.99,-1.0937,-1.1312,-0.8939,0.0,-0.7902,-0.6172,-0.6061,-0.618,-0.5916,0.0,-0.6503,-0.6215,-0.6146,-0.6575,-0.7951,-0.8099,-0.8588,-0.9879,-1.0219,-1.0395,-1.047,-1.0443,-1.0441,-1.0398,-1.0222,-0.9926,-0.935,-0.8804,-0.8421,-0.835,-0.8126,-0.7988,-0.7988,-0.7988,-0.7988,-0.7988,-0.7988,-0.8237,-0.8726,0.0,0.0,-1.0364,-1.085,-1.1149,-1.1179,-1.1005,-1.1042,-1.1151,-1.0934,-1.1308,-1.2078,-1.2801,-1.3449,-1.3952,-1.3997,-1.4024,-1.4192,-1.487,-1.5005,-1.4878,-1.4759,-1.4855,-1.5152,-1.5677,-1.5652,-1.5977,-1.792,-1.6935,-1.6123,-1.8099,-1.7489,-1.6736,-1.753,-1.7609,-1.7582,-1.7582,-1.7582,-1.7582,-1.7582,-1.7582,-1.7582,-1.7582,-1.7582,-1.7582,-1.7582,-1.7582,-1.7582,-1.7582,-1.7582,-1.7582,-1.7582,-1.7582,-1.7582,-1.7582,-1.7582,-1.7582,-1.7582,-1.7582,-1.7845,-1.8422,-1.8422,-1.8691,-1.9279,-1.9279,-1.9279,-0.828,-0.8499,-0.8659,-0.883,-0.9868,-1.0635,-0.9958,-0.9839,0.0,0.0,0.0,-0.6411,-0.6165,-0.6082,-0.6232,-0.6757,0.0,0.0,0.0,0.0,-0.6467,0.0,0.0,0.0,0.0,0.0,0.0,0.0,0.0,0.0,-1.0719,-1.0293,-0.9688,-0.8837,-0.86,-0.8469,-0.8445,-0.8177,-0.7988,-0.7988,-0.7988,-0.7988,-0.7988,-0.7988,-0.8038,-0.8187,0.0,0.0,-0.9772,-1.0314,-1.0801,-1.1194,-1.1156,-1.1165,-1.1282,-1.1895,-1.205,-1.222,-1.3815,-1.4343,-1.4383,-1.4943,-1.4969,-1.4915,-1.5485,-1.5039,-1.4612,-1.5937,-1.6189,-1.618,-1.6386,-1.756,-1.8442,-1.7851,-1.8147,-1.8672,-1.8785,-1.8251,-1.7752,-1.7922,-1.7756,-1.7582,-1.7582,-1.7582,-1.7582,-1.7582,-1.7582,-1.7582,-1.7582,-1.7582,-1.7582,-1.7582,-1.7582,-1.7582,-1.7582,-1.7582,-1.7582,-1.7582,-1.7582,-1.7582,-1.7582,-1.7582,-1.7582,-1.7582,-1.7582,-1.7845,-1.8422,-1.8422,-1.8691,-1.9279,-1.9279,-1.9279,-0.8648,-0.8705,-0.8594,-0.9034,-0.961,-0.9768,-0.8788,0.0,0.0,0.0,-0.7011,-0.6483,-0.6322,0.0,0.0,0.0,0.0,0.0,0.0,0.0,0.0,0.0,0.0,0.0,0.0,0.0,0.0,0.0,0.0,0.0,-1.0473,-0.9707,-0.9164,-0.8832,-0.8679,-0.8564,-0.8482,-0.834,-0.8231,-0.816,-0.8235,-0.8231,-0.816,-0.816,-0.8116,-0.8038,0.0,0.0,-0.9677,-1.0462,-1.0949,-1.1243,-1.1683,-1.1829,-1.1932,-1.27,-1.3154,-1.3547,-1.4399,-1.4886,-1.5189,-1.5477,-1.5424,-1.5244,-1.5518,-1.512,-1.4841,-1.5866,-1.5995,-1.6045,-1.6827,-1.7737,-1.8409,-1.8467,-1.8946,-1.9285,-1.8985,-1.8641,-1.8402,-1.831,-1.8156,-1.8003,-1.7849,-1.7822,-1.7769,-1.7609,-1.7582,-1.7582,-1.7582,-1.7582,-1.7582,-1.7582,-1.7582,-1.7582,-1.7582,-1.7582,-1.7582,-1.7582,-1.7582,-1.7582,-1.7582,-1.7582,-1.7582,-1.7582,-1.7582,-1.7845,-1.8422,-1.8422,-1.8691,-1.9279,-1.9279,-1.9279,-0.8984,-0.8813,-0.8521,-0.9224,-0.9245,-0.8856,-0.7682,-0.7838,0.0,0.0,-0.6613,-0.6721,-0.6501,0.0,-0.6101,0.0,0.0,0.0,0.0,0.0,0.0,0.0,0.0,0.0,0.0,0.0,0.0,0.0,0.0,0.0,0.0,-0.9198,-0.8815,-0.8878,-0.8791,-0.8652,-0.8533,-0.8499,-0.8425,-0.8368,-0.8428,-0.8425,-0.8368,-0.8337,-0.8204,-0.8139,0.0,0.0,0.0,-1.0752,-1.1194,-1.1292,-1.2078,-1.2419,-1.2516,-1.3426,-1.4154,-1.4736,-1.4879,-1.5309,-1.5784,-1.5784,-1.5671,-1.5491,-1.5491,-1.5239,-1.5113,-1.5878,-1.5828,-1.5908,-1.7473,-1.7972,-1.8257,-1.9277,-1.9412,-1.9305,-1.9065,-1.8965,-1.8858,-1.8631,-1.8537,-1.8417,-1.8129,-1.8089,-1.7982,-1.7729,-1.7682,-1.7655,-1.7589,-1.7582,-1.7582,-1.7582,-1.7582,-1.7582,-1.7582,-1.7582,-1.7582,-1.7582,-1.7582,-1.7582,-1.7582,-1.7582,-1.7582,-1.7582,-1.7582,-1.7845,-1.8318,-1.837,-1.8691,-1.9227,-1.9272,-1.9279,-0.9164,-0.9271,-0.9236,-0.939,-0.9167,-0.8679,-0.7614,0.0,0.0,-0.6665,-0.6307,-0.6196,-0.653,-0.616,-0.6013,0.0,0.0,0.0,0.0,0.0,0.0,0.0,0.0,0.0,0.0,0.0,0.0,0.0,0.0,0.0,0.0,-0.9239,-0.8868,-0.8885,-0.8791,-0.8703,-0.8689,-0.8554,-0.8476,-0.8462,-0.8476,-0.8476,-0.8459,-0.8381,-0.8313,-0.8343,0.0,0.0,0.0,-1.0752,-1.1194,-1.1292,-1.2078,-1.2419,-1.2565,-1.4058,-1.464,-1.479,-1.5452,-1.573,-1.5784,-1.5784,-1.5764,-1.5744,-1.5744,-1.5298,-1.5091,-1.6924,-1.6869,-1.6744,-1.8702,-1.9383,-1.9641,-1.976,-1.9559,-1.9417,-1.9332,-1.9112,-1.8918,-1.8885,-1.8671,-1.8484,-1.8457,-1.845,-1.8343,-1.7995,-1.7949,-1.7903,-1.7615,-1.7582,-1.7582,-1.7582,-1.7582,-1.7582,-1.7582,-1.7582,-1.7582,-1.7582,-1.7582,-1.7582,-1.7582,-1.7582,-1.7582,-1.7582,-1.7582,-1.7747,-1.8016,-1.8272,-1.8586,-1.8921,-1.9175,-1.9279,-0.9215,-0.9361,-0.9328,-0.9397,-0.9018,-0.8459,-0.7685,0.0,0.0,-0.7353,-0.7274,-0.726,-0.7296,-0.6772,-0.6379,0.0,0.0,0.0,0.0,0.0,0.0,0.0,0.0,0.0,0.0,0.0,0.0,0.0,0.0,0.0,0.0,-0.9202,-0.8841,-0.8804,-0.8832,-0.876,-0.8574,-0.8696,-0.871,-0.8621,-0.8713,-0.871,-0.8618,-0.856,-0.8643,-0.8823,0.0,0.0,0.0,-1.0904,-1.1487,-1.198,-1.2748,-1.3383,-1.3937,-1.5206,-1.5553,-1.5423,-1.5936,-1.5979,-1.5784,-1.5784,-1.5784,-1.5784,-1.5784,-1.5588,-1.5725,-1.7357,-1.7635,-1.7733,-1.9415,-1.9846,-1.98,-1.98,-1.9579,-1.9412,-1.9593,-1.9533,-1.9452,-1.9452,-1.9359,-1.9165,-1.8811,-1.8751,-1.8591,-1.8062,-1.7995,-1.7882,-1.7622,-1.7582,-1.7582,-1.7582,-1.7582,-1.7582,-1.7582,-1.7582,-1.7582,-1.7582,-1.7582,-1.7312,-1.6611,-1.6558,-1.6558,-1.6558,-1.6558,-1.7047,-1.8016,-1.8272,-1.8593,-1.8928,-1.9175,-1.9279,-0.8949,-0.9224,-0.9334,-0.932,-0.8862,-0.8275,0.0,0.0,0.0,-0.7645,-0.7873,-0.7983,-0.7698,-0.7198,-0.6744,0.0,0.0,0.0,0.0,0.0,0.0,0.0,0.0,0.0,0.0,0.0,0.0,0.0,0.0,0.0,0.0,-0.9443,-0.9057,-0.8777,-0.8838,-0.8791,-0.8618,-0.8832,-0.8828,-0.8777,-0.8834,-0.8828,-0.8777,-0.873,-0.8913,0.0,0.0,0.0,0.0,-1.1173,-1.1683,-1.2024,-1.3178,-1.3997,-1.4679,-1.5706,-1.5994,-1.6005,-1.6299,-1.6206,-1.5972,-1.6059,-1.6032,-1.5979,-1.6066,-1.6086,-1.6359,-1.7649,-1.8288,-1.8895,-2.0074,-2.0147,-1.9947,-2.004,-1.984,-1.9659,-1.9773,-1.9867,-1.99,-1.982,-1.98,-1.9666,-1.9259,-1.9112,-1.8885,-1.8328,-1.8249,-1.8109,-1.7769,-1.7796,-1.7782,-1.7602,-1.7742,-1.7776,-1.7595,-1.7582,-1.7582,-1.7582,-1.7582,-1.7298,-1.6524,-1.6443,-1.6436,-1.6524,-1.6443,-1.6882,-1.7859,-1.8167,-1.8478,-1.89,-1.9114,-1.9175,-0.8411,-0.893,-0.9351,-0.9251,-0.8763,-0.8153,0.0,0.0,0.0,-0.725,-0.7668,-0.7927,-0.7334,-0.7219,-0.6988,-0.6416,0.0,0.0,0.0,0.0,0.0,0.0,0.0,0.0,0.0,0.0,0.0,0.0,0.0,0.0,0.0,0.0,-0.9641,-0.893,-0.8791,-0.8784,-0.8875,-0.8881,-0.8885,-0.8881,-0.8885,-0.8885,-0.8875,-0.8777,0.0,0.0,0.0,0.0,0.0,-1.1722,-1.1785,-1.0998,-1.3082,-1.406,-1.4382,-1.5189,-1.5833,-1.6306,-1.66,-1.6513,-1.6319,-1.6607,-1.6506,-1.6319,-1.6607,-1.67,-1.6881,-1.7769,-1.9078,-2.0281,-2.0588,-2.0454,-2.0301,-2.0601,-2.0441,-2.0147,-1.986,-2.0027,-2.014,-1.9853,-1.98,-1.98,-1.9793,-1.9553,-1.9259,-1.8958,-1.8918,-1.8648,-1.8062,-1.8297,-1.825,-1.7649,-1.8123,-1.8237,-1.7635,-1.7582,-1.7582,-1.7582,-1.7582,-1.7722,-1.7975,-1.7742,-1.7729,-1.7982,-1.7736,-1.7582,-1.7582,-1.7852,-1.8326,-1.8877,-1.8907,-1.8921,-0.7824,-0.8089,-0.8272,-0.8126,-0.7719,-0.7316,-0.7173,0.0,0.0,-0.718,-0.7534,-0.7705,-0.7272,-0.7184,-0.6992,-0.6416,-0.63,0.0,0.0,0.0,0.0,0.0,0.0,0.0,0.0,0.0,0.0,0.0,0.0,0.0,0.0,0.0,-0.8839,-0.8774,-0.8733,-0.8733,-0.8781,-0.8831,-0.8885,-0.8885,-0.8885,-0.8885,-0.8937,-0.927,0.0,0.0,0.0,0.0,0.0,-1.1224,-1.1895,-1.255,-1.3918,-1.5039,-1.5982,-1.6491,-1.6647,-1.6613,-1.6907,-1.6737,-1.6319,-1.6613,-1.6513,-1.6326,-1.662,-1.6847,-1.7373,-1.8811,-2.0007,-2.0855,-2.0949,-2.0755,-2.0561,-2.0655,-2.0448,-2.0207,-2.0114,-2.0327,-2.0448,-2.0154,-2.0094,-2.0034,-1.9833,-1.9559,-1.9265,-1.8965,-1.8925,-1.8784,-1.8404,-1.843,-1.8417,-1.8223,-1.8377,-1.8243,-1.7635,-1.7776,-1.7809,-1.7595,-1.7582,-1.7305,-1.6583,-1.6502,-1.6496,-1.6536,-1.6496,-1.6925,-1.7849,-1.8171,-1.8636,-1.9192,-1.9156,-1.9055,0.0,-0.7533,-0.7709,-0.7624,-0.7261,0.0,0.0,0.0,0.0,0.0,0.0,-0.7722,-0.7276,-0.7184,-0.6992,-0.6416,-0.63,0.0,0.0,0.0,0.0,0.0,0.0,0.0,0.0,0.0,0.0,0.0,0.0,0.0,0.0,0.0,-0.8913,-0.8788,-0.8682,-0.8679,-0.8794,-0.8838,-0.8885,-0.8885,-0.8885,-0.8854,-0.8852,0.0,0.0,0.0,0.0,0.0,0.0,-1.1254,-1.2061,-1.2829,-1.427,-1.5568,-1.6596,-1.6825,-1.6881,-1.6914,-1.7259,-1.7052,-1.6703,-1.6941,-1.6914,-1.6867,-1.7388,-1.7669,-1.8143,-1.97,-2.0601,-2.1109,-2.1109,-2.0975,-2.0842,-2.0842,-2.0695,-2.0535,-2.0421,-2.0628,-2.0748,-2.0454,-2.0401,-2.0341,-2.016,-1.98,-1.9506,-1.9432,-1.9232,-1.9025,-1.8844,-1.8824,-1.8738,-1.851,-1.8691,-1.8577,-1.7976,-1.7996,-1.7916,-1.7602,-1.7582,-1.7364,-1.6873,-1.6772,-1.6816,-1.7031,-1.6936,-1.7306,-1.8217,-1.8646,-1.8954,-1.9126,-1.9306,-1.9195,0.0,0.0,0.0,0.0,0.0,0.0,0.0,0.0,0.0,0.0,0.0,0.0,0.0,-0.7142,-0.6953,-0.6377,-0.631,0.0,0.0,0.0,0.0,0.0,0.0,0.0,0.0,0.0,0.0,0.0,0.0,0.0,0.0,0.0,0.0,-0.8916,-0.8625,-0.8618,-0.8878,-0.8885,-0.8885,-0.8885,-0.8871,-0.8849,-0.871,0.0,0.0,0.0,0.0,0.0,0.0,-1.1549,-1.2174,-1.2076,-1.4271,-1.5671,-1.651,-1.651,-1.682,-1.7266,-1.7488,-1.744,-1.7246,-1.7514,-1.7562,-1.7756,-1.8677,-1.8958,-1.9199,-2.0374,-2.0902,-2.1109,-2.1109,-2.1109,-2.1109,-2.1109,-2.1109,-2.1029,-2.0735,-2.0902,-2.1022,-2.0735,-2.0675,-2.0675,-2.0675,-2.0207,-1.9913,-2.0167,-1.974,-1.945,-1.943,-1.9424,-1.9216,-1.8611,-1.9045,-1.9138,-1.8571,-1.8215,-1.7916,-1.7635,-1.7635,-1.7889,-1.8437,-1.8196,-1.831,-1.8878,-1.8651,-1.8524,-1.8524,-1.9093,-1.9261,-1.8932,-1.9268,-1.9241,0.0,0.0,0.0,0.0,0.0,0.0,0.0,0.0,0.0,0.0,0.0,0.0,0.0,0.0,-0.6451,0.0,0.0,0.0,0.0,0.0,0.0,0.0,0.0,0.0,0.0,0.0,0.0,0.0,0.0,0.0,0.0,0.0,0.0,-0.8757,-0.8476,-0.852,-0.8878,-0.8885,-0.8885,-0.8881,-0.8818,-0.8747,-0.8706,0.0,0.0,0.0,0.0,0.0,-0.944,-1.0716,-1.1867,-1.2923,-1.4709,-1.6209,-1.7324,-1.7324,-1.7377,-1.7548,-1.7555,-1.744,-1.7213,-1.728,-1.7454,-1.7796,-1.8925,-1.9265,-1.9506,-2.0675,-2.1056,-2.1109,-2.1109,-2.1109,-2.1109,-2.1109,-2.1109,-2.1029,-2.0735,-2.0902,-2.1022,-2.0735,-2.0675,-2.0675,-2.0675,-2.0374,-2.008,-1.9927,-1.9786,-1.9619,-1.9457,-1.9424,-1.9377,-1.9178,-1.9343,-1.9219,-1.8851,-1.8758,-1.8435,-1.7916,-1.815,-1.8237,-1.8102,-1.8297,-1.8444,-1.8591,-1.8744,-1.8824,-1.8824,-1.9233,-1.934,-1.9273,-1.934,-1.9219,0.0,0.0,0.0,0.0,0.0,0.0,0.0,0.0,0.0,0.0,0.0,0.0,0.0,0.0,0.0,0.0,0.0,0.0,0.0,0.0,0.0,0.0,0.0,0.0,0.0,0.0,0.0,0.0,0.0,0.0,0.0,0.0,0.0,0.0,-0.8486,-0.8554,-0.8878,-0.8801,-0.8764,-0.8832,-0.8679,-0.857,-0.8509,0.0,0.0,0.0,0.0,0.0,-0.9133,-1.089,-1.2189,-1.3295,-1.5147,-1.6569,-1.7569,-1.7435,-1.7468,-1.7582,-1.7582,-1.7475,-1.74,-1.74,-1.7455,-1.7802,-1.9005,-1.9424,-1.9613,-2.0782,-2.1109,-2.1109,-2.1109,-2.1109,-2.1109,-2.1109,-2.1109,-2.1069,-2.0909,-2.0995,-2.1062,-2.0909,-2.0875,-2.0875,-2.0875,-2.0628,-2.0381,-2.0227,-1.9973,-1.974,-1.9586,-1.9511,-1.9424,-1.9424,-1.9424,-1.9299,-1.9138,-1.9125,-1.8878,-1.829,-1.8404,-1.8477,-1.8395,-1.8604,-1.8751,-1.8891,-1.9178,-1.9325,-1.9325,-1.9486,-1.9566,-1.9559,-1.9491,-1.9279,0.0,0.0,0.0,0.0,0.0,0.0,0.0,0.0,0.0,0.0,0.0,0.0,0.0,0.0,0.0,0.0,0.0,0.0,0.0,0.0,0.0,0.0,0.0,0.0,0.0,0.0,0.0,0.0,0.0,0.0,0.0,0.0,0.0,0.0,-0.853,-0.8584,-0.8811,-0.8611,-0.8547,-0.8672,-0.8523,-0.8397,-0.8357,-0.8381,0.0,0.0,0.0,0.0,-0.9021,-1.1372,-1.2788,-1.3626,-1.5567,-1.684,-1.7555,-1.7353,-1.742,-1.7582,-1.7582,-1.7582,-1.7582,-1.7582,-1.7642,-1.7929,-1.9032,-1.9491,-1.9726,-2.0802,-2.1109,-2.1109,-2.1109,-2.1109,-2.1109,-2.1109,-2.1109,-2.1109,-2.1109,-2.1109,-2.1109,-2.1109,-2.1109,-2.1109,-2.1109,-2.0902,-2.0728,-2.0681,-2.0254,-1.992,-1.9873,-1.9653,-1.9499,-1.9499,-1.9459,-1.9432,-1.9432,-1.9392,-1.9158,-1.8657,-1.8624,-1.8738,-1.8978,-1.9032,-1.9178,-1.9491,-1.972,-1.9846,-1.98,-1.98,-1.978,-1.9726,-1.9486,-1.9392,-0.8671,-0.8321,-0.7816,0.0,0.0,0.0,0.0,0.0,0.0,0.0,0.0,0.0,0.0,0.0,0.0,0.0,0.0,0.0,0.0,0.0,0.0,0.0,0.0,0.0,0.0,0.0,0.0,0.0,0.0,0.0,0.0,0.0,0.0,0.0,0.0,-0.8384,-0.855,-0.8506,-0.8492,-0.8516,-0.837,-0.8353,-0.8442,-0.8211,-0.8303,0.0,0.0,-0.893,-0.9779,-1.1374,-1.2842,-1.4132,-1.5713,-1.685,-1.7582,-1.7528,-1.7542,-1.7582,-1.7582,-1.7582,-1.7582,-1.7582,-1.7929,-1.8477,-1.9216,-1.9713,-2.0241,-2.0922,-2.1109,-2.1109,-2.1109,-2.1109,-2.1109,-2.1109,-2.1109,-2.1109,-2.1109,-2.1109,-2.1109,-2.1109,-2.1109,-2.1109,-2.1109,-2.1076,-2.0955,-2.0715,-2.0601,-2.0454,-2.0201,-2.0127,-2.01,-2.01,-1.988,-1.9733,-1.9733,-1.9506,-1.9383,-1.9296,-1.9232,-1.9252,-1.9299,-1.9533,-1.9686,-1.9733,-2.002,-2.0047,-1.98,-1.98,-1.9673,-1.9432,-1.945,-1.9499,-0.8433,-0.7978,-0.7605,-0.7068,0.0,0.0,0.0,0.0,0.0,0.0,0.0,0.0,0.0,0.0,0.0,0.0,0.0,0.0,0.0,0.0,0.0,0.0,0.0,0.0,0.0,0.0,0.0,0.0,0.0,0.0,0.0,0.0,0.0,0.0,0.0,0.0,-0.8367,-0.8282,-0.8286,-0.8367,-0.8218,-0.8225,-0.8367,-0.8306,-0.8438,0.0,0.0,-0.9131,-0.9923,-1.1923,-1.327,-1.4282,-1.6079,-1.7128,-1.7582,-1.7582,-1.7582,-1.7582,-1.7582,-1.7582,-1.7582,-1.7582,-1.7996,-1.8597,-1.9249,-1.9773,-2.0354,-2.0942,-2.1109,-2.1109,-2.1109,-2.1109,-2.1109,-2.1109,-2.1109,-2.1109,-2.1109,-2.1109,-2.1109,-2.1109,-2.1109,-2.1109,-2.1109,-2.1109,-2.1009,-2.0722,-2.0675,-2.0568,-2.0267,-2.0173,-2.0173,-2.0173,-2.0114,-2.0034,-2.0034,-1.9913,-1.97,-1.9444,-1.9424,-1.9432,-1.9593,-1.9726,-1.98,-1.98,-2.0241,-2.0327,-2.0034,-2.0034,-2.0047,-2.0067,-1.9746,-1.976,-0.8023,-0.7525,-0.7234,-0.6726,0.0,0.0,0.0,0.0,0.0,0.0,0.0,0.0,0.0,0.0,0.0,0.0,0.0,0.0,0.0,0.0,0.0,0.0,0.0,0.0,0.0,0.0,0.0,0.0,0.0,0.0,0.0,0.0,0.0,0.0,0.0,0.0,-0.8214,-0.8099,-0.8099,-0.8214,-0.8096,-0.8123,-0.8323,-0.8347,-0.8479,-0.8662,-0.8852,-0.9309,-1.0136,-1.244,-1.3762,-1.4497,-1.6488,-1.744,-1.7582,-1.7582,-1.7582,-1.7582,-1.7582,-1.7582,-1.7602,-1.7749,-1.8203,-1.8804,-1.9392,-1.998,-2.0535,-2.0982,-2.1109,-2.1109,-2.1109,-2.1109,-2.1109,-2.1109,-2.1109,-2.1109,-2.1109,-2.1109,-2.1109,-2.1109,-2.1109,-2.1109,-2.1109,-2.1109,-2.1036,-2.0808,-2.0775,-2.0695,-2.0468,-2.0434,-2.0434,-2.0434,-2.0374,-2.0307,-2.0241,-2.0173,-2.004,-1.9599,-1.9506,-1.9573,-1.9786,-1.9933,-2.0007,-2.0007,-2.0514,-2.0635,-2.0334,-2.0334,-2.0421,-2.0561,-2.0114,-2.006,-0.7775,-0.7403,-0.7006,-0.6467,-0.6041,0.0,-0.5126,-0.4863,0.0,-0.3683,0.0,0.0,0.0,0.0,0.0,0.0,0.0,0.0,0.0,0.0,0.0,0.0,0.0,0.0,0.0,0.0,0.0,0.0,0.0,0.0,0.0,0.0,0.0,0.0,0.0,0.0,-0.8008,-0.7995,-0.7995,-0.8005,-0.7995,-0.8123,-0.8316,-0.8133,-0.8228,-0.8545,-0.8932,-0.9615,-1.0597,-1.2866,-1.4214,-1.5114,-1.6863,-1.7562,-1.7582,-1.7582,-1.7582,-1.7582,-1.7582,-1.7582,-1.7675,-1.8237,-1.8824,-1.9412,-1.9993,-2.0581,-2.1056,-2.1096,-2.1109,-2.1109,-2.1109,-2.1109,-2.1109,-2.1109,-2.1109,-2.1109,-2.1109,-2.1109,-2.1109,-2.1109,-2.1109,-2.1109,-2.1109,-2.1109,-2.1102,-2.1082,-2.1076,-2.1069,-2.1049,-2.1049,-2.1049,-2.1049,-2.0808,-2.0535,-2.0254,-2.0173,-2.0153,-2.0113,-1.992,-1.978,-1.98,-2.0321,-2.0615,-2.0615,-2.0915,-2.0935,-2.0641,-2.0641,-2.0514,-2.02,-2.016,-2.0361,-0.7126,-0.6947,-0.6889,-0.6614,-0.6411,0.0,0.0,-0.4786,-0.481,-0.371,-0.4933,0.0,0.0,0.0,0.0,0.0,0.0,0.0,0.0,0.0,0.0,0.0,0.0,0.0,0.0,0.0,0.0,0.0,0.0,0.0,0.0,0.0,0.0,0.0,0.0,0.0,0.0,-0.7792,-0.7792,-0.7988,-0.7988,-0.8123,-0.832,-0.8211,-0.8292,-0.8531,-0.8682,-0.935,-1.0476,-1.2465,-1.3888,-1.5012,-1.6871,-1.7582,-1.7582,-1.7582,-1.7582,-1.7582,-1.7582,-1.7582,-1.7682,-1.8297,-1.8891,-1.9472,-2.0054,-2.0641,-2.1109,-2.1109,-2.1109,-2.1109,-2.1109,-2.1109,-2.1109,-2.1109,-2.1109,-2.1109,-2.1109,-2.1109,-2.1109,-2.1109,-2.1109,-2.1109,-2.1109,-2.1109,-2.1109,-2.1109,-2.1109,-2.1109,-2.1109,-2.1109,-2.1109,-2.1109,-2.1009,-2.0902,-2.0788,-2.0615,-2.0508,-2.0508,-2.0234,-2.0154,-2.0334,-2.0561,-2.0675,-2.0675,-2.0962,-2.0962,-2.0675,-2.0675,-2.0708,-2.0775,-2.0595,-2.0668,-0.6695,-0.6627,-0.6705,0.0,0.0,0.0,-0.4858,-0.4827,-0.4752,-0.374,-0.4755,0.0,0.0,0.0,0.0,0.0,0.0,0.0,0.0,0.0,0.0,0.0,0.0,0.0,0.0,0.0,0.0,0.0,0.0,0.0,0.0,0.0,0.0,0.0,0.0,0.0,0.0,-0.7563,-0.7684,-0.7988,-0.8187,-0.8242,-0.8197,-0.8197,-0.8252,-0.8343,-0.8701,-0.9349,-1.029,-1.241,-1.4121,-1.5442,-1.6689,-1.7312,-1.7455,-1.7549,-1.7582,-1.7582,-1.7582,-1.7582,-1.7716,-1.851,-1.9038,-1.9512,-2.0281,-2.0788,-2.1109,-2.1109,-2.1109,-2.1109,-2.1109,-2.1109,-2.1109,-2.1109,-2.1109,-2.1109,-2.1109,-2.1109,-2.1109,-2.1109,-2.1109,-2.1109,-2.1109,-2.1109,-2.1109,-2.1109,-2.1109,-2.1109,-2.1109,-2.1109,-2.1109,-2.1109,-2.1109,-2.1109,-2.1109,-2.0929,-2.0815,-2.0815,-2.0621,-2.0561,-2.0675,-2.0762,-2.0815,-2.0815,-2.1009,-2.1009,-2.0815,-2.0815,-2.0915,-2.1109,-2.0909,-2.0915,-0.6698,-0.6488,0.0,0.0,0.0,0.0,-0.5874,-0.4916,-0.4041,-0.3709,0.0,0.0,0.0,0.0,0.0,0.0,0.0,0.0,0.0,0.0,0.0,0.0,0.0,0.0,0.0,0.0,0.0,0.0,0.0,0.0,0.0,0.0,0.0,0.0,0.0,0.0,0.0,-0.7313,-0.773,-0.7992,-0.8528,-0.8531,-0.7988,-0.7988,-0.7988,-0.8038,-0.9133,-0.9726,-1.0133,-1.2888,-1.509,-1.6666,-1.6403,-1.6663,-1.7239,-1.7475,-1.7582,-1.7582,-1.7582,-1.7582,-1.7782,-1.9035,-1.9424,-1.9586,-2.0755,-2.1109,-2.1109,-2.1109,-2.1109,-2.1109,-2.1109,-2.1109,-2.1109,-2.1109,-2.1109,-2.1109,-2.1109,-2.1109,-2.1109,-2.1109,-2.1109,-2.1109,-2.1109,-2.1109,-2.1109,-2.1109,-2.1109,-2.1109,-2.1109,-2.1109,-2.1109,-2.1109,-2.1109,-2.1109,-2.1109,-2.1109,-2.1109,-2.1109,-2.1109,-2.0982,-2.0688,-2.0955,-2.1109,-2.1109,-2.1109,-2.1109,-2.1109,-2.1109,-2.1109,-2.1109,-2.1109,-2.1109,-0.646,0.0,0.0,0.0,0.0,0.0,0.0,-0.6332,0.0,0.0,0.0,0.0,0.0,0.0,0.0,0.0,0.0,0.0,0.0,0.0,0.0,0.0,0.0,0.0,0.0,0.0,0.0,0.0,0.0,0.0,0.0,0.0,0.0,0.0,0.0,0.0,0.0,0.0,-0.7769,-0.8581,-0.8726,-0.8531,-0.7988,-0.7988,-0.7988,-0.8038,-0.873,-0.9305,-0.9921,-1.2999,-1.5017,-1.6279,-1.6957,-1.7312,-1.7514,-1.7549,-1.7582,-1.7582,-1.7582,-1.7582,-1.7782,-1.9035,-1.9424,-1.9586,-2.0755,-2.1109,-2.1109,-2.1109,-2.1109,-2.1109,-2.1109,-2.1109,-2.1109,-2.1109,-2.1109,-2.1109,-2.1109,-2.1109,-2.1109,-2.1109,-2.1109,-2.1109,-2.1109,-2.1109,-2.1109,-2.1109,-2.1289,-2.1423,-2.1423,-2.1236,-2.1189,-2.1396,-2.1236,-2.1196,-2.1403,-2.1229,-2.1109,-2.1109,-2.1109,-2.1069,-2.0982,-2.1062,-2.1109,-2.1109,-2.1109,-2.1109,-2.1109,-2.1109,-2.1109,-2.1109,-2.1109,-2.1109,-0.6583,0.0,0.0,0.0,0.0,0.0,0.0,0.0,0.0,0.0,0.0,0.0,0.0,0.0,0.0,0.0,0.0,0.0,0.0,0.0,0.0,0.0,0.0,0.0,0.0,0.0,0.0,0.0,0.0,0.0,0.0,0.0,0.0,0.0,0.0,0.0,0.0,0.0,0.0,-0.8683,-0.8992,-0.873,-0.7988,-0.7988,-0.7988,-0.8038,-0.8581,-0.9414,-1.0524,-1.2239,-1.3943,-1.5569,-1.6212,-1.6762,-1.7261,-1.7495,-1.7582,-1.7582,-1.7582,-1.7742,-1.8096,-1.9115,-1.9519,-1.9887,-2.0828,-2.1109,-2.1109,-2.1109,-2.1109,-2.1109,-2.1109,-2.1109,-2.1109,-2.1109,-2.1109,-2.1109,-2.1109,-2.1109,-2.1109,-2.1109,-2.1109,-2.1109,-2.1109,-2.1109,-2.1149,-2.1269,-2.1436,-2.1661,-2.1775,-2.147,-2.1396,-2.1762,-2.1463,-2.1356,-2.1601,-2.139,-2.1289,-2.1289,-2.1396,-2.1467,-2.1481,-2.1233,-2.1172,-2.1299,-2.1172,-2.1109,-2.1109,-2.1109,-2.1109,-2.1109,-2.1109,-2.1109,0.0,0.0,0.0,0.0,0.0,0.0,0.0,0.0,0.0,0.0,0.0,0.0,0.0,0.0,0.0,0.0,0.0,0.0,0.0,0.0,0.0,0.0,0.0,0.0,0.0,0.0,0.0,0.0,0.0,0.0,0.0,0.0,0.0,0.0,0.0,0.0,0.0,0.0,0.0,0.0,-0.9176,-0.8958,-0.7968,-0.7982,-0.8038,-0.8088,-0.8577,-0.9801,-1.1385,-1.0957,-1.2272,-1.4461,-1.472,-1.5542,-1.6713,-1.7375,-1.7582,-1.7589,-1.7615,-1.7989,-1.8557,-1.9199,-1.9766,-2.0307,-2.0922,-2.1109,-2.1109,-2.1109,-2.1109,-2.1109,-2.1109,-2.1109,-2.1109,-2.1109,-2.1109,-2.1109,-2.1109,-2.1109,-2.1109,-2.1109,-2.1129,-2.1142,-2.1116,-2.1156,-2.1289,-2.159,-2.1675,-2.1762,-2.1991,-2.177,-2.1769,-2.1991,-2.1829,-2.1655,-2.1655,-2.1655,-2.1648,-2.1614,-2.1824,-2.2054,-2.2079,-2.1487,-2.1262,-2.1607,-2.1299,-2.1109,-2.1109,-2.1109,-2.1109,-2.1109,-2.1136,-2.1149,0.0,0.0,0.0,0.0,0.0,0.0,0.0,0.0,0.0,0.0,0.0,0.0,0.0,0.0,0.0,0.0,0.0,0.0,0.0,0.0,0.0,0.0,0.0,0.0,0.0,0.0,0.0,0.0,0.0,0.0,0.0,0.0,0.0,0.0,0.0,0.0,-0.8458,-0.8249,-0.8394,0.0,-0.88,-0.8445,-0.7865,-0.7934,-0.8233,-0.8627,-0.8775,-0.927,-1.0126,-1.1252,-1.2054,-1.2807,-1.4887,-1.5917,-1.6272,-1.7239,-1.7582,-1.7615,-1.7862,-1.7982,-1.8317,-1.9366,-1.9793,-2.0047,-2.0862,-2.1109,-2.1109,-2.1109,-2.1109,-2.1109,-2.1109,-2.1109,-2.1109,-2.1109,-2.1109,-2.1109,-2.1109,-2.1109,-2.1109,-2.1109,-2.1296,-2.1383,-2.1149,-2.149,-2.1897,-2.2191,-2.2038,-2.1997,-2.2291,-2.2071,-2.2004,-2.2298,-2.2064,-2.1891,-2.1891,-2.1891,-2.1797,-2.1635,-2.1824,-2.2054,-2.2079,-2.1683,-2.1535,-2.1614,-2.1299,-2.1109,-2.1109,-2.1109,-2.1109,-2.1116,-2.1349,-2.1521,0.0,0.0,0.0,0.0,0.0,0.0,0.0,0.0,0.0,0.0,0.0,0.0,0.0,0.0,0.0,0.0,0.0,0.0,0.0,0.0,0.0,0.0,0.0,0.0,0.0,0.0,0.0,0.0,0.0,0.0,0.0,0.0,0.0,0.0,0.0,0.0,-0.8337,-0.8234,-0.8314,-0.8632,-0.8566,-0.8297,-0.7818,-0.7921,-0.8096,-0.8322,-0.8396,-0.8689,-0.9172,-1.0119,-1.0983,-1.2019,-1.405,-1.5237,-1.5965,-1.716,-1.7582,-1.7622,-1.7889,-1.8175,-1.8555,-1.9506,-1.9993,-2.0334,-2.0929,-2.1109,-2.1109,-2.1109,-2.1109,-2.1109,-2.1109,-2.1109,-2.1109,-2.1109,-2.1109,-2.1109,-2.1109,-2.1109,-2.1109,-2.1109,-2.1349,-2.1568,-2.1349,-2.1804,-2.2245,-2.2398,-2.2291,-2.2251,-2.2398,-2.2285,-2.2251,-2.2405,-2.2278,-2.2191,-2.2191,-2.2191,-2.2131,-2.1977,-2.2238,-2.2471,-2.2504,-2.2161,-2.1892,-2.1621,-2.1299,-2.1109,-2.1109,-2.1256,-2.1323,-2.1329,-2.1623,-2.1757,0.0,0.0,0.0,0.0,0.0,0.0,0.0,0.0,0.0,0.0,0.0,0.0,0.0,0.0,0.0,0.0,0.0,0.0,0.0,0.0,0.0,0.0,0.0,0.0,0.0,0.0,0.0,0.0,0.0,0.0,0.0,0.0,0.0,0.0,0.0,-0.6745,-0.7808,-0.8027,-0.8091,-0.805,-0.8265,-0.8184,-0.778,-0.7857,-0.7892,-0.7784,-0.7884,-0.8175,-0.8456,-0.8709,-0.9756,-1.1409,-1.2949,-1.427,-1.5555,-1.6996,-1.7542,-1.7635,-1.7942,-1.8388,-1.8895,-1.9351,-1.9851,-2.0338,-2.0621,-2.074,-2.0786,-2.1046,-2.1109,-2.1109,-2.1109,-2.1109,-2.1109,-2.1109,-2.1109,-2.1109,-2.1109,-2.1189,-2.1243,-2.1196,-2.143,-2.1728,-2.1829,-2.2131,-2.2418,-2.2418,-2.2465,-2.2478,-2.2425,-2.2465,-2.2498,-2.2498,-2.2498,-2.2472,-2.2418,-2.2465,-2.2472,-2.2418,-2.2699,-2.2862,-2.2828,-2.2553,-2.2183,-2.1651,-2.139,-2.1236,-2.1189,-2.1483,-2.1695,-2.1702,-2.1924,-2.2064,0.0,0.0,0.0,0.0,0.0,0.0,0.0,0.0,0.0,0.0,0.0,0.0,0.0,0.0,0.0,0.0,0.0,0.0,0.0,0.0,0.0,0.0,0.0,0.0,0.0,0.0,0.0,0.0,0.0,0.0,0.0,0.0,-0.5905,-0.6083,-0.6656,0.0,-0.7808,-0.783,-0.7838,-0.7842,-0.7668,-0.7591,-0.7628,-0.7648,-0.7648,-0.7638,-0.778,-0.788,-0.7966,-0.8561,-0.9221,-1.0085,-1.2383,-1.3814,-1.4757,-1.6613,-1.742,-1.7662,-1.8237,-1.8484,-1.8516,-1.8261,-1.83,-1.8606,-1.8988,-1.9171,-1.9553,-2.0786,-2.1109,-2.1109,-2.1109,-2.1109,-2.1109,-2.1109,-2.1109,-2.1109,-2.1109,-2.151,-2.179,-2.1608,-2.173,-2.2091,-2.2666,-2.2539,-2.2418,-2.2418,-2.2639,-2.2712,-2.2452,-2.2645,-2.2806,-2.2806,-2.2806,-2.2699,-2.2438,-2.2652,-2.2692,-2.2432,-2.2699,-2.2794,-2.2499,-2.2418,-2.2245,-2.1936,-2.1871,-2.1744,-2.1561,-2.1784,-2.1931,-2.1937,-2.2225,-2.2358,0.0,0.0,0.0,0.0,0.0,0.0,0.0,0.0,0.0,0.0,0.0,0.0,0.0,0.0,0.0,0.0,0.0,0.0,0.0,0.0,0.0,0.0,0.0,0.0,0.0,0.0,0.0,0.0,0.0,0.0,0.0,-0.5905,-0.626,-0.6656,-0.6962,0.0,-0.7408,-0.7408,-0.7453,-0.7586,-0.7341,-0.7322,-0.7468,-0.7383,-0.7438,-0.7607,-0.775,-0.7811,-0.7821,-0.822,-0.8832,-0.9743,-1.1451,-1.2946,-1.4339,-1.5777,-1.678,-1.7481,-1.8036,-1.7896,-1.751,-1.7947,-1.7661,-1.7393,-1.8545,-1.8945,-1.9297,-2.0716,-2.1109,-2.1109,-2.1109,-2.1109,-2.1109,-2.1109,-2.1236,-2.1356,-2.1356,-2.1563,-2.1804,-2.1997,-2.2138,-2.2365,-2.2786,-2.2752,-2.2665,-2.2665,-2.2779,-2.2752,-2.2452,-2.2679,-2.2799,-2.2632,-2.2766,-2.2812,-2.2679,-2.2786,-2.2806,-2.2672,-2.2786,-2.2806,-2.2672,-2.2665,-2.2525,-2.2231,-2.2071,-2.1924,-2.1797,-2.2084,-2.2225,-2.2231,-2.2532,-2.2665,0.0,0.0,0.0,0.0,0.0,0.0,0.0,0.0,0.0,0.0,0.0,0.0,0.0,0.0,0.0,0.0,0.0,0.0,0.0,0.0,0.0,0.0,0.0,0.0,0.0,0.0,0.0,0.0,0.0,0.0,-0.6349,-0.6349,-0.6567,-0.7095,-0.7095,-0.7095,-0.7095,-0.7095,-0.7156,-0.7312,-0.7149,-0.72,-0.7309,-0.7149,-0.7243,-0.7546,-0.7651,-0.7723,-0.777,-0.787,-0.8598,-0.9686,-1.0703,-1.2283,-1.4115,-1.512,-1.6266,-1.7387,-1.7862,-1.744,-1.6798,-1.7421,-1.7021,-1.6587,-1.7967,-1.8663,-1.9297,-2.0716,-2.1109,-2.1109,-2.1109,-2.1109,-2.1129,-2.1203,-2.139,-2.1655,-2.1737,-2.177,-2.1924,-2.2432,-2.2532,-2.2605,-2.2894,-2.2928,-2.2839,-2.2766,-2.2881,-2.2752,-2.2452,-2.2679,-2.2779,-2.2552,-2.2732,-2.2928,-2.2928,-2.2928,-2.2928,-2.2928,-2.2928,-2.2928,-2.2928,-2.2928,-2.2759,-2.2539,-2.2318,-2.2171,-2.2098,-2.2385,-2.2532,-2.2539,-2.2759,-2.2928,0.0,0.0,0.0,0.0,0.0,0.0,0.0,0.0,0.0,0.0,0.0,0.0,0.0,0.0,0.0,0.0,0.0,0.0,0.0,0.0,0.0,0.0,0.0,0.0,0.0,0.0,0.0,0.0,0.0,0.0,-0.7051,-0.7051,-0.7051,-0.7095,-0.7095,-0.7095,-0.7095,-0.7095,-0.7098,-0.7109,-0.7098,-0.7098,-0.7109,-0.7098,-0.7227,-0.7429,-0.7436,-0.7478,-0.7624,-0.7763,-0.8496,-0.9677,-1.0502,-1.2097,-1.4091,-1.4857,-1.617,-1.7609,-1.7876,-1.7567,-1.6835,-1.6122,-1.6075,-1.6369,-1.668,-1.7811,-1.9297,-2.0716,-2.1109,-2.1109,-2.1109,-2.1109,-2.1182,-2.1527,-2.1608,-2.1769,-2.2258,-2.2372,-2.2465,-2.2779,-2.2839,-2.2914,-2.2928,-2.2928,-2.2766,-2.2485,-2.2679,-2.2752,-2.2452,-2.2679,-2.2921,-2.2908,-2.2921,-2.2928,-2.2928,-2.2928,-2.2928,-2.2928,-2.2928,-2.2928,-2.2928,-2.2928,-2.2921,-2.2839,-2.2894,-2.2679,-2.2398,-2.2692,-2.2839,-2.2839,-2.2921,-2.2928,0.0,0.0,0.0,0.0,0.0,0.0,0.0,0.0,0.0,0.0,0.0,0.0,0.0,0.0,0.0,0.0,0.0,0.0,0.0,0.0,0.0,0.0,0.0,0.0,0.0,0.0,0.0,0.0,0.0,0.0,-0.7085,-0.7011,-0.7004,-0.7092,-0.7095,-0.7095,-0.7095,-0.7095,-0.7095,-0.7095,-0.7095,-0.7095,-0.7095,-0.7095,-0.7125,-0.7224,-0.7224,-0.7417,-0.7746,-0.7896,-0.8382,-0.9122,-0.9414,-1.0824,-1.2844,-1.3802,-1.5279,-1.6879,-1.7037,-1.658,-1.5864,-1.5008,-1.499,-1.5398,-1.652,-1.7867,-1.9297,-2.0716,-2.1109,-2.1109,-2.1109,-2.1109,-2.1182,-2.1547,-2.1762,-2.1937,-2.2331,-2.2418,-2.2505,-2.2806,-2.2928,-2.2928,-2.2928,-2.2928,-2.2894,-2.2719,-2.2792,-2.2894,-2.2719,-2.2799,-2.2928,-2.2928,-2.2928,-2.2928,-2.2928,-2.2928,-2.2928,-2.2928,-2.2928,-2.2928,-2.2928,-2.2928,-2.2953,-2.3153,-2.2966,-2.2812,-2.2706,-2.2812,-2.2928,-2.2928,-2.2928,-2.2928,-0.6841,0.0,0.0,0.0,0.0,0.0,0.0,0.0,0.0,0.0,0.0,0.0,0.0,0.0,0.0,0.0,0.0,0.0,0.0,0.0,0.0,0.0,0.0,0.0,0.0,0.0,0.0,0.0,0.0,0.0,-0.694,-0.691,-0.695,-0.7092,-0.7095,-0.7095,-0.7095,-0.7095,-0.7095,-0.7095,-0.7095,-0.7095,-0.7095,-0.7095,-0.7095,-0.7098,-0.7149,-0.7387,-0.7675,-0.7828,-0.821,-0.875,-0.8803,-1.0096,-1.2098,-1.3118,-1.4761,-1.6506,-1.6484,-1.6355,-1.61,-1.5212,-1.5418,-1.6213,-1.7354,-1.8588,-1.9877,-2.0849,-2.1109,-2.1109,-2.1109,-2.1182,-2.1336,-2.163,-2.1924,-2.2211,-2.2505,-2.2565,-2.2625,-2.2894,-2.2928,-2.2928,-2.2928,-2.2928,-2.2928,-2.2928,-2.2928,-2.2928,-2.2928,-2.2928,-2.2928,-2.2928,-2.2928,-2.2928,-2.2928,-2.2928,-2.2928,-2.2928,-2.2772,-2.2759,-2.2928,-2.2928,-2.2959,-2.3166,-2.3073,-2.2966,-2.2928,-2.2928,-2.2928,-2.2928,-2.2928,-2.2928,0.0,0.0,0.0,0.0,0.0,0.0,0.0,0.0,0.0,0.0,0.0,0.0,0.0,0.0,0.0,0.0,0.0,0.0,0.0,0.0,0.0,0.0,0.0,0.0,0.0,0.0,0.0,0.0,0.0,-0.6712,-0.6719,-0.6858,-0.6953,-0.7085,-0.7095,-0.7095,-0.7095,-0.7095,-0.7095,-0.7095,-0.7095,-0.7095,-0.7095,-0.7095,-0.7095,-0.7105,-0.7299,-0.7409,-0.7422,-0.7536,-0.797,-0.8605,-0.8709,-1.0043,-1.2029,-1.2869,-1.4692,-1.6621,-1.6254,-1.6864,-1.7655,-1.6619,-1.7422,-1.8823,-1.8957,-2.0005,-2.1109,-2.1109,-2.1109,-2.1109,-2.1109,-2.1323,-2.1681,-2.1904,-2.2191,-2.2485,-2.2786,-2.2921,-2.2928,-2.2928,-2.2928,-2.2928,-2.2928,-2.2928,-2.2928,-2.2928,-2.2928,-2.2928,-2.2928,-2.2928,-2.2928,-2.2928,-2.2928,-2.2928,-2.2928,-2.2928,-2.2928,-2.2928,-2.2592,-2.2565,-2.2928,-2.2879,-2.2954,-2.2968,-2.3193,-2.3193,-2.2968,-2.2879,-2.2928,-2.2928,-2.2928,-2.2928,-0.6836,0.0,0.0,0.0,0.0,0.0,0.0,0.0,0.0,0.0,0.0,0.0,0.0,0.0,0.0,0.0,0.0,0.0,0.0,0.0,0.0,0.0,0.0,0.0,0.0,0.0,0.0,0.0,0.0,-0.6959,-0.7173,-0.7119,-0.7007,-0.6947,-0.7045,-0.7095,-0.7095,-0.7095,-0.7095,-0.7095,-0.7095,-0.7095,-0.7095,-0.7095,-0.7095,-0.7098,-0.7139,-0.7204,-0.7224,-0.7489,-0.7777,-0.8011,-0.8049,-0.8864,-1.0268,-1.2687,-1.3763,-1.4315,-1.6374,-1.6973,-1.6669,-1.6427,-1.748,-1.8939,-1.9018,-2.0005,-2.1109,-2.1109,-2.1109,-2.1109,-2.1109,-2.1169,-2.1303,-2.1668,-2.1897,-2.2184,-2.2478,-2.2712,-2.2928,-2.2928,-2.2928,-2.2928,-2.2928,-2.2928,-2.2928,-2.2928,-2.2928,-2.2928,-2.2928,-2.2928,-2.2928,-2.2928,-2.2928,-2.2928,-2.2928,-2.2928,-2.2928,-2.2928,-2.2786,-2.2879,-2.3187,-2.32,-2.34,-2.3821,-2.3708,-2.3708,-2.3828,-2.318,-2.2928,-2.2928,-2.2928,-2.2928,-0.6974,-0.691,0.0,0.0,0.0,0.0,0.0,-0.7475,0.0,0.0,0.0,0.0,0.0,0.0,0.0,0.0,0.0,0.0,0.0,0.0,0.0,0.0,0.0,0.0,0.0,0.0,0.0,0.0,-0.7115,-0.7122,-0.7405,-0.717,-0.7028,-0.7112,-0.7031,-0.7038,-0.7095,-0.7095,-0.7095,-0.7095,-0.7095,-0.7095,-0.7095,-0.7095,-0.7132,-0.7234,-0.7125,-0.7132,-0.7251,-0.7431,-0.759,-0.7729,-0.7787,-0.8427,-0.9539,-1.1877,-1.2822,-1.3262,-1.579,-1.6834,-1.7016,-1.7247,-1.8504,-1.9877,-1.9877,-2.0462,-2.1109,-2.1109,-2.1109,-2.1109,-2.1109,-2.1109,-2.1216,-2.1637,-2.1864,-2.2098,-2.2512,-2.2739,-2.2928,-2.2928,-2.2928,-2.2928,-2.2928,-2.2928,-2.2928,-2.2928,-2.2928,-2.2928,-2.2928,-2.2928,-2.2928,-2.2928,-2.2928,-2.2928,-2.2928,-2.2928,-2.2919,-2.3046,-2.2933,-2.306,-2.3494,-2.3514,-2.3674,-2.4015,-2.3975,-2.3975,-2.4022,-2.3374,-2.2993,-2.2928,-2.2928,-2.2928,-0.7105,-0.7095,-0.7095,0.0,0.0,0.0,-0.7468,-0.755,-0.7645,0.0,0.0,0.0,0.0,0.0,0.0,0.0,0.0,0.0,0.0,0.0,0.0,0.0,0.0,0.0,0.0,0.0,0.0,-0.7216,-0.7179,-0.7261,-0.7412,-0.7136,-0.7115,-0.7409,-0.7132,-0.7011,-0.7122,-0.7122,-0.7112,-0.7095,-0.7095,-0.7095,-0.7095,-0.7095,-0.7214,-0.7336,-0.7156,-0.7217,-0.7346,-0.7346,-0.7448,-0.7614,-0.7756,-0.84,-0.9493,-1.1089,-1.2082,-1.2984,-1.5248,-1.688,-1.8066,-1.8808,-1.9971,-2.1109,-2.1109,-2.1109,-2.1109,-2.1109,-2.0982,-2.0912,-2.1046,-2.0976,-2.1052,-2.1804,-2.1964,-2.2138,-2.2692,-2.2839,-2.2928,-2.2928,-2.2928,-2.2928,-2.2928,-2.2928,-2.2928,-2.2928,-2.2928,-2.2928,-2.2928,-2.2928,-2.2928,-2.2928,-2.2928,-2.2879,-2.2913,-2.2913,-2.3033,-2.3307,-2.31,-2.3207,-2.3748,-2.3801,-2.3834,-2.3868,-2.4122,-2.4108,-2.3814,-2.3521,-2.3233,-2.3035,-2.3035,-2.3035,0.0,0.0,0.0,0.0,0.0,0.0,-0.7028,-0.7244,-0.7397,0.0,0.0,0.0,0.0,0.0,0.0,0.0,0.0,0.0,0.0,0.0,0.0,0.0,0.0,0.0,0.0,0.0,-0.788,-0.782,-0.7702,-0.759,-0.7429,-0.7434,-0.7438,-0.7419,-0.7434,-0.7424,-0.7326,-0.7326,-0.7261,-0.7095,-0.7095,-0.7095,-0.7095,-0.7095,-0.7112,-0.7139,-0.7109,-0.7112,-0.7139,-0.7139,-0.735,-0.7614,-0.7756,-0.8168,-0.9044,-1.2133,-1.2826,-1.2933,-1.7451,-1.8623,-1.8452,-1.9891,-2.0681,-2.1109,-2.1109,-2.1109,-2.1109,-2.1109,-2.0265,-1.9686,-2.0786,-2.0265,-1.9767,-2.1285,-2.1817,-2.2078,-2.2432,-2.2692,-2.2928,-2.2928,-2.2928,-2.2928,-2.2928,-2.2928,-2.2928,-2.2928,-2.2928,-2.2928,-2.2928,-2.2928,-2.2928,-2.2928,-2.2928,-2.2966,-2.3213,-2.324,-2.326,-2.3327,-2.3494,-2.3647,-2.3768,-2.3995,-2.4229,-2.4462,-2.4523,-2.4409,-2.4115,-2.3828,-2.3654,-2.3594,-2.3594,-2.3594,0.0,0.0,0.0,-0.7095,0.0,0.0,0.0,-0.7265,-0.737,0.0,0.0,0.0,0.0,0.0,0.0,0.0,0.0,0.0,0.0,0.0,0.0,0.0,0.0,0.0,0.0,0.0,-0.7988,-0.7988,-0.7921,-0.7862,-0.7712,-0.7638,-0.7597,-0.759,-0.7522,-0.7519,-0.759,-0.7444,-0.737,-0.7366,-0.7169,-0.7095,-0.7095,-0.7095,-0.7139,-0.7251,-0.7129,-0.7139,-0.7261,-0.7339,-0.7461,-0.7607,-0.7678,-0.8072,-0.8938,-1.1751,-1.2138,-1.2073,-1.7247,-1.8244,-1.7645,-2.0071,-2.0989,-2.1109,-2.1109,-2.1216,-2.1202,-2.0419,-1.9763,-1.9235,-1.9176,-1.917,-1.9502,-2.0497,-2.1516,-2.2285,-2.2572,-2.2759,-2.2928,-2.2928,-2.2928,-2.2928,-2.2928,-2.2928,-2.2928,-2.2928,-2.2928,-2.2928,-2.2928,-2.2928,-2.2926,-2.308,-2.3093,-2.322,-2.3521,-2.3547,-2.3607,-2.3754,-2.3908,-2.4055,-2.4195,-2.4342,-2.4489,-2.4636,-2.4636,-2.4563,-2.4422,-2.4269,-2.4055,-2.3774,-2.3774,-2.3774,0.0,0.0,0.0,0.0,0.0,-0.6726,0.0,0.0,0.0,0.0,0.0,0.0,0.0,0.0,0.0,0.0,0.0,0.0,0.0,0.0,0.0,0.0,0.0,0.0,0.0,0.0,-0.7928,-0.7985,-0.7938,-0.7931,-0.7985,-0.7814,-0.7736,-0.7851,-0.7624,-0.7614,-0.7851,-0.7621,-0.7533,-0.7597,-0.7346,-0.7152,-0.7095,-0.7095,-0.7207,-0.7322,-0.7224,-0.7255,-0.7429,-0.7536,-0.7614,-0.7645,-0.7675,-0.8123,-0.8981,-1.0992,-1.1339,-1.1585,-1.6547,-1.7502,-1.7149,-2.0125,-2.1109,-2.1109,-2.1109,-2.1085,-2.0825,-1.963,-1.8977,-1.8459,-1.7521,-1.8192,-1.9316,-1.9845,-2.1223,-2.2498,-2.2799,-2.2928,-2.2928,-2.2928,-2.2928,-2.2928,-2.2928,-2.2928,-2.2928,-2.2928,-2.2928,-2.2928,-2.2928,-2.2928,-2.2979,-2.3293,-2.3327,-2.3474,-2.3821,-2.3855,-2.3955,-2.4189,-2.4255,-2.4369,-2.4549,-2.4609,-2.4636,-2.4636,-2.4636,-2.4636,-2.4636,-2.4636,-2.4396,-2.3935,-2.3935,-2.3935,0.0,0.0,0.0,0.0,-0.5722,0.0,0.0,0.0,0.0,0.0,0.0,0.0,0.0,0.0,0.0,0.0,0.0,0.0,0.0,0.0,0.0,0.0,0.0,0.0,0.0,0.0,0.0,-0.7971,-0.7797,-0.7763,-0.7975,-0.7958,-0.7948,-0.7965,-0.7931,-0.7931,-0.7965,-0.7931,-0.7841,-0.76,-0.7563,-0.7404,-0.7095,-0.7095,-0.7105,-0.7129,-0.7292,-0.7402,-0.7429,-0.7536,-0.7675,-0.7801,-0.7887,-0.8315,-0.9078,-1.0714,-1.1897,-1.3153,-1.6725,-1.8066,-1.8559,-2.0456,-2.1109,-2.1109,-2.1109,-2.0221,-1.9331,-1.9315,-1.7527,-1.598,-1.7181,-1.7709,-1.8317,-1.979,-2.1302,-2.2498,-2.2799,-2.2928,-2.2928,-2.2928,-2.2928,-2.2928,-2.2928,-2.2928,-2.2928,-2.2928,-2.2928,-2.2928,-2.2928,-2.2928,-2.2979,-2.3293,-2.3327,-2.3547,-2.4108,-2.4155,-2.4168,-2.4202,-2.4442,-2.4482,-2.4262,-2.4496,-2.4636,-2.4636,-2.4636,-2.4636,-2.4636,-2.4636,-2.4603,-2.4536,-2.4536,-2.4536,0.0,0.0,0.0,0.0,0.0,0.0,-0.5081,0.0,-0.5099,0.0,0.0,0.0,0.0,0.0,0.0,0.0,0.0,0.0,0.0,0.0,0.0,0.0,0.0,0.0,0.0,0.0,0.0,0.0,0.0,-0.786,-0.7982,-0.7988,-0.7988,-0.7988,-0.8126,-0.8214,-0.8296,-0.8214,-0.8153,-0.8109,-0.7763,-0.7533,-0.74,-0.7176,-0.7146,-0.7278,-0.7343,-0.7421,-0.7516,-0.7662,-0.7756,-0.7828,-0.7931,-0.8356,-0.9099,-1.0722,-1.1516,-1.2329,-1.5582,-1.6479,-1.6536,-1.8151,-1.8722,-1.8722,-1.8722,-1.843,-1.7947,-1.7198,-1.6268,-1.5379,-1.5252,-1.6603,-1.8126,-1.884,-2.0897,-2.2712,-2.2839,-2.2928,-2.2928,-2.2928,-2.2928,-2.2928,-2.2928,-2.2928,-2.2928,-2.2928,-2.2928,-2.2928,-2.2928,-2.302,-2.3247,-2.3554,-2.3734,-2.4008,-2.4422,-2.4456,-2.4456,-2.4456,-2.4569,-2.4583,-2.4462,-2.4569,-2.4636,-2.4636,-2.4636,-2.4636,-2.4636,-2.4636,-2.4636,-2.4636,-2.4636,-2.4636,-0.5027,0.0,0.0,0.0,0.0,0.0,0.0,0.0,0.0,0.0,0.0,0.0,0.0,0.0,0.0,0.0,0.0,0.0,0.0,0.0,0.0,0.0,0.0,0.0,0.0,0.0,0.0,0.0,-0.787,0.0,-0.7985,-0.7988,-0.7988,-0.7988,-0.8191,-0.834,-0.8479,-0.8421,-0.8421,-0.8476,-0.8045,-0.7756,-0.7594,-0.7407,-0.7343,-0.7422,-0.7458,-0.7553,-0.7668,-0.7814,-0.7875,-0.7885,-0.7944,-0.8379,-0.9106,-1.0303,-1.0914,-1.1565,-1.4279,-1.5246,-1.5465,-1.6598,-1.698,-1.698,-1.698,-1.6898,-1.6501,-1.5654,-1.515,-1.4701,-1.3858,-1.5843,-1.8109,-1.8109,-2.0573,-2.2928,-2.2928,-2.2928,-2.2928,-2.2928,-2.2928,-2.2928,-2.2928,-2.2928,-2.2928,-2.2928,-2.2933,-2.2959,-2.2941,-2.3207,-2.35,-2.3634,-2.3981,-2.4289,-2.4496,-2.4589,-2.4636,-2.4636,-2.4636,-2.4636,-2.4636,-2.4636,-2.4636,-2.4636,-2.4636,-2.4636,-2.4636,-2.4636,-2.4636,-2.4636,-2.4636,-2.4636,0.0,0.0,0.0,-0.4115,0.0,0.0,0.0,0.0,-0.3141,0.0,0.0,0.0,0.0,0.0,-0.6307,-0.683,0.0,0.0,0.0,0.0,0.0,0.0,0.0,0.0,0.0,0.0,0.0,0.0,-0.7614,0.0,-0.7975,-0.7988,-0.7988,-0.7988,-0.8191,-0.834,-0.8479,-0.8625,-0.8625,-0.8482,-0.8462,-0.8153,-0.7604,-0.7733,-0.7638,-0.7433,-0.7675,-0.7801,-0.7818,-0.7921,-0.7982,-0.7982,-0.7988,-0.8492,-0.9204,-0.9257,-1.0157,-1.1493,-1.3106,-1.509,-1.6904,-1.6974,-1.698,-1.698,-1.698,-1.6078,-1.5068,-1.5341,-1.431,-1.3253,-1.3551,-1.5843,-1.8109,-1.8109,-2.0573,-2.2928,-2.2928,-2.2928,-2.2928,-2.2928,-2.2928,-2.2928,-2.2928,-2.2928,-2.2928,-2.2928,-2.312,-2.32,-2.2899,-2.3387,-2.3647,-2.3374,-2.3861,-2.4209,-2.4215,-2.4476,-2.4636,-2.4636,-2.4636,-2.4636,-2.4636,-2.4636,-2.4636,-2.4636,-2.4636,-2.4636,-2.4636,-2.4636,-2.4636,-2.4636,-2.4636,-2.4636,0.0,0.0,-0.5457,-0.4218,0.0,0.0,0.0,0.0,0.0,0.0,0.0,0.0,0.0,0.0,-0.5578,-0.6248,-0.6407,0.0,0.0,0.0,0.0,0.0,0.0,0.0,0.0,0.0,0.0,-0.7594,-0.7875,-0.8085,0.0,-0.8194,-0.8194,-0.8194,-0.8333,-0.8431,-0.8482,-0.8733,-0.8835,-0.8781,-0.8577,-0.8275,-0.7837,-0.774,-0.7617,-0.7529,-0.7628,-0.7784,-0.7917,-0.7968,-0.7988,-0.7988,-0.7988,-0.8496,-0.921,-0.921,-1.0105,-1.1441,-1.2555,-1.3514,-1.4198,-1.4198,-1.4198,-1.4198,-1.3936,-1.3633,-1.3365,-1.3482,-1.3311,-1.3413,-1.4775,-1.6703,-1.8544,-1.9519,-2.1396,-2.2928,-2.2928,-2.2928,-2.2928,-2.2928,-2.2928,-2.2928,-2.2928,-2.2928,-2.2928,-2.2928,-2.2953,-2.2979,-2.2879,-2.322,-2.344,-2.334,-2.3855,-2.4202,-2.4202,-2.4469,-2.4636,-2.4636,-2.4636,-2.4636,-2.4636,-2.4636,-2.4636,-2.4636,-2.4636,-2.4636,-2.4636,-2.4442,-2.4349,-2.4342,-2.4155,-2.4269,-0.4741,-0.5435,0.0,0.0,-0.465,0.0,-0.3537,0.0,0.0,0.0,0.0,0.0,0.0,0.0,-0.5258,-0.5975,-0.6096,-0.5728,0.0,0.0,0.0,0.0,0.0,0.0,0.0,0.0,-0.737,-0.7584,-0.7916,-0.8157,0.0,0.0,-0.8347,-0.8347,-0.8486,-0.8564,-0.8564,-0.8811,-0.8885,-0.8881,-0.8737,-0.8431,-0.7985,-0.7953,-0.7801,-0.7604,-0.7709,-0.7865,-0.7988,-0.7988,-0.7988,-0.7995,-0.8099,-0.8577,-0.9292,-0.9292,-1.0226,-1.1611,-1.2362,-1.2739,-1.277,-1.277,-1.2704,-1.2584,-1.2449,-1.2346,-1.2379,-1.2632,-1.2811,-1.34,-1.5321,-1.7054,-1.8677,-2.014,-2.1739,-2.2928,-2.2928,-2.2928,-2.2928,-2.2928,-2.2928,-2.2928,-2.2928,-2.2928,-2.2928,-2.2928,-2.2953,-2.2986,-2.2879,-2.3227,-2.34,-2.3187,-2.3788,-2.4249,-2.4349,-2.4529,-2.4636,-2.4636,-2.4636,-2.4589,-2.4489,-2.4583,-2.4636,-2.4636,-2.4636,-2.469,-2.479,-2.4396,-2.4202,-2.4202,-2.4015,-2.4122]}]]